<?xml version='1.0' encoding='UTF-8'?>
<gpx version="1.1" creator="https://www.komoot.de" xmlns="http://www.topografix.com/GPX/1/1" xmlns:xsi="http://www.w3.org/2001/XMLSchema-instance" xsi:schemaLocation="http://www.topografix.com/GPX/1/1 http://www.topografix.com/GPX/1/1/gpx.xsd">
  <metadata>
    <name>Wortel rit 14</name>
    <author>
      <link href="https://www.komoot.de">
        <text>komoot</text>
        <type>text/html</type>
      </link>
    </author>
  </metadata>
  <trk>
    <name>Wortel rit 14</name>
    <trkseg>
      <trkpt lat="50.852571" lon="3.786396">
        <ele>72.670331</ele>
        <time>2025-03-18T13:30:27.645Z</time>
      </trkpt>
      <trkpt lat="50.852375" lon="3.785817">
        <ele>72.670331</ele>
        <time>2025-03-18T13:30:45.395Z</time>
      </trkpt>
      <trkpt lat="50.851895" lon="3.786164">
        <ele>72.849966</ele>
        <time>2025-03-18T13:30:59.089Z</time>
      </trkpt>
      <trkpt lat="50.851584" lon="3.786311">
        <ele>74.203507</ele>
        <time>2025-03-18T13:31:08.734Z</time>
      </trkpt>
      <trkpt lat="50.851425" lon="3.786341">
        <ele>74.871303</ele>
        <time>2025-03-18T13:31:14.118Z</time>
      </trkpt>
      <trkpt lat="50.851215" lon="3.786352">
        <ele>75.747586</ele>
        <time>2025-03-18T13:31:21.828Z</time>
      </trkpt>
      <trkpt lat="50.851022" lon="3.786305">
        <ele>76.561948</ele>
        <time>2025-03-18T13:31:28.977Z</time>
      </trkpt>
      <trkpt lat="50.850546" lon="3.786111">
        <ele>78.611768</ele>
        <time>2025-03-18T13:31:46.226Z</time>
      </trkpt>
      <trkpt lat="50.850323" lon="3.786067">
        <ele>79.548976</ele>
        <time>2025-03-18T13:31:53.695Z</time>
      </trkpt>
      <trkpt lat="50.850212" lon="3.786096">
        <ele>80.018156</ele>
        <time>2025-03-18T13:31:57.193Z</time>
      </trkpt>
      <trkpt lat="50.849569" lon="3.786687">
        <ele>80.584775</ele>
        <time>2025-03-18T13:32:15.206Z</time>
      </trkpt>
      <trkpt lat="50.849316" lon="3.786907">
        <ele>80.753549</ele>
        <time>2025-03-18T13:32:20.137Z</time>
      </trkpt>
      <trkpt lat="50.849048" lon="3.786938">
        <ele>80.910683</ele>
        <time>2025-03-18T13:32:23.598Z</time>
      </trkpt>
      <trkpt lat="50.848427" lon="3.786751">
        <ele>81.136826</ele>
        <time>2025-03-18T13:32:30.626Z</time>
      </trkpt>
      <trkpt lat="50.847672" lon="3.786699">
        <ele>80.465965</ele>
        <time>2025-03-18T13:32:38.850Z</time>
      </trkpt>
      <trkpt lat="50.847502" lon="3.786725">
        <ele>80.314351</ele>
        <time>2025-03-18T13:32:40.842Z</time>
      </trkpt>
      <trkpt lat="50.847220" lon="3.786861">
        <ele>80.052666</ele>
        <time>2025-03-18T13:32:44.454Z</time>
      </trkpt>
      <trkpt lat="50.847083" lon="3.786876">
        <ele>79.930758</ele>
        <time>2025-03-18T13:32:46.236Z</time>
      </trkpt>
      <trkpt lat="50.845962" lon="3.786589">
        <ele>81.399545</ele>
        <time>2025-03-18T13:33:09.763Z</time>
      </trkpt>
      <trkpt lat="50.845764" lon="3.786640">
        <ele>81.848039</ele>
        <time>2025-03-18T13:33:15.202Z</time>
      </trkpt>
      <trkpt lat="50.845474" lon="3.786793">
        <ele>82.531435</ele>
        <time>2025-03-18T13:33:23.578Z</time>
      </trkpt>
      <trkpt lat="50.844926" lon="3.787066">
        <ele>83.805449</ele>
        <time>2025-03-18T13:33:39.444Z</time>
      </trkpt>
      <trkpt lat="50.844676" lon="3.787110">
        <ele>84.333116</ele>
        <time>2025-03-18T13:33:46.356Z</time>
      </trkpt>
      <trkpt lat="50.842957" lon="3.787106">
        <ele>87.661661</ele>
        <time>2025-03-18T13:34:24.367Z</time>
      </trkpt>
      <trkpt lat="50.842779" lon="3.786846">
        <ele>87.897553</ele>
        <time>2025-03-18T13:34:28.977Z</time>
      </trkpt>
      <trkpt lat="50.842225" lon="3.786751">
        <ele>88.440383</ele>
        <time>2025-03-18T13:34:39.241Z</time>
      </trkpt>
      <trkpt lat="50.841301" lon="3.786701">
        <ele>89.306964</ele>
        <time>2025-03-18T13:34:55.178Z</time>
      </trkpt>
      <trkpt lat="50.840418" lon="3.786956">
        <ele>90.003885</ele>
        <time>2025-03-18T13:35:10.749Z</time>
      </trkpt>
      <trkpt lat="50.839407" lon="3.787352">
        <ele>91.071948</ele>
        <time>2025-03-18T13:35:30.183Z</time>
      </trkpt>
      <trkpt lat="50.838717" lon="3.787699">
        <ele>92.234747</ele>
        <time>2025-03-18T13:35:45.538Z</time>
      </trkpt>
      <trkpt lat="50.837995" lon="3.788117">
        <ele>93.466163</ele>
        <time>2025-03-18T13:36:03.058Z</time>
      </trkpt>
      <trkpt lat="50.837273" lon="3.788743">
        <ele>94.381857</ele>
        <time>2025-03-18T13:36:21.082Z</time>
      </trkpt>
      <trkpt lat="50.836888" lon="3.789035">
        <ele>94.856736</ele>
        <time>2025-03-18T13:36:29.266Z</time>
      </trkpt>
      <trkpt lat="50.835936" lon="3.789512">
        <ele>95.335354</ele>
        <time>2025-03-18T13:36:44.918Z</time>
      </trkpt>
      <trkpt lat="50.835531" lon="3.789850">
        <ele>95.210817</ele>
        <time>2025-03-18T13:36:51.163Z</time>
      </trkpt>
      <trkpt lat="50.835467" lon="3.789910">
        <ele>95.190585</ele>
        <time>2025-03-18T13:36:52.547Z</time>
      </trkpt>
      <trkpt lat="50.834804" lon="3.790807">
        <ele>94.885539</ele>
        <time>2025-03-18T13:37:08.327Z</time>
      </trkpt>
      <trkpt lat="50.834623" lon="3.791284">
        <ele>94.406907</ele>
        <time>2025-03-18T13:37:15.026Z</time>
      </trkpt>
      <trkpt lat="50.834543" lon="3.791673">
        <ele>94.055029</ele>
        <time>2025-03-18T13:37:19.770Z</time>
      </trkpt>
      <trkpt lat="50.834420" lon="3.791573">
        <ele>93.866724</ele>
        <time>2025-03-18T13:37:21.503Z</time>
      </trkpt>
      <trkpt lat="50.834155" lon="3.791137">
        <ele>93.346258</ele>
        <time>2025-03-18T13:37:25.998Z</time>
      </trkpt>
      <trkpt lat="50.833931" lon="3.790693">
        <ele>92.857475</ele>
        <time>2025-03-18T13:37:30.030Z</time>
      </trkpt>
      <trkpt lat="50.833900" lon="3.790681">
        <ele>92.814013</ele>
        <time>2025-03-18T13:37:30.384Z</time>
      </trkpt>
      <trkpt lat="50.833824" lon="3.790686">
        <ele>92.710419</ele>
        <time>2025-03-18T13:37:31.205Z</time>
      </trkpt>
      <trkpt lat="50.833061" lon="3.791492">
        <ele>90.468478</ele>
        <time>2025-03-18T13:37:40.600Z</time>
      </trkpt>
      <trkpt lat="50.833061" lon="3.791618">
        <ele>90.258543</ele>
        <time>2025-03-18T13:37:41.408Z</time>
      </trkpt>
      <trkpt lat="50.832741" lon="3.791875">
        <ele>89.311975</ele>
        <time>2025-03-18T13:37:46.719Z</time>
      </trkpt>
      <trkpt lat="50.832396" lon="3.792041">
        <ele>88.360748</ele>
        <time>2025-03-18T13:37:52.135Z</time>
      </trkpt>
      <trkpt lat="50.832248" lon="3.792145">
        <ele>87.933590</ele>
        <time>2025-03-18T13:37:54.605Z</time>
      </trkpt>
      <trkpt lat="50.832040" lon="3.792412">
        <ele>87.377039</ele>
        <time>2025-03-18T13:37:58.778Z</time>
      </trkpt>
      <trkpt lat="50.831850" lon="3.792710">
        <ele>86.864215</ele>
        <time>2025-03-18T13:38:03.099Z</time>
      </trkpt>
      <trkpt lat="50.831644" lon="3.792518">
        <ele>86.405846</ele>
        <time>2025-03-18T13:38:05.898Z</time>
      </trkpt>
      <trkpt lat="50.831496" lon="3.792430">
        <ele>86.102701</ele>
        <time>2025-03-18T13:38:07.799Z</time>
      </trkpt>
      <trkpt lat="50.831422" lon="3.792422">
        <ele>85.960475</ele>
        <time>2025-03-18T13:38:08.739Z</time>
      </trkpt>
      <trkpt lat="50.830954" lon="3.792560">
        <ele>85.047647</ele>
        <time>2025-03-18T13:38:14.304Z</time>
      </trkpt>
      <trkpt lat="50.830717" lon="3.792672">
        <ele>84.573384</ele>
        <time>2025-03-18T13:38:16.937Z</time>
      </trkpt>
      <trkpt lat="50.830685" lon="3.792690">
        <ele>84.508266</ele>
        <time>2025-03-18T13:38:17.304Z</time>
      </trkpt>
      <trkpt lat="50.830146" lon="3.792770">
        <ele>82.182632</ele>
        <time>2025-03-18T13:38:22.977Z</time>
      </trkpt>
      <trkpt lat="50.829213" lon="3.792977">
        <ele>77.661013</ele>
        <time>2025-03-18T13:38:31.943Z</time>
      </trkpt>
      <trkpt lat="50.829082" lon="3.793031">
        <ele>77.011327</ele>
        <time>2025-03-18T13:38:33.175Z</time>
      </trkpt>
      <trkpt lat="50.828951" lon="3.793085">
        <ele>76.361640</ele>
        <time>2025-03-18T13:38:34.384Z</time>
      </trkpt>
      <trkpt lat="50.828800" lon="3.793185">
        <ele>75.516925</ele>
        <time>2025-03-18T13:38:35.823Z</time>
      </trkpt>
      <trkpt lat="50.828365" lon="3.793496">
        <ele>72.081311</ele>
        <time>2025-03-18T13:38:40.039Z</time>
      </trkpt>
      <trkpt lat="50.828024" lon="3.793553">
        <ele>69.613137</ele>
        <time>2025-03-18T13:38:43.079Z</time>
      </trkpt>
      <trkpt lat="50.827900" lon="3.793596">
        <ele>68.699419</ele>
        <time>2025-03-18T13:38:44.200Z</time>
      </trkpt>
      <trkpt lat="50.827801" lon="3.793679">
        <ele>67.893059</ele>
        <time>2025-03-18T13:38:45.190Z</time>
      </trkpt>
      <trkpt lat="50.827760" lon="3.793734">
        <ele>67.506240</ele>
        <time>2025-03-18T13:38:45.672Z</time>
      </trkpt>
      <trkpt lat="50.827556" lon="3.794303">
        <ele>64.531501</ele>
        <time>2025-03-18T13:38:49.353Z</time>
      </trkpt>
      <trkpt lat="50.827368" lon="3.794599">
        <ele>62.708219</ele>
        <time>2025-03-18T13:38:51.746Z</time>
      </trkpt>
      <trkpt lat="50.826974" lon="3.795019">
        <ele>61.625323</ele>
        <time>2025-03-18T13:38:56.205Z</time>
      </trkpt>
      <trkpt lat="50.826753" lon="3.795236">
        <ele>61.032442</ele>
        <time>2025-03-18T13:38:58.772Z</time>
      </trkpt>
      <trkpt lat="50.826035" lon="3.795277">
        <ele>59.394474</ele>
        <time>2025-03-18T13:39:06.617Z</time>
      </trkpt>
      <trkpt lat="50.825806" lon="3.795161">
        <ele>58.846322</ele>
        <time>2025-03-18T13:39:11.249Z</time>
      </trkpt>
      <trkpt lat="50.825449" lon="3.794829">
        <ele>60.629867</ele>
        <time>2025-03-18T13:39:22.598Z</time>
      </trkpt>
      <trkpt lat="50.825271" lon="3.794773">
        <ele>61.731298</ele>
        <time>2025-03-18T13:39:28.706Z</time>
      </trkpt>
      <trkpt lat="50.824473" lon="3.794964">
        <ele>66.629504</ele>
        <time>2025-03-18T13:40:03.011Z</time>
      </trkpt>
      <trkpt lat="50.823197" lon="3.795521">
        <ele>75.484325</ele>
        <time>2025-03-18T13:41:09.260Z</time>
      </trkpt>
      <trkpt lat="50.822915" lon="3.795567">
        <ele>77.482085</ele>
        <time>2025-03-18T13:41:22.531Z</time>
      </trkpt>
      <trkpt lat="50.822268" lon="3.795509">
        <ele>82.048760</ele>
        <time>2025-03-18T13:41:47.847Z</time>
      </trkpt>
      <trkpt lat="50.822215" lon="3.795558">
        <ele>82.214621</ele>
        <time>2025-03-18T13:41:49.842Z</time>
      </trkpt>
      <trkpt lat="50.822176" lon="3.795686">
        <ele>82.153003</ele>
        <time>2025-03-18T13:41:52.615Z</time>
      </trkpt>
      <trkpt lat="50.822170" lon="3.795887">
        <ele>82.065752</ele>
        <time>2025-03-18T13:41:56.226Z</time>
      </trkpt>
      <trkpt lat="50.821614" lon="3.796707">
        <ele>81.544167</ele>
        <time>2025-03-18T13:42:08.850Z</time>
      </trkpt>
      <trkpt lat="50.821036" lon="3.797452">
        <ele>81.032563</ele>
        <time>2025-03-18T13:42:16.050Z</time>
      </trkpt>
      <trkpt lat="50.820893" lon="3.797572">
        <ele>80.742055</ele>
        <time>2025-03-18T13:42:17.585Z</time>
      </trkpt>
      <trkpt lat="50.820726" lon="3.797761">
        <ele>80.293918</ele>
        <time>2025-03-18T13:42:19.534Z</time>
      </trkpt>
      <trkpt lat="50.820653" lon="3.797916">
        <ele>80.027303</ele>
        <time>2025-03-18T13:42:20.708Z</time>
      </trkpt>
      <trkpt lat="50.820560" lon="3.798338">
        <ele>79.410950</ele>
        <time>2025-03-18T13:42:23.486Z</time>
      </trkpt>
      <trkpt lat="50.820508" lon="3.798700">
        <ele>78.898990</ele>
        <time>2025-03-18T13:42:25.883Z</time>
      </trkpt>
      <trkpt lat="50.820451" lon="3.799359">
        <ele>77.981714</ele>
        <time>2025-03-18T13:42:30.616Z</time>
      </trkpt>
      <trkpt lat="50.820395" lon="3.799595">
        <ele>77.634056</ele>
        <time>2025-03-18T13:42:32.867Z</time>
      </trkpt>
      <trkpt lat="50.820215" lon="3.799911">
        <ele>77.097098</ele>
        <time>2025-03-18T13:42:37.729Z</time>
      </trkpt>
      <trkpt lat="50.819248" lon="3.801043">
        <ele>78.801788</ele>
        <time>2025-03-18T13:43:05.611Z</time>
      </trkpt>
      <trkpt lat="50.819197" lon="3.801166">
        <ele>78.933530</ele>
        <time>2025-03-18T13:43:07.612Z</time>
      </trkpt>
      <trkpt lat="50.818412" lon="3.800802">
        <ele>79.551745</ele>
        <time>2025-03-18T13:43:27.300Z</time>
      </trkpt>
      <trkpt lat="50.817538" lon="3.800595">
        <ele>79.350003</ele>
        <time>2025-03-18T13:43:45.049Z</time>
      </trkpt>
      <trkpt lat="50.816833" lon="3.800325">
        <ele>78.832389</ele>
        <time>2025-03-18T13:43:57.856Z</time>
      </trkpt>
      <trkpt lat="50.815853" lon="3.799722">
        <ele>75.934891</ele>
        <time>2025-03-18T13:44:13.765Z</time>
      </trkpt>
      <trkpt lat="50.815302" lon="3.799360">
        <ele>74.290872</ele>
        <time>2025-03-18T13:44:30.916Z</time>
      </trkpt>
      <trkpt lat="50.814675" lon="3.798934">
        <ele>71.119887</ele>
        <time>2025-03-18T13:44:50.093Z</time>
      </trkpt>
      <trkpt lat="50.813251" lon="3.798001">
        <ele>63.762724</ele>
        <time>2025-03-18T13:45:32.465Z</time>
      </trkpt>
      <trkpt lat="50.812223" lon="3.797550">
        <ele>58.395621</ele>
        <time>2025-03-18T13:46:01.494Z</time>
      </trkpt>
      <trkpt lat="50.812220" lon="3.797549">
        <ele>58.380197</ele>
        <time>2025-03-18T13:46:01.569Z</time>
      </trkpt>
      <trkpt lat="50.811850" lon="3.797487">
        <ele>56.586021</ele>
        <time>2025-03-18T13:46:11.874Z</time>
      </trkpt>
      <trkpt lat="50.811665" lon="3.797512">
        <ele>55.906005</ele>
        <time>2025-03-18T13:46:17.079Z</time>
      </trkpt>
      <trkpt lat="50.810762" lon="3.797767">
        <ele>52.546587</ele>
        <time>2025-03-18T13:46:43.442Z</time>
      </trkpt>
      <trkpt lat="50.810809" lon="3.798016">
        <ele>51.945183</ele>
        <time>2025-03-18T13:46:45.086Z</time>
      </trkpt>
      <trkpt lat="50.810040" lon="3.798064">
        <ele>49.760903</ele>
        <time>2025-03-18T13:46:52.985Z</time>
      </trkpt>
      <trkpt lat="50.809736" lon="3.798017">
        <ele>49.299193</ele>
        <time>2025-03-18T13:46:56.268Z</time>
      </trkpt>
      <trkpt lat="50.809249" lon="3.797644">
        <ele>48.481366</ele>
        <time>2025-03-18T13:47:02.421Z</time>
      </trkpt>
      <trkpt lat="50.808981" lon="3.797511">
        <ele>48.056808</ele>
        <time>2025-03-18T13:47:05.989Z</time>
      </trkpt>
      <trkpt lat="50.808473" lon="3.796037">
        <ele>47.222896</ele>
        <time>2025-03-18T13:47:21.701Z</time>
      </trkpt>
      <trkpt lat="50.808306" lon="3.795663">
        <ele>47.110879</ele>
        <time>2025-03-18T13:47:25.753Z</time>
      </trkpt>
      <trkpt lat="50.808201" lon="3.795546">
        <ele>47.061171</ele>
        <time>2025-03-18T13:47:27.470Z</time>
      </trkpt>
      <trkpt lat="50.808088" lon="3.795529">
        <ele>47.017233</ele>
        <time>2025-03-18T13:47:28.972Z</time>
      </trkpt>
      <trkpt lat="50.807991" lon="3.795655">
        <ele>46.968656</ele>
        <time>2025-03-18T13:47:30.600Z</time>
      </trkpt>
      <trkpt lat="50.807781" lon="3.795813">
        <ele>46.878648</ele>
        <time>2025-03-18T13:47:33.566Z</time>
      </trkpt>
      <trkpt lat="50.807233" lon="3.796042">
        <ele>46.752975</ele>
        <time>2025-03-18T13:47:40.503Z</time>
      </trkpt>
      <trkpt lat="50.805920" lon="3.796699">
        <ele>46.597226</ele>
        <time>2025-03-18T13:47:59.626Z</time>
      </trkpt>
      <trkpt lat="50.805103" lon="3.796996">
        <ele>48.236513</ele>
        <time>2025-03-18T13:48:17.686Z</time>
      </trkpt>
      <trkpt lat="50.804972" lon="3.797067">
        <ele>48.537308</ele>
        <time>2025-03-18T13:48:21.161Z</time>
      </trkpt>
      <trkpt lat="50.804430" lon="3.797385">
        <ele>49.793001</ele>
        <time>2025-03-18T13:48:36.612Z</time>
      </trkpt>
      <trkpt lat="50.804179" lon="3.797481">
        <ele>50.353939</ele>
        <time>2025-03-18T13:48:43.555Z</time>
      </trkpt>
      <trkpt lat="50.803570" lon="3.797558">
        <ele>51.811628</ele>
        <time>2025-03-18T13:48:59.801Z</time>
      </trkpt>
      <trkpt lat="50.803482" lon="3.797545">
        <ele>52.024759</ele>
        <time>2025-03-18T13:49:02.090Z</time>
      </trkpt>
      <trkpt lat="50.803360" lon="3.797468">
        <ele>52.341497</ele>
        <time>2025-03-18T13:49:05.455Z</time>
      </trkpt>
      <trkpt lat="50.803316" lon="3.797367">
        <ele>52.528449</ele>
        <time>2025-03-18T13:49:07.440Z</time>
      </trkpt>
      <trkpt lat="50.803047" lon="3.796392">
        <ele>54.149781</ele>
        <time>2025-03-18T13:49:23.654Z</time>
      </trkpt>
      <trkpt lat="50.803006" lon="3.796313">
        <ele>54.305571</ele>
        <time>2025-03-18T13:49:25.127Z</time>
      </trkpt>
      <trkpt lat="50.802850" lon="3.796189">
        <ele>54.726559</ele>
        <time>2025-03-18T13:49:28.948Z</time>
      </trkpt>
      <trkpt lat="50.802641" lon="3.796168">
        <ele>54.980509</ele>
        <time>2025-03-18T13:49:33.393Z</time>
      </trkpt>
      <trkpt lat="50.802208" lon="3.796257">
        <ele>55.370671</ele>
        <time>2025-03-18T13:49:41.968Z</time>
      </trkpt>
      <trkpt lat="50.801938" lon="3.796273">
        <ele>55.612101</ele>
        <time>2025-03-18T13:49:46.671Z</time>
      </trkpt>
      <trkpt lat="50.801396" lon="3.796210">
        <ele>56.097716</ele>
        <time>2025-03-18T13:49:56.001Z</time>
      </trkpt>
      <trkpt lat="50.800941" lon="3.796202">
        <ele>56.474007</ele>
        <time>2025-03-18T13:50:03.517Z</time>
      </trkpt>
      <trkpt lat="50.800924" lon="3.796845">
        <ele>56.666434</ele>
        <time>2025-03-18T13:50:10.173Z</time>
      </trkpt>
      <trkpt lat="50.800872" lon="3.797381">
        <ele>56.828576</ele>
        <time>2025-03-18T13:50:15.852Z</time>
      </trkpt>
      <trkpt lat="50.800766" lon="3.798054">
        <ele>57.035959</ele>
        <time>2025-03-18T13:50:23.684Z</time>
      </trkpt>
      <trkpt lat="50.800502" lon="3.799358">
        <ele>57.237884</ele>
        <time>2025-03-18T13:50:37.870Z</time>
      </trkpt>
      <trkpt lat="50.800155" lon="3.801072">
        <ele>57.053500</ele>
        <time>2025-03-18T13:50:54.455Z</time>
      </trkpt>
      <trkpt lat="50.800158" lon="3.801318">
        <ele>57.028293</ele>
        <time>2025-03-18T13:50:56.522Z</time>
      </trkpt>
      <trkpt lat="50.799875" lon="3.801219">
        <ele>56.758829</ele>
        <time>2025-03-18T13:51:01.793Z</time>
      </trkpt>
      <trkpt lat="50.799089" lon="3.801085">
        <ele>55.044320</ele>
        <time>2025-03-18T13:51:14.950Z</time>
      </trkpt>
      <trkpt lat="50.798860" lon="3.800990">
        <ele>54.530886</ele>
        <time>2025-03-18T13:51:18.603Z</time>
      </trkpt>
      <trkpt lat="50.798146" lon="3.800572">
        <ele>52.646914</ele>
        <time>2025-03-18T13:51:29.631Z</time>
      </trkpt>
      <trkpt lat="50.797069" lon="3.800003">
        <ele>47.562018</ele>
        <time>2025-03-18T13:51:45.253Z</time>
      </trkpt>
      <trkpt lat="50.795592" lon="3.799285">
        <ele>40.493732</ele>
        <time>2025-03-18T13:52:06.137Z</time>
      </trkpt>
      <trkpt lat="50.795147" lon="3.799094">
        <ele>38.359108</ele>
        <time>2025-03-18T13:52:12.342Z</time>
      </trkpt>
      <trkpt lat="50.794629" lon="3.798876">
        <ele>36.522555</ele>
        <time>2025-03-18T13:52:19.876Z</time>
      </trkpt>
      <trkpt lat="50.794224" lon="3.798603">
        <ele>36.050913</ele>
        <time>2025-03-18T13:52:26.574Z</time>
      </trkpt>
      <trkpt lat="50.793621" lon="3.797931">
        <ele>35.260691</ele>
        <time>2025-03-18T13:52:40.218Z</time>
      </trkpt>
      <trkpt lat="50.793394" lon="3.797634">
        <ele>34.945098</ele>
        <time>2025-03-18T13:52:47.533Z</time>
      </trkpt>
      <trkpt lat="50.792659" lon="3.796533">
        <ele>35.080013</ele>
        <time>2025-03-18T13:53:12.827Z</time>
      </trkpt>
      <trkpt lat="50.792411" lon="3.796213">
        <ele>35.187120</ele>
        <time>2025-03-18T13:53:19.477Z</time>
      </trkpt>
      <trkpt lat="50.792078" lon="3.795967">
        <ele>35.310118</ele>
        <time>2025-03-18T13:53:26.393Z</time>
      </trkpt>
      <trkpt lat="50.791817" lon="3.795879">
        <ele>35.391224</ele>
        <time>2025-03-18T13:53:31.190Z</time>
      </trkpt>
      <trkpt lat="50.791593" lon="3.795871">
        <ele>35.386317</ele>
        <time>2025-03-18T13:53:35.146Z</time>
      </trkpt>
      <trkpt lat="50.791353" lon="3.795915">
        <ele>35.381027</ele>
        <time>2025-03-18T13:53:39.472Z</time>
      </trkpt>
      <trkpt lat="50.791198" lon="3.795991">
        <ele>35.377474</ele>
        <time>2025-03-18T13:53:42.463Z</time>
      </trkpt>
      <trkpt lat="50.791015" lon="3.796117">
        <ele>35.373103</ele>
        <time>2025-03-18T13:53:46.192Z</time>
      </trkpt>
      <trkpt lat="50.790595" lon="3.796517">
        <ele>35.362369</ele>
        <time>2025-03-18T13:53:55.915Z</time>
      </trkpt>
      <trkpt lat="50.790479" lon="3.796601">
        <ele>35.359575</ele>
        <time>2025-03-18T13:53:58.688Z</time>
      </trkpt>
      <trkpt lat="50.790199" lon="3.796699">
        <ele>35.353296</ele>
        <time>2025-03-18T13:54:05.386Z</time>
      </trkpt>
      <trkpt lat="50.789939" lon="3.796719">
        <ele>35.671445</ele>
        <time>2025-03-18T13:54:11.926Z</time>
      </trkpt>
      <trkpt lat="50.789688" lon="3.796694">
        <ele>36.041631</ele>
        <time>2025-03-18T13:54:18.526Z</time>
      </trkpt>
      <trkpt lat="50.789458" lon="3.796597">
        <ele>36.392001</ele>
        <time>2025-03-18T13:54:24.930Z</time>
      </trkpt>
      <trkpt lat="50.789265" lon="3.796471">
        <ele>36.699327</ele>
        <time>2025-03-18T13:54:30.607Z</time>
      </trkpt>
      <trkpt lat="50.788829" lon="3.796013">
        <ele>37.469707</ele>
        <time>2025-03-18T13:54:44.898Z</time>
      </trkpt>
      <trkpt lat="50.788756" lon="3.795954">
        <ele>37.590371</ele>
        <time>2025-03-18T13:54:47.109Z</time>
      </trkpt>
      <trkpt lat="50.788655" lon="3.795942">
        <ele>37.739455</ele>
        <time>2025-03-18T13:54:49.832Z</time>
      </trkpt>
      <trkpt lat="50.787818" lon="3.796285">
        <ele>39.153500</ele>
        <time>2025-03-18T13:55:12.191Z</time>
      </trkpt>
      <trkpt lat="50.787527" lon="3.796444">
        <ele>39.669949</ele>
        <time>2025-03-18T13:55:20.126Z</time>
      </trkpt>
      <trkpt lat="50.787264" lon="3.796662">
        <ele>40.168031</ele>
        <time>2025-03-18T13:55:27.984Z</time>
      </trkpt>
      <trkpt lat="50.787072" lon="3.796880">
        <ele>40.564494</ele>
        <time>2025-03-18T13:55:34.330Z</time>
      </trkpt>
      <trkpt lat="50.785795" lon="3.798514">
        <ele>44.342907</ele>
        <time>2025-03-18T13:56:23.264Z</time>
      </trkpt>
      <trkpt lat="50.785656" lon="3.798586">
        <ele>44.697270</ele>
        <time>2025-03-18T13:56:27.705Z</time>
      </trkpt>
      <trkpt lat="50.785518" lon="3.798657">
        <ele>45.048855</ele>
        <time>2025-03-18T13:56:32.177Z</time>
      </trkpt>
      <trkpt lat="50.785242" lon="3.798229">
        <ele>45.929275</ele>
        <time>2025-03-18T13:56:42.203Z</time>
      </trkpt>
      <trkpt lat="50.785116" lon="3.797957">
        <ele>46.398384</ele>
        <time>2025-03-18T13:56:47.664Z</time>
      </trkpt>
      <trkpt lat="50.784980" lon="3.797670">
        <ele>46.897363</ele>
        <time>2025-03-18T13:56:53.232Z</time>
      </trkpt>
      <trkpt lat="50.784876" lon="3.797555">
        <ele>47.176590</ele>
        <time>2025-03-18T13:56:56.225Z</time>
      </trkpt>
      <trkpt lat="50.784697" lon="3.797441">
        <ele>47.601205</ele>
        <time>2025-03-18T13:57:00.581Z</time>
      </trkpt>
      <trkpt lat="50.784520" lon="3.797878">
        <ele>48.323226</ele>
        <time>2025-03-18T13:57:09.670Z</time>
      </trkpt>
      <trkpt lat="50.784462" lon="3.798023">
        <ele>48.561936</ele>
        <time>2025-03-18T13:57:12.723Z</time>
      </trkpt>
      <trkpt lat="50.784042" lon="3.797567">
        <ele>49.689160</ele>
        <time>2025-03-18T13:57:24.381Z</time>
      </trkpt>
      <trkpt lat="50.783600" lon="3.796946">
        <ele>51.013255</ele>
        <time>2025-03-18T13:57:37.319Z</time>
      </trkpt>
      <trkpt lat="50.783266" lon="3.796624">
        <ele>51.889315</ele>
        <time>2025-03-18T13:57:46.060Z</time>
      </trkpt>
      <trkpt lat="50.782070" lon="3.795609">
        <ele>55.850079</ele>
        <time>2025-03-18T13:58:21.375Z</time>
      </trkpt>
      <trkpt lat="50.781815" lon="3.795441">
        <ele>56.832043</ele>
        <time>2025-03-18T13:58:29.515Z</time>
      </trkpt>
      <trkpt lat="50.781161" lon="3.795160">
        <ele>59.241118</ele>
        <time>2025-03-18T13:58:50.570Z</time>
      </trkpt>
      <trkpt lat="50.780793" lon="3.794927">
        <ele>60.942757</ele>
        <time>2025-03-18T13:59:03.540Z</time>
      </trkpt>
      <trkpt lat="50.779584" lon="3.793794">
        <ele>67.570253</ele>
        <time>2025-03-18T13:59:50.394Z</time>
      </trkpt>
      <trkpt lat="50.778752" lon="3.793058">
        <ele>73.034652</ele>
        <time>2025-03-18T14:00:25.760Z</time>
      </trkpt>
      <trkpt lat="50.778278" lon="3.792340">
        <ele>76.913010</ele>
        <time>2025-03-18T14:00:52.493Z</time>
      </trkpt>
      <trkpt lat="50.778126" lon="3.792110">
        <ele>78.156075</ele>
        <time>2025-03-18T14:01:01.223Z</time>
      </trkpt>
      <trkpt lat="50.777542" lon="3.791071">
        <ele>82.647978</ele>
        <time>2025-03-18T14:01:35.687Z</time>
      </trkpt>
      <trkpt lat="50.776951" lon="3.790244">
        <ele>86.580881</ele>
        <time>2025-03-18T14:02:01.827Z</time>
      </trkpt>
      <trkpt lat="50.776366" lon="3.789426">
        <ele>89.109070</ele>
        <time>2025-03-18T14:02:23.584Z</time>
      </trkpt>
      <trkpt lat="50.776552" lon="3.788766">
        <ele>90.211599</ele>
        <time>2025-03-18T14:02:37.822Z</time>
      </trkpt>
      <trkpt lat="50.776590" lon="3.788487">
        <ele>90.647066</ele>
        <time>2025-03-18T14:02:43.174Z</time>
      </trkpt>
      <trkpt lat="50.776605" lon="3.788156">
        <ele>91.153408</ele>
        <time>2025-03-18T14:02:49.105Z</time>
      </trkpt>
      <trkpt lat="50.776576" lon="3.787705">
        <ele>91.845102</ele>
        <time>2025-03-18T14:02:56.730Z</time>
      </trkpt>
      <trkpt lat="50.776532" lon="3.787447">
        <ele>92.170168</ele>
        <time>2025-03-18T14:03:00.896Z</time>
      </trkpt>
      <trkpt lat="50.776417" lon="3.787078">
        <ele>92.176784</ele>
        <time>2025-03-18T14:03:06.886Z</time>
      </trkpt>
      <trkpt lat="50.776058" lon="3.786275">
        <ele>92.192599</ele>
        <time>2025-03-18T14:03:19.299Z</time>
      </trkpt>
      <trkpt lat="50.775735" lon="3.785534">
        <ele>92.207073</ele>
        <time>2025-03-18T14:03:29.470Z</time>
      </trkpt>
      <trkpt lat="50.775359" lon="3.784615">
        <ele>92.528287</ele>
        <time>2025-03-18T14:03:42.763Z</time>
      </trkpt>
      <trkpt lat="50.775196" lon="3.784111">
        <ele>92.823958</ele>
        <time>2025-03-18T14:03:50.889Z</time>
      </trkpt>
      <trkpt lat="50.775158" lon="3.783929">
        <ele>92.924064</ele>
        <time>2025-03-18T14:03:53.813Z</time>
      </trkpt>
      <trkpt lat="50.775112" lon="3.783113">
        <ele>93.351955</ele>
        <time>2025-03-18T14:04:07.098Z</time>
      </trkpt>
      <trkpt lat="50.775030" lon="3.782639">
        <ele>93.608625</ele>
        <time>2025-03-18T14:04:15.535Z</time>
      </trkpt>
      <trkpt lat="50.774222" lon="3.780374">
        <ele>95.503351</ele>
        <time>2025-03-18T14:04:57.980Z</time>
      </trkpt>
      <trkpt lat="50.774013" lon="3.779705">
        <ele>95.802787</ele>
        <time>2025-03-18T14:05:08.379Z</time>
      </trkpt>
      <trkpt lat="50.773899" lon="3.779009">
        <ele>95.774638</ele>
        <time>2025-03-18T14:05:17.230Z</time>
      </trkpt>
      <trkpt lat="50.773846" lon="3.778576">
        <ele>95.757369</ele>
        <time>2025-03-18T14:05:22.465Z</time>
      </trkpt>
      <trkpt lat="50.773780" lon="3.778175">
        <ele>95.741146</ele>
        <time>2025-03-18T14:05:27.409Z</time>
      </trkpt>
      <trkpt lat="50.773695" lon="3.777866">
        <ele>95.727952</ele>
        <time>2025-03-18T14:05:31.500Z</time>
      </trkpt>
      <trkpt lat="50.773586" lon="3.777543">
        <ele>95.713618</ele>
        <time>2025-03-18T14:05:34.827Z</time>
      </trkpt>
      <trkpt lat="50.773750" lon="3.776987">
        <ele>95.844830</ele>
        <time>2025-03-18T14:05:40.359Z</time>
      </trkpt>
      <trkpt lat="50.774086" lon="3.776132">
        <ele>96.224325</ele>
        <time>2025-03-18T14:05:50.138Z</time>
      </trkpt>
      <trkpt lat="50.774110" lon="3.775998">
        <ele>96.276829</ele>
        <time>2025-03-18T14:05:51.668Z</time>
      </trkpt>
      <trkpt lat="50.774037" lon="3.775916">
        <ele>96.330209</ele>
        <time>2025-03-18T14:05:53.246Z</time>
      </trkpt>
      <trkpt lat="50.773977" lon="3.775794">
        <ele>96.388474</ele>
        <time>2025-03-18T14:05:55.011Z</time>
      </trkpt>
      <trkpt lat="50.773790" lon="3.775293">
        <ele>96.607792</ele>
        <time>2025-03-18T14:06:02.033Z</time>
      </trkpt>
      <trkpt lat="50.773628" lon="3.774601">
        <ele>97.184378</ele>
        <time>2025-03-18T14:06:11.406Z</time>
      </trkpt>
      <trkpt lat="50.773577" lon="3.774218">
        <ele>97.733968</ele>
        <time>2025-03-18T14:06:16.652Z</time>
      </trkpt>
      <trkpt lat="50.773547" lon="3.773233">
        <ele>99.118680</ele>
        <time>2025-03-18T14:06:31.594Z</time>
      </trkpt>
      <trkpt lat="50.773519" lon="3.772955">
        <ele>99.513960</ele>
        <time>2025-03-18T14:06:36.157Z</time>
      </trkpt>
      <trkpt lat="50.773476" lon="3.772762">
        <ele>99.801293</ele>
        <time>2025-03-18T14:06:39.477Z</time>
      </trkpt>
      <trkpt lat="50.773287" lon="3.772381">
        <ele>100.481242</ele>
        <time>2025-03-18T14:06:47.225Z</time>
      </trkpt>
      <trkpt lat="50.772802" lon="3.771778">
        <ele>102.058085</ele>
        <time>2025-03-18T14:07:03.394Z</time>
      </trkpt>
      <trkpt lat="50.772608" lon="3.771479">
        <ele>102.774763</ele>
        <time>2025-03-18T14:07:10.373Z</time>
      </trkpt>
      <trkpt lat="50.772535" lon="3.771365">
        <ele>103.046186</ele>
        <time>2025-03-18T14:07:12.919Z</time>
      </trkpt>
      <trkpt lat="50.772346" lon="3.770941">
        <ele>103.914048</ele>
        <time>2025-03-18T14:07:21.175Z</time>
      </trkpt>
      <trkpt lat="50.772045" lon="3.770213">
        <ele>105.369212</ele>
        <time>2025-03-18T14:07:34.862Z</time>
      </trkpt>
      <trkpt lat="50.772010" lon="3.770130">
        <ele>105.535400</ele>
        <time>2025-03-18T14:07:36.469Z</time>
      </trkpt>
      <trkpt lat="50.771956" lon="3.769999">
        <ele>105.772554</ele>
        <time>2025-03-18T14:07:38.977Z</time>
      </trkpt>
      <trkpt lat="50.771473" lon="3.768822">
        <ele>107.900476</ele>
        <time>2025-03-18T14:08:01.161Z</time>
      </trkpt>
      <trkpt lat="50.771209" lon="3.768186">
        <ele>109.054262</ele>
        <time>2025-03-18T14:08:13.053Z</time>
      </trkpt>
      <trkpt lat="50.771009" lon="3.767777">
        <ele>109.838364</ele>
        <time>2025-03-18T14:08:21.227Z</time>
      </trkpt>
      <trkpt lat="50.770252" lon="3.766567">
        <ele>110.257944</ele>
        <time>2025-03-18T14:08:43.584Z</time>
      </trkpt>
      <trkpt lat="50.770159" lon="3.766441">
        <ele>110.305346</ele>
        <time>2025-03-18T14:08:45.318Z</time>
      </trkpt>
      <trkpt lat="50.770025" lon="3.766350">
        <ele>110.361793</ele>
        <time>2025-03-18T14:08:47.238Z</time>
      </trkpt>
      <trkpt lat="50.769801" lon="3.766286">
        <ele>110.449896</ele>
        <time>2025-03-18T14:08:49.997Z</time>
      </trkpt>
      <trkpt lat="50.769667" lon="3.766155">
        <ele>110.510874</ele>
        <time>2025-03-18T14:08:51.799Z</time>
      </trkpt>
      <trkpt lat="50.769447" lon="3.765706">
        <ele>109.668041</ele>
        <time>2025-03-18T14:08:55.663Z</time>
      </trkpt>
      <trkpt lat="50.768944" lon="3.764459">
        <ele>106.851839</ele>
        <time>2025-03-18T14:09:04.929Z</time>
      </trkpt>
      <trkpt lat="50.768184" lon="3.762568">
        <ele>104.192555</ele>
        <time>2025-03-18T14:09:19.490Z</time>
      </trkpt>
      <trkpt lat="50.767892" lon="3.761767">
        <ele>103.547020</ele>
        <time>2025-03-18T14:09:27.166Z</time>
      </trkpt>
      <trkpt lat="50.767843" lon="3.761502">
        <ele>103.354243</ele>
        <time>2025-03-18T14:09:30.115Z</time>
      </trkpt>
      <trkpt lat="50.767676" lon="3.759791">
        <ele>105.274369</ele>
        <time>2025-03-18T14:09:56.115Z</time>
      </trkpt>
      <trkpt lat="50.767576" lon="3.758766">
        <ele>106.834660</ele>
        <time>2025-03-18T14:10:13.595Z</time>
      </trkpt>
      <trkpt lat="50.767427" lon="3.758287">
        <ele>107.639896</ele>
        <time>2025-03-18T14:10:22.628Z</time>
      </trkpt>
      <trkpt lat="50.766322" lon="3.755926">
        <ele>111.946001</ele>
        <time>2025-03-18T14:11:18.376Z</time>
      </trkpt>
      <trkpt lat="50.763873" lon="3.750684">
        <ele>116.806399</ele>
        <time>2025-03-18T14:13:00.657Z</time>
      </trkpt>
      <trkpt lat="50.763720" lon="3.750376">
        <ele>116.989233</ele>
        <time>2025-03-18T14:13:06.416Z</time>
      </trkpt>
      <trkpt lat="50.763652" lon="3.750284">
        <ele>117.055292</ele>
        <time>2025-03-18T14:13:08.519Z</time>
      </trkpt>
      <trkpt lat="50.762214" lon="3.749003">
        <ele>118.241796</ele>
        <time>2025-03-18T14:13:44.734Z</time>
      </trkpt>
      <trkpt lat="50.761455" lon="3.747663">
        <ele>118.941810</ele>
        <time>2025-03-18T14:14:12.002Z</time>
      </trkpt>
      <trkpt lat="50.761371" lon="3.747596">
        <ele>118.962875</ele>
        <time>2025-03-18T14:14:14.325Z</time>
      </trkpt>
      <trkpt lat="50.761319" lon="3.747576">
        <ele>118.974857</ele>
        <time>2025-03-18T14:14:15.326Z</time>
      </trkpt>
      <trkpt lat="50.761046" lon="3.747629">
        <ele>119.036439</ele>
        <time>2025-03-18T14:14:20.377Z</time>
      </trkpt>
      <trkpt lat="50.760887" lon="3.747702">
        <ele>119.073510</ele>
        <time>2025-03-18T14:14:23.237Z</time>
      </trkpt>
      <trkpt lat="50.760290" lon="3.748244">
        <ele>119.227648</ele>
        <time>2025-03-18T14:14:33.488Z</time>
      </trkpt>
      <trkpt lat="50.759969" lon="3.748441">
        <ele>119.272516</ele>
        <time>2025-03-18T14:14:38.032Z</time>
      </trkpt>
      <trkpt lat="50.759690" lon="3.748534">
        <ele>119.004366</ele>
        <time>2025-03-18T14:14:41.590Z</time>
      </trkpt>
      <trkpt lat="50.758781" lon="3.748721">
        <ele>118.142305</ele>
        <time>2025-03-18T14:14:52.730Z</time>
      </trkpt>
      <trkpt lat="50.758454" lon="3.748716">
        <ele>117.834769</ele>
        <time>2025-03-18T14:14:56.649Z</time>
      </trkpt>
      <trkpt lat="50.757975" lon="3.748603">
        <ele>117.456819</ele>
        <time>2025-03-18T14:15:02.433Z</time>
      </trkpt>
      <trkpt lat="50.757857" lon="3.748535">
        <ele>117.378904</ele>
        <time>2025-03-18T14:15:03.928Z</time>
      </trkpt>
      <trkpt lat="50.757777" lon="3.748419">
        <ele>117.311558</ele>
        <time>2025-03-18T14:15:05.266Z</time>
      </trkpt>
      <trkpt lat="50.757294" lon="3.747128">
        <ele>116.722938</ele>
        <time>2025-03-18T14:15:18.073Z</time>
      </trkpt>
      <trkpt lat="50.756966" lon="3.746600">
        <ele>116.387748</ele>
        <time>2025-03-18T14:15:24.389Z</time>
      </trkpt>
      <trkpt lat="50.756663" lon="3.746294">
        <ele>115.994565</ele>
        <time>2025-03-18T14:15:29.260Z</time>
      </trkpt>
      <trkpt lat="50.755665" lon="3.745405">
        <ele>114.741880</ele>
        <time>2025-03-18T14:15:43.421Z</time>
      </trkpt>
      <trkpt lat="50.754978" lon="3.744670">
        <ele>112.314171</ele>
        <time>2025-03-18T14:15:52.158Z</time>
      </trkpt>
      <trkpt lat="50.754812" lon="3.744578">
        <ele>111.697692</ele>
        <time>2025-03-18T14:15:53.931Z</time>
      </trkpt>
      <trkpt lat="50.754615" lon="3.744582">
        <ele>111.007237</ele>
        <time>2025-03-18T14:15:55.892Z</time>
      </trkpt>
      <trkpt lat="50.754461" lon="3.744644">
        <ele>110.450305</ele>
        <time>2025-03-18T14:15:57.462Z</time>
      </trkpt>
      <trkpt lat="50.754066" lon="3.745141">
        <ele>108.680977</ele>
        <time>2025-03-18T14:16:02.327Z</time>
      </trkpt>
      <trkpt lat="50.753451" lon="3.746427">
        <ele>103.114417</ele>
        <time>2025-03-18T14:16:11.881Z</time>
      </trkpt>
      <trkpt lat="50.753231" lon="3.746754">
        <ele>101.378983</ele>
        <time>2025-03-18T14:16:14.651Z</time>
      </trkpt>
      <trkpt lat="50.753073" lon="3.746917">
        <ele>100.294734</ele>
        <time>2025-03-18T14:16:16.360Z</time>
      </trkpt>
      <trkpt lat="50.752521" lon="3.747342">
        <ele>96.733573</ele>
        <time>2025-03-18T14:16:21.918Z</time>
      </trkpt>
      <trkpt lat="50.752103" lon="3.747558">
        <ele>94.132473</ele>
        <time>2025-03-18T14:16:25.906Z</time>
      </trkpt>
      <trkpt lat="50.751653" lon="3.747618">
        <ele>91.461423</ele>
        <time>2025-03-18T14:16:30.012Z</time>
      </trkpt>
      <trkpt lat="50.749956" lon="3.747524">
        <ele>82.668176</ele>
        <time>2025-03-18T14:16:45.995Z</time>
      </trkpt>
      <trkpt lat="50.747963" lon="3.747827">
        <ele>73.566509</ele>
        <time>2025-03-18T14:17:05.419Z</time>
      </trkpt>
      <trkpt lat="50.747820" lon="3.747877">
        <ele>72.910777</ele>
        <time>2025-03-18T14:17:06.799Z</time>
      </trkpt>
      <trkpt lat="50.747684" lon="3.747973">
        <ele>72.243893</ele>
        <time>2025-03-18T14:17:08.206Z</time>
      </trkpt>
      <trkpt lat="50.746956" lon="3.748616">
        <ele>68.040480</ele>
        <time>2025-03-18T14:17:16.081Z</time>
      </trkpt>
      <trkpt lat="50.746575" lon="3.748775">
        <ele>65.920192</ele>
        <time>2025-03-18T14:17:19.753Z</time>
      </trkpt>
      <trkpt lat="50.746225" lon="3.748827">
        <ele>64.028668</ele>
        <time>2025-03-18T14:17:23.025Z</time>
      </trkpt>
      <trkpt lat="50.745987" lon="3.748806">
        <ele>62.746084</ele>
        <time>2025-03-18T14:17:25.246Z</time>
      </trkpt>
      <trkpt lat="50.744399" lon="3.748414">
        <ele>53.640885</ele>
        <time>2025-03-18T14:17:39.989Z</time>
      </trkpt>
      <trkpt lat="50.744020" lon="3.748354">
        <ele>51.458730</ele>
        <time>2025-03-18T14:17:43.524Z</time>
      </trkpt>
      <trkpt lat="50.743033" lon="3.748320">
        <ele>46.966242</ele>
        <time>2025-03-18T14:17:52.916Z</time>
      </trkpt>
      <trkpt lat="50.742726" lon="3.748372">
        <ele>45.604726</ele>
        <time>2025-03-18T14:17:55.912Z</time>
      </trkpt>
      <trkpt lat="50.742401" lon="3.748489">
        <ele>44.134873</ele>
        <time>2025-03-18T14:17:59.179Z</time>
      </trkpt>
      <trkpt lat="50.741607" lon="3.748810">
        <ele>40.894722</ele>
        <time>2025-03-18T14:18:07.283Z</time>
      </trkpt>
      <trkpt lat="50.741402" lon="3.748884">
        <ele>40.111768</ele>
        <time>2025-03-18T14:18:09.364Z</time>
      </trkpt>
      <trkpt lat="50.741217" lon="3.748955">
        <ele>39.402919</ele>
        <time>2025-03-18T14:18:12.087Z</time>
      </trkpt>
      <trkpt lat="50.740193" lon="3.749346">
        <ele>35.764730</ele>
        <time>2025-03-18T14:18:22.449Z</time>
      </trkpt>
      <trkpt lat="50.740048" lon="3.749352">
        <ele>35.430542</ele>
        <time>2025-03-18T14:18:23.888Z</time>
      </trkpt>
      <trkpt lat="50.739561" lon="3.749233">
        <ele>34.295179</ele>
        <time>2025-03-18T14:18:28.916Z</time>
      </trkpt>
      <trkpt lat="50.739191" lon="3.749128">
        <ele>33.429076</ele>
        <time>2025-03-18T14:18:32.919Z</time>
      </trkpt>
      <trkpt lat="50.738515" lon="3.751762">
        <ele>31.581929</ele>
        <time>2025-03-18T14:18:55.798Z</time>
      </trkpt>
      <trkpt lat="50.738463" lon="3.752083">
        <ele>31.495535</ele>
        <time>2025-03-18T14:18:59.106Z</time>
      </trkpt>
      <trkpt lat="50.738453" lon="3.752349">
        <ele>31.426057</ele>
        <time>2025-03-18T14:19:01.795Z</time>
      </trkpt>
      <trkpt lat="50.738536" lon="3.752712">
        <ele>31.337881</ele>
        <time>2025-03-18T14:19:05.755Z</time>
      </trkpt>
      <trkpt lat="50.738765" lon="3.753270">
        <ele>31.301939</ele>
        <time>2025-03-18T14:19:12.676Z</time>
      </trkpt>
      <trkpt lat="50.738803" lon="3.753474">
        <ele>31.290446</ele>
        <time>2025-03-18T14:19:14.930Z</time>
      </trkpt>
      <trkpt lat="50.738804" lon="3.755205">
        <ele>31.196896</ele>
        <time>2025-03-18T14:19:30.557Z</time>
      </trkpt>
      <trkpt lat="50.738827" lon="3.755678">
        <ele>31.046494</ele>
        <time>2025-03-18T14:19:34.319Z</time>
      </trkpt>
      <trkpt lat="50.738902" lon="3.756765">
        <ele>30.534594</ele>
        <time>2025-03-18T14:19:43.047Z</time>
      </trkpt>
      <trkpt lat="50.739036" lon="3.758401">
        <ele>29.799310</ele>
        <time>2025-03-18T14:19:56.160Z</time>
      </trkpt>
      <trkpt lat="50.738184" lon="3.758608">
        <ele>29.410841</ele>
        <time>2025-03-18T14:20:11.900Z</time>
      </trkpt>
      <trkpt lat="50.737989" lon="3.758698">
        <ele>29.319291</ele>
        <time>2025-03-18T14:20:15.699Z</time>
      </trkpt>
      <trkpt lat="50.737883" lon="3.758844">
        <ele>29.255921</ele>
        <time>2025-03-18T14:20:18.334Z</time>
      </trkpt>
      <trkpt lat="50.737658" lon="3.759306">
        <ele>29.089657</ele>
        <time>2025-03-18T14:20:25.578Z</time>
      </trkpt>
      <trkpt lat="50.737497" lon="3.759569">
        <ele>29.006896</ele>
        <time>2025-03-18T14:20:30.254Z</time>
      </trkpt>
      <trkpt lat="50.737218" lon="3.759866">
        <ele>28.908853</ele>
        <time>2025-03-18T14:20:37.063Z</time>
      </trkpt>
      <trkpt lat="50.736970" lon="3.760002">
        <ele>28.832348</ele>
        <time>2025-03-18T14:20:42.401Z</time>
      </trkpt>
      <trkpt lat="50.736814" lon="3.760059">
        <ele>28.785684</ele>
        <time>2025-03-18T14:20:45.568Z</time>
      </trkpt>
      <trkpt lat="50.736667" lon="3.760052">
        <ele>28.742823</ele>
        <time>2025-03-18T14:20:48.434Z</time>
      </trkpt>
      <trkpt lat="50.736331" lon="3.760027">
        <ele>28.644791</ele>
        <time>2025-03-18T14:20:54.824Z</time>
      </trkpt>
      <trkpt lat="50.736089" lon="3.760009">
        <ele>28.574185</ele>
        <time>2025-03-18T14:20:59.290Z</time>
      </trkpt>
      <trkpt lat="50.735640" lon="3.759904">
        <ele>28.302754</ele>
        <time>2025-03-18T14:21:07.362Z</time>
      </trkpt>
      <trkpt lat="50.735395" lon="3.759902">
        <ele>28.107665</ele>
        <time>2025-03-18T14:21:11.620Z</time>
      </trkpt>
      <trkpt lat="50.735174" lon="3.759992">
        <ele>27.925938</ele>
        <time>2025-03-18T14:21:15.574Z</time>
      </trkpt>
      <trkpt lat="50.735008" lon="3.760116">
        <ele>27.779730</ele>
        <time>2025-03-18T14:21:18.803Z</time>
      </trkpt>
      <trkpt lat="50.734713" lon="3.760410">
        <ele>27.502005</ele>
        <time>2025-03-18T14:21:24.943Z</time>
      </trkpt>
      <trkpt lat="50.734686" lon="3.760441">
        <ele>27.475429</ele>
        <time>2025-03-18T14:21:25.365Z</time>
      </trkpt>
      <trkpt lat="50.734660" lon="3.760480">
        <ele>27.446882</ele>
        <time>2025-03-18T14:21:25.810Z</time>
      </trkpt>
      <trkpt lat="50.734117" lon="3.761740">
        <ele>26.958099</ele>
        <time>2025-03-18T14:21:38.301Z</time>
      </trkpt>
      <trkpt lat="50.734071" lon="3.761912">
        <ele>26.927919</ele>
        <time>2025-03-18T14:21:39.864Z</time>
      </trkpt>
      <trkpt lat="50.734063" lon="3.762002">
        <ele>26.913230</ele>
        <time>2025-03-18T14:21:40.646Z</time>
      </trkpt>
      <trkpt lat="50.734091" lon="3.762182">
        <ele>26.883271</ele>
        <time>2025-03-18T14:21:42.250Z</time>
      </trkpt>
      <trkpt lat="50.734225" lon="3.762529">
        <ele>26.817571</ele>
        <time>2025-03-18T14:21:45.805Z</time>
      </trkpt>
      <trkpt lat="50.734306" lon="3.762959">
        <ele>26.745058</ele>
        <time>2025-03-18T14:21:49.862Z</time>
      </trkpt>
      <trkpt lat="50.734347" lon="3.763453">
        <ele>26.664530</ele>
        <time>2025-03-18T14:21:54.573Z</time>
      </trkpt>
      <trkpt lat="50.734332" lon="3.763895">
        <ele>26.735001</ele>
        <time>2025-03-18T14:21:58.970Z</time>
      </trkpt>
      <trkpt lat="50.734152" lon="3.763894">
        <ele>26.862072</ele>
        <time>2025-03-18T14:22:02.846Z</time>
      </trkpt>
      <trkpt lat="50.733447" lon="3.763756">
        <ele>27.363567</ele>
        <time>2025-03-18T14:22:18.923Z</time>
      </trkpt>
      <trkpt lat="50.732686" lon="3.763709">
        <ele>27.901909</ele>
        <time>2025-03-18T14:22:37.196Z</time>
      </trkpt>
      <trkpt lat="50.732223" lon="3.763597">
        <ele>28.546137</ele>
        <time>2025-03-18T14:22:49.149Z</time>
      </trkpt>
      <trkpt lat="50.732058" lon="3.763517">
        <ele>28.783523</ele>
        <time>2025-03-18T14:22:53.659Z</time>
      </trkpt>
      <trkpt lat="50.731860" lon="3.763235">
        <ele>29.150171</ele>
        <time>2025-03-18T14:23:00.683Z</time>
      </trkpt>
      <trkpt lat="50.731639" lon="3.762777">
        <ele>29.651536</ele>
        <time>2025-03-18T14:23:10.444Z</time>
      </trkpt>
      <trkpt lat="50.730864" lon="3.761452">
        <ele>30.921762</ele>
        <time>2025-03-18T14:23:39.835Z</time>
      </trkpt>
      <trkpt lat="50.730662" lon="3.761204">
        <ele>31.148963</ele>
        <time>2025-03-18T14:23:46.023Z</time>
      </trkpt>
      <trkpt lat="50.730626" lon="3.761115">
        <ele>31.208338</ele>
        <time>2025-03-18T14:23:47.628Z</time>
      </trkpt>
      <trkpt lat="50.730546" lon="3.760751">
        <ele>31.424944</ele>
        <time>2025-03-18T14:23:51.981Z</time>
      </trkpt>
      <trkpt lat="50.730171" lon="3.759548">
        <ele>32.153736</ele>
        <time>2025-03-18T14:24:05.703Z</time>
      </trkpt>
      <trkpt lat="50.730168" lon="3.759543">
        <ele>32.157141</ele>
        <time>2025-03-18T14:24:05.774Z</time>
      </trkpt>
      <trkpt lat="50.729708" lon="3.758699">
        <ele>32.707540</ele>
        <time>2025-03-18T14:24:17.736Z</time>
      </trkpt>
      <trkpt lat="50.729606" lon="3.758297">
        <ele>32.921569</ele>
        <time>2025-03-18T14:24:22.770Z</time>
      </trkpt>
      <trkpt lat="50.729577" lon="3.757680">
        <ele>33.227320</ele>
        <time>2025-03-18T14:24:30.144Z</time>
      </trkpt>
      <trkpt lat="50.729531" lon="3.757284">
        <ele>33.482743</ele>
        <time>2025-03-18T14:24:35.174Z</time>
      </trkpt>
      <trkpt lat="50.729376" lon="3.756726">
        <ele>34.121683</ele>
        <time>2025-03-18T14:24:43.185Z</time>
      </trkpt>
      <trkpt lat="50.729187" lon="3.756392">
        <ele>34.591433</ele>
        <time>2025-03-18T14:24:49.252Z</time>
      </trkpt>
      <trkpt lat="50.727960" lon="3.753445">
        <ele>38.884996</ele>
        <time>2025-03-18T14:25:50.756Z</time>
      </trkpt>
      <trkpt lat="50.727766" lon="3.753052">
        <ele>39.568280</ele>
        <time>2025-03-18T14:26:00.275Z</time>
      </trkpt>
      <trkpt lat="50.727559" lon="3.752729">
        <ele>40.198455</ele>
        <time>2025-03-18T14:26:09.345Z</time>
      </trkpt>
      <trkpt lat="50.727351" lon="3.752490">
        <ele>40.855499</ele>
        <time>2025-03-18T14:26:17.610Z</time>
      </trkpt>
      <trkpt lat="50.727015" lon="3.752232">
        <ele>41.825015</ele>
        <time>2025-03-18T14:26:30.008Z</time>
      </trkpt>
      <trkpt lat="50.726120" lon="3.751902">
        <ele>44.210094</ele>
        <time>2025-03-18T14:26:59.411Z</time>
      </trkpt>
      <trkpt lat="50.725840" lon="3.751742">
        <ele>44.909771</ele>
        <time>2025-03-18T14:27:07.853Z</time>
      </trkpt>
      <trkpt lat="50.725608" lon="3.751542">
        <ele>44.812816</ele>
        <time>2025-03-18T14:27:14.818Z</time>
      </trkpt>
      <trkpt lat="50.724305" lon="3.750402">
        <ele>44.266408</ele>
        <time>2025-03-18T14:27:34.537Z</time>
      </trkpt>
      <trkpt lat="50.723437" lon="3.749861">
        <ele>40.311664</ele>
        <time>2025-03-18T14:27:43.817Z</time>
      </trkpt>
      <trkpt lat="50.722233" lon="3.749179">
        <ele>34.880370</ele>
        <time>2025-03-18T14:27:55.573Z</time>
      </trkpt>
      <trkpt lat="50.721309" lon="3.748668">
        <ele>30.894109</ele>
        <time>2025-03-18T14:28:04.879Z</time>
      </trkpt>
      <trkpt lat="50.721270" lon="3.748647">
        <ele>30.726336</ele>
        <time>2025-03-18T14:28:05.297Z</time>
      </trkpt>
      <trkpt lat="50.721188" lon="3.748598">
        <ele>30.369355</ele>
        <time>2025-03-18T14:28:06.204Z</time>
      </trkpt>
      <trkpt lat="50.720923" lon="3.748490">
        <ele>29.254994</ele>
        <time>2025-03-18T14:28:09.137Z</time>
      </trkpt>
      <trkpt lat="50.719408" lon="3.748136">
        <ele>29.611694</ele>
        <time>2025-03-18T14:28:34.272Z</time>
      </trkpt>
      <trkpt lat="50.719191" lon="3.748059">
        <ele>29.678558</ele>
        <time>2025-03-18T14:28:39.014Z</time>
      </trkpt>
      <trkpt lat="50.718991" lon="3.747867">
        <ele>30.053365</ele>
        <time>2025-03-18T14:28:44.054Z</time>
      </trkpt>
      <trkpt lat="50.718847" lon="3.747613">
        <ele>30.515173</ele>
        <time>2025-03-18T14:28:48.895Z</time>
      </trkpt>
      <trkpt lat="50.718671" lon="3.747136">
        <ele>31.262970</ele>
        <time>2025-03-18T14:28:57.228Z</time>
      </trkpt>
      <trkpt lat="50.718601" lon="3.746891">
        <ele>31.627044</ele>
        <time>2025-03-18T14:29:01.552Z</time>
      </trkpt>
      <trkpt lat="50.718529" lon="3.746507">
        <ele>32.169495</ele>
        <time>2025-03-18T14:29:07.918Z</time>
      </trkpt>
      <trkpt lat="50.718505" lon="3.746151">
        <ele>32.654419</ele>
        <time>2025-03-18T14:29:13.487Z</time>
      </trkpt>
      <trkpt lat="50.718534" lon="3.745809">
        <ele>33.121790</ele>
        <time>2025-03-18T14:29:18.818Z</time>
      </trkpt>
      <trkpt lat="50.718370" lon="3.745768">
        <ele>33.477011</ele>
        <time>2025-03-18T14:29:22.874Z</time>
      </trkpt>
      <trkpt lat="50.718109" lon="3.745614">
        <ele>33.977303</ele>
        <time>2025-03-18T14:29:29.479Z</time>
      </trkpt>
      <trkpt lat="50.717877" lon="3.745413">
        <ele>34.440332</ele>
        <time>2025-03-18T14:29:35.675Z</time>
      </trkpt>
      <trkpt lat="50.717619" lon="3.744938">
        <ele>35.133697</ele>
        <time>2025-03-18T14:29:44.563Z</time>
      </trkpt>
      <trkpt lat="50.717174" lon="3.743846">
        <ele>36.572460</ele>
        <time>2025-03-18T14:30:00.872Z</time>
      </trkpt>
      <trkpt lat="50.716823" lon="3.742926">
        <ele>37.973241</ele>
        <time>2025-03-18T14:30:15.111Z</time>
      </trkpt>
      <trkpt lat="50.716762" lon="3.742678">
        <ele>38.326173</ele>
        <time>2025-03-18T14:30:19.034Z</time>
      </trkpt>
      <trkpt lat="50.716769" lon="3.742524">
        <ele>38.530985</ele>
        <time>2025-03-18T14:30:21.376Z</time>
      </trkpt>
      <trkpt lat="50.716797" lon="3.742338">
        <ele>38.784598</ele>
        <time>2025-03-18T14:30:24.284Z</time>
      </trkpt>
      <trkpt lat="50.717244" lon="3.741142">
        <ele>40.609855</ele>
        <time>2025-03-18T14:30:46.544Z</time>
      </trkpt>
      <trkpt lat="50.717274" lon="3.741018">
        <ele>40.767643</ele>
        <time>2025-03-18T14:30:48.694Z</time>
      </trkpt>
      <trkpt lat="50.717473" lon="3.739973">
        <ele>42.064753</ele>
        <time>2025-03-18T14:31:05.497Z</time>
      </trkpt>
      <trkpt lat="50.718086" lon="3.734762">
        <ele>46.744673</ele>
        <time>2025-03-18T14:32:12.947Z</time>
      </trkpt>
      <trkpt lat="50.718161" lon="3.734258">
        <ele>47.042541</ele>
        <time>2025-03-18T14:32:18.904Z</time>
      </trkpt>
      <trkpt lat="50.718259" lon="3.733780">
        <ele>47.331608</ele>
        <time>2025-03-18T14:32:24.650Z</time>
      </trkpt>
      <trkpt lat="50.718337" lon="3.733305">
        <ele>47.613931</ele>
        <time>2025-03-18T14:32:30.216Z</time>
      </trkpt>
      <trkpt lat="50.718531" lon="3.731628">
        <ele>48.197572</ele>
        <time>2025-03-18T14:32:47.882Z</time>
      </trkpt>
      <trkpt lat="50.718270" lon="3.730801">
        <ele>48.455546</ele>
        <time>2025-03-18T14:32:57.346Z</time>
      </trkpt>
      <trkpt lat="50.717704" lon="3.729913">
        <ele>48.872266</ele>
        <time>2025-03-18T14:33:10.756Z</time>
      </trkpt>
      <trkpt lat="50.717743" lon="3.729573">
        <ele>49.001525</ele>
        <time>2025-03-18T14:33:14.692Z</time>
      </trkpt>
      <trkpt lat="50.717853" lon="3.729137">
        <ele>49.177098</ele>
        <time>2025-03-18T14:33:19.892Z</time>
      </trkpt>
      <trkpt lat="50.718046" lon="3.728464">
        <ele>49.453477</ele>
        <time>2025-03-18T14:33:28.086Z</time>
      </trkpt>
      <trkpt lat="50.718195" lon="3.728112">
        <ele>49.611871</ele>
        <time>2025-03-18T14:33:32.772Z</time>
      </trkpt>
      <trkpt lat="50.718290" lon="3.727929">
        <ele>49.704497</ele>
        <time>2025-03-18T14:33:35.240Z</time>
      </trkpt>
      <trkpt lat="50.718345" lon="3.727739">
        <ele>49.797614</ele>
        <time>2025-03-18T14:33:37.380Z</time>
      </trkpt>
      <trkpt lat="50.718746" lon="3.725722">
        <ele>50.739901</ele>
        <time>2025-03-18T14:33:59.952Z</time>
      </trkpt>
      <trkpt lat="50.718790" lon="3.725400">
        <ele>50.886725</ele>
        <time>2025-03-18T14:34:03.997Z</time>
      </trkpt>
      <trkpt lat="50.718759" lon="3.724915">
        <ele>51.317102</ele>
        <time>2025-03-18T14:34:10.211Z</time>
      </trkpt>
      <trkpt lat="50.718448" lon="3.721597">
        <ele>54.851595</ele>
        <time>2025-03-18T14:34:56.916Z</time>
      </trkpt>
      <trkpt lat="50.718092" lon="3.718239">
        <ele>58.157862</ele>
        <time>2025-03-18T14:35:43.515Z</time>
      </trkpt>
      <trkpt lat="50.717952" lon="3.718220">
        <ele>58.339553</ele>
        <time>2025-03-18T14:35:46.416Z</time>
      </trkpt>
      <trkpt lat="50.717894" lon="3.717367">
        <ele>59.041889</ele>
        <time>2025-03-18T14:35:57.235Z</time>
      </trkpt>
      <trkpt lat="50.717573" lon="3.715792">
        <ele>58.778771</ele>
        <time>2025-03-18T14:36:13.266Z</time>
      </trkpt>
      <trkpt lat="50.717530" lon="3.715473">
        <ele>58.648189</ele>
        <time>2025-03-18T14:36:15.753Z</time>
      </trkpt>
      <trkpt lat="50.717384" lon="3.713648">
        <ele>58.006907</ele>
        <time>2025-03-18T14:36:29.094Z</time>
      </trkpt>
      <trkpt lat="50.717384" lon="3.713232">
        <ele>57.901115</ele>
        <time>2025-03-18T14:36:32.252Z</time>
      </trkpt>
      <trkpt lat="50.717443" lon="3.712627">
        <ele>57.745444</ele>
        <time>2025-03-18T14:36:37.240Z</time>
      </trkpt>
      <trkpt lat="50.717719" lon="3.710517">
        <ele>57.981057</ele>
        <time>2025-03-18T14:37:00.799Z</time>
      </trkpt>
      <trkpt lat="50.717326" lon="3.710190">
        <ele>58.355816</ele>
        <time>2025-03-18T14:37:11.786Z</time>
      </trkpt>
      <trkpt lat="50.717193" lon="3.709970">
        <ele>58.518300</ele>
        <time>2025-03-18T14:37:16.493Z</time>
      </trkpt>
      <trkpt lat="50.717124" lon="3.709769">
        <ele>58.640434</ele>
        <time>2025-03-18T14:37:19.997Z</time>
      </trkpt>
      <trkpt lat="50.716659" lon="3.709206">
        <ele>59.041248</ele>
        <time>2025-03-18T14:37:33.993Z</time>
      </trkpt>
      <trkpt lat="50.716495" lon="3.708880">
        <ele>59.139170</ele>
        <time>2025-03-18T14:37:40.026Z</time>
      </trkpt>
      <trkpt lat="50.716341" lon="3.708442">
        <ele>59.256996</ele>
        <time>2025-03-18T14:37:46.953Z</time>
      </trkpt>
      <trkpt lat="50.716200" lon="3.707699">
        <ele>59.439415</ele>
        <time>2025-03-18T14:37:57.165Z</time>
      </trkpt>
      <trkpt lat="50.715972" lon="3.705669">
        <ele>59.643967</ele>
        <time>2025-03-18T14:38:23.986Z</time>
      </trkpt>
      <trkpt lat="50.715933" lon="3.704226">
        <ele>59.653597</ele>
        <time>2025-03-18T14:38:42.926Z</time>
      </trkpt>
      <trkpt lat="50.715888" lon="3.703619">
        <ele>59.512895</ele>
        <time>2025-03-18T14:38:50.506Z</time>
      </trkpt>
      <trkpt lat="50.715747" lon="3.701968">
        <ele>58.977637</ele>
        <time>2025-03-18T14:39:09.361Z</time>
      </trkpt>
      <trkpt lat="50.715411" lon="3.699550">
        <ele>59.264398</ele>
        <time>2025-03-18T14:39:38.823Z</time>
      </trkpt>
      <trkpt lat="50.715372" lon="3.699089">
        <ele>59.403847</ele>
        <time>2025-03-18T14:39:45.865Z</time>
      </trkpt>
      <trkpt lat="50.715295" lon="3.697417">
        <ele>61.666164</ele>
        <time>2025-03-18T14:40:17.077Z</time>
      </trkpt>
      <trkpt lat="50.715144" lon="3.696731">
        <ele>63.109167</ele>
        <time>2025-03-18T14:40:33.166Z</time>
      </trkpt>
      <trkpt lat="50.715064" lon="3.695879">
        <ele>64.820494</ele>
        <time>2025-03-18T14:40:53.120Z</time>
      </trkpt>
      <trkpt lat="50.715013" lon="3.695600">
        <ele>65.294195</ele>
        <time>2025-03-18T14:40:59.858Z</time>
      </trkpt>
      <trkpt lat="50.714793" lon="3.695002">
        <ele>65.779649</ele>
        <time>2025-03-18T14:41:15.060Z</time>
      </trkpt>
      <trkpt lat="50.714360" lon="3.693993">
        <ele>66.635223</ele>
        <time>2025-03-18T14:41:33.877Z</time>
      </trkpt>
      <trkpt lat="50.714266" lon="3.693677">
        <ele>66.880290</ele>
        <time>2025-03-18T14:41:37.848Z</time>
      </trkpt>
      <trkpt lat="50.714213" lon="3.693247">
        <ele>67.187783</ele>
        <time>2025-03-18T14:41:42.475Z</time>
      </trkpt>
      <trkpt lat="50.714211" lon="3.693141">
        <ele>67.213614</ele>
        <time>2025-03-18T14:41:43.589Z</time>
      </trkpt>
      <trkpt lat="50.714087" lon="3.692612">
        <ele>66.979370</ele>
        <time>2025-03-18T14:41:49.330Z</time>
      </trkpt>
      <trkpt lat="50.714003" lon="3.692429">
        <ele>66.885510</ele>
        <time>2025-03-18T14:41:51.593Z</time>
      </trkpt>
      <trkpt lat="50.713525" lon="3.691973">
        <ele>66.519271</ele>
        <time>2025-03-18T14:42:00.652Z</time>
      </trkpt>
      <trkpt lat="50.712868" lon="3.691183">
        <ele>66.159398</ele>
        <time>2025-03-18T14:42:18.772Z</time>
      </trkpt>
      <trkpt lat="50.712649" lon="3.690967">
        <ele>66.403761</ele>
        <time>2025-03-18T14:42:25.298Z</time>
      </trkpt>
      <trkpt lat="50.711860" lon="3.690441">
        <ele>67.214282</ele>
        <time>2025-03-18T14:42:46.564Z</time>
      </trkpt>
      <trkpt lat="50.711833" lon="3.690426">
        <ele>67.241370</ele>
        <time>2025-03-18T14:42:47.254Z</time>
      </trkpt>
      <trkpt lat="50.710908" lon="3.690012">
        <ele>68.235165</ele>
        <time>2025-03-18T14:43:10.058Z</time>
      </trkpt>
      <trkpt lat="50.710720" lon="3.689889">
        <ele>68.468457</ele>
        <time>2025-03-18T14:43:14.717Z</time>
      </trkpt>
      <trkpt lat="50.710541" lon="3.689701">
        <ele>68.714907</ele>
        <time>2025-03-18T14:43:19.817Z</time>
      </trkpt>
      <trkpt lat="50.709987" lon="3.688963">
        <ele>69.545818</ele>
        <time>2025-03-18T14:43:38.091Z</time>
      </trkpt>
      <trkpt lat="50.709798" lon="3.688749">
        <ele>69.812432</ele>
        <time>2025-03-18T14:43:44.296Z</time>
      </trkpt>
      <trkpt lat="50.709689" lon="3.688570">
        <ele>70.024610</ele>
        <time>2025-03-18T14:43:47.685Z</time>
      </trkpt>
      <trkpt lat="50.709644" lon="3.688445">
        <ele>70.147871</ele>
        <time>2025-03-18T14:43:49.654Z</time>
      </trkpt>
      <trkpt lat="50.709648" lon="3.688267">
        <ele>70.300557</ele>
        <time>2025-03-18T14:43:52.088Z</time>
      </trkpt>
      <trkpt lat="50.709706" lon="3.687946">
        <ele>70.586715</ele>
        <time>2025-03-18T14:43:56.650Z</time>
      </trkpt>
      <trkpt lat="50.709681" lon="3.687699">
        <ele>70.801142</ele>
        <time>2025-03-18T14:44:00.059Z</time>
      </trkpt>
      <trkpt lat="50.709516" lon="3.687302">
        <ele>71.208222</ele>
        <time>2025-03-18T14:44:06.413Z</time>
      </trkpt>
      <trkpt lat="50.709359" lon="3.687001">
        <ele>71.542515</ele>
        <time>2025-03-18T14:44:11.388Z</time>
      </trkpt>
      <trkpt lat="50.709211" lon="3.686797">
        <ele>71.808453</ele>
        <time>2025-03-18T14:44:15.186Z</time>
      </trkpt>
      <trkpt lat="50.709082" lon="3.686671">
        <ele>72.013789</ele>
        <time>2025-03-18T14:44:18.051Z</time>
      </trkpt>
      <trkpt lat="50.708736" lon="3.686479">
        <ele>72.460617</ele>
        <time>2025-03-18T14:44:24.840Z</time>
      </trkpt>
      <trkpt lat="50.708499" lon="3.686275">
        <ele>72.756004</ele>
        <time>2025-03-18T14:44:29.723Z</time>
      </trkpt>
      <trkpt lat="50.708375" lon="3.686123">
        <ele>72.927788</ele>
        <time>2025-03-18T14:44:32.515Z</time>
      </trkpt>
      <trkpt lat="50.708118" lon="3.685809">
        <ele>73.283388</ele>
        <time>2025-03-18T14:44:38.344Z</time>
      </trkpt>
      <trkpt lat="50.707458" lon="3.685146">
        <ele>74.139413</ele>
        <time>2025-03-18T14:44:53.970Z</time>
      </trkpt>
      <trkpt lat="50.707285" lon="3.684924">
        <ele>74.178849</ele>
        <time>2025-03-18T14:44:58.927Z</time>
      </trkpt>
      <trkpt lat="50.707149" lon="3.684691">
        <ele>74.124339</ele>
        <time>2025-03-18T14:45:03.254Z</time>
      </trkpt>
      <trkpt lat="50.706739" lon="3.683845">
        <ele>73.941079</ele>
        <time>2025-03-18T14:45:15.298Z</time>
      </trkpt>
      <trkpt lat="50.706618" lon="3.683715">
        <ele>73.901323</ele>
        <time>2025-03-18T14:45:17.223Z</time>
      </trkpt>
      <trkpt lat="50.706500" lon="3.684418">
        <ele>73.776212</ele>
        <time>2025-03-18T14:45:24.724Z</time>
      </trkpt>
      <trkpt lat="50.706232" lon="3.685722">
        <ele>71.690738</ele>
        <time>2025-03-18T14:45:37.436Z</time>
      </trkpt>
      <trkpt lat="50.706215" lon="3.685929">
        <ele>71.306303</ele>
        <time>2025-03-18T14:45:39.314Z</time>
      </trkpt>
      <trkpt lat="50.706229" lon="3.686113">
        <ele>70.964983</ele>
        <time>2025-03-18T14:45:40.999Z</time>
      </trkpt>
      <trkpt lat="50.706279" lon="3.686320">
        <ele>70.556951</ele>
        <time>2025-03-18T14:45:43.009Z</time>
      </trkpt>
      <trkpt lat="50.706355" lon="3.686487">
        <ele>70.178200</ele>
        <time>2025-03-18T14:45:44.906Z</time>
      </trkpt>
      <trkpt lat="50.707221" lon="3.687601">
        <ele>66.646570</ele>
        <time>2025-03-18T14:46:01.756Z</time>
      </trkpt>
      <trkpt lat="50.707342" lon="3.687832">
        <ele>65.994893</ele>
        <time>2025-03-18T14:46:04.540Z</time>
      </trkpt>
      <trkpt lat="50.707401" lon="3.688062">
        <ele>65.455446</ele>
        <time>2025-03-18T14:46:06.818Z</time>
      </trkpt>
      <trkpt lat="50.707420" lon="3.688399">
        <ele>64.719962</ele>
        <time>2025-03-18T14:46:09.885Z</time>
      </trkpt>
      <trkpt lat="50.707372" lon="3.688699">
        <ele>64.047314</ele>
        <time>2025-03-18T14:46:12.649Z</time>
      </trkpt>
      <trkpt lat="50.707080" lon="3.689416">
        <ele>62.217035</ele>
        <time>2025-03-18T14:46:20.141Z</time>
      </trkpt>
      <trkpt lat="50.706835" lon="3.689837">
        <ele>61.189641</ele>
        <time>2025-03-18T14:46:25.116Z</time>
      </trkpt>
      <trkpt lat="50.705813" lon="3.691168">
        <ele>57.430746</ele>
        <time>2025-03-18T14:46:44.491Z</time>
      </trkpt>
      <trkpt lat="50.703455" lon="3.693960">
        <ele>59.572304</ele>
        <time>2025-03-18T14:47:58.508Z</time>
      </trkpt>
      <trkpt lat="50.703095" lon="3.693236">
        <ele>60.106706</ele>
        <time>2025-03-18T14:48:08.140Z</time>
      </trkpt>
      <trkpt lat="50.702714" lon="3.692601">
        <ele>60.486947</ele>
        <time>2025-03-18T14:48:17.097Z</time>
      </trkpt>
      <trkpt lat="50.701805" lon="3.691040">
        <ele>61.303768</ele>
        <time>2025-03-18T14:48:40.270Z</time>
      </trkpt>
      <trkpt lat="50.701713" lon="3.690810">
        <ele>61.564366</ele>
        <time>2025-03-18T14:48:43.448Z</time>
      </trkpt>
      <trkpt lat="50.701642" lon="3.690220">
        <ele>62.250608</ele>
        <time>2025-03-18T14:48:50.550Z</time>
      </trkpt>
      <trkpt lat="50.701556" lon="3.689958">
        <ele>62.587809</ele>
        <time>2025-03-18T14:48:54.152Z</time>
      </trkpt>
      <trkpt lat="50.700706" lon="3.687941">
        <ele>66.290675</ele>
        <time>2025-03-18T14:49:31.134Z</time>
      </trkpt>
      <trkpt lat="50.700550" lon="3.687636">
        <ele>67.274108</ele>
        <time>2025-03-18T14:49:38.554Z</time>
      </trkpt>
      <trkpt lat="50.699471" lon="3.685856">
        <ele>74.352237</ele>
        <time>2025-03-18T14:50:30.949Z</time>
      </trkpt>
      <trkpt lat="50.699340" lon="3.685608">
        <ele>75.576142</ele>
        <time>2025-03-18T14:50:38.729Z</time>
      </trkpt>
      <trkpt lat="50.699154" lon="3.685152">
        <ele>77.631788</ele>
        <time>2025-03-18T14:50:52.290Z</time>
      </trkpt>
      <trkpt lat="50.699060" lon="3.684835">
        <ele>78.958394</ele>
        <time>2025-03-18T14:51:01.328Z</time>
      </trkpt>
      <trkpt lat="50.698709" lon="3.683308">
        <ele>85.070531</ele>
        <time>2025-03-18T14:51:44.726Z</time>
      </trkpt>
      <trkpt lat="50.698538" lon="3.682841">
        <ele>87.080587</ele>
        <time>2025-03-18T14:51:58.804Z</time>
      </trkpt>
      <trkpt lat="50.695676" lon="3.676751">
        <ele>113.382223</ele>
        <time>2025-03-18T14:54:58.611Z</time>
      </trkpt>
      <trkpt lat="50.695565" lon="3.676576">
        <ele>113.528591</ele>
        <time>2025-03-18T14:55:02.219Z</time>
      </trkpt>
      <trkpt lat="50.695434" lon="3.676580">
        <ele>113.650842</ele>
        <time>2025-03-18T14:55:05.592Z</time>
      </trkpt>
      <trkpt lat="50.694989" lon="3.676811">
        <ele>114.087914</ele>
        <time>2025-03-18T14:55:15.787Z</time>
      </trkpt>
      <trkpt lat="50.694871" lon="3.676909">
        <ele>114.212319</ele>
        <time>2025-03-18T14:55:18.276Z</time>
      </trkpt>
      <trkpt lat="50.694713" lon="3.677132">
        <ele>114.410066</ele>
        <time>2025-03-18T14:55:22.077Z</time>
      </trkpt>
      <trkpt lat="50.694418" lon="3.677767">
        <ele>114.875487</ele>
        <time>2025-03-18T14:55:30.449Z</time>
      </trkpt>
      <trkpt lat="50.694128" lon="3.678196">
        <ele>114.973224</ele>
        <time>2025-03-18T14:55:37.919Z</time>
      </trkpt>
      <trkpt lat="50.693874" lon="3.678427">
        <ele>115.042440</ele>
        <time>2025-03-18T14:55:43.911Z</time>
      </trkpt>
      <trkpt lat="50.693678" lon="3.678560">
        <ele>115.092815</ele>
        <time>2025-03-18T14:55:48.497Z</time>
      </trkpt>
      <trkpt lat="50.693648" lon="3.678540">
        <ele>115.100505</ele>
        <time>2025-03-18T14:55:49.190Z</time>
      </trkpt>
      <trkpt lat="50.693624" lon="3.678429">
        <ele>115.118048</ele>
        <time>2025-03-18T14:55:51.014Z</time>
      </trkpt>
      <trkpt lat="50.693002" lon="3.677335">
        <ele>115.428756</ele>
        <time>2025-03-18T14:56:12.812Z</time>
      </trkpt>
      <trkpt lat="50.692919" lon="3.677173">
        <ele>115.546948</ele>
        <time>2025-03-18T14:56:15.934Z</time>
      </trkpt>
      <trkpt lat="50.692799" lon="3.677027">
        <ele>115.682619</ele>
        <time>2025-03-18T14:56:19.329Z</time>
      </trkpt>
      <trkpt lat="50.691818" lon="3.676574">
        <ele>116.597902</ele>
        <time>2025-03-18T14:56:43.831Z</time>
      </trkpt>
      <trkpt lat="50.691204" lon="3.676161">
        <ele>116.972665</ele>
        <time>2025-03-18T14:57:00.187Z</time>
      </trkpt>
      <trkpt lat="50.691042" lon="3.676000">
        <ele>117.007383</ele>
        <time>2025-03-18T14:57:04.422Z</time>
      </trkpt>
      <trkpt lat="50.690763" lon="3.675543">
        <ele>117.080301</ele>
        <time>2025-03-18T14:57:12.792Z</time>
      </trkpt>
      <trkpt lat="50.690255" lon="3.674689">
        <ele>117.214894</ele>
        <time>2025-03-18T14:57:27.083Z</time>
      </trkpt>
      <trkpt lat="50.690008" lon="3.674401">
        <ele>117.340800</ele>
        <time>2025-03-18T14:57:32.732Z</time>
      </trkpt>
      <trkpt lat="50.689263" lon="3.673802">
        <ele>117.868261</ele>
        <time>2025-03-18T14:57:49.549Z</time>
      </trkpt>
      <trkpt lat="50.687933" lon="3.673088">
        <ele>119.201904</ele>
        <time>2025-03-18T14:58:26.800Z</time>
      </trkpt>
      <trkpt lat="50.687854" lon="3.673005">
        <ele>119.332718</ele>
        <time>2025-03-18T14:58:29.599Z</time>
      </trkpt>
      <trkpt lat="50.687299" lon="3.672179">
        <ele>120.384200</ele>
        <time>2025-03-18T14:58:50.703Z</time>
      </trkpt>
      <trkpt lat="50.687196" lon="3.672089">
        <ele>120.546482</ele>
        <time>2025-03-18T14:58:53.758Z</time>
      </trkpt>
      <trkpt lat="50.686968" lon="3.671986">
        <ele>120.845951</ele>
        <time>2025-03-18T14:58:59.711Z</time>
      </trkpt>
      <trkpt lat="50.685465" lon="3.671467">
        <ele>119.564973</ele>
        <time>2025-03-18T14:59:26.892Z</time>
      </trkpt>
      <trkpt lat="50.683851" lon="3.670907">
        <ele>116.211156</ele>
        <time>2025-03-18T14:59:52.400Z</time>
      </trkpt>
      <trkpt lat="50.683019" lon="3.670615">
        <ele>113.765938</ele>
        <time>2025-03-18T15:00:01.495Z</time>
      </trkpt>
      <trkpt lat="50.682260" lon="3.670545">
        <ele>111.174442</ele>
        <time>2025-03-18T15:00:09.233Z</time>
      </trkpt>
      <trkpt lat="50.681811" lon="3.670423">
        <ele>109.621492</ele>
        <time>2025-03-18T15:00:13.589Z</time>
      </trkpt>
      <trkpt lat="50.681573" lon="3.670314">
        <ele>108.794435</ele>
        <time>2025-03-18T15:00:15.897Z</time>
      </trkpt>
      <trkpt lat="50.680903" lon="3.669828">
        <ele>106.386289</ele>
        <time>2025-03-18T15:00:23.087Z</time>
      </trkpt>
      <trkpt lat="50.680785" lon="3.669803">
        <ele>105.997467</ele>
        <time>2025-03-18T15:00:24.277Z</time>
      </trkpt>
      <trkpt lat="50.680645" lon="3.669827">
        <ele>105.537564</ele>
        <time>2025-03-18T15:00:25.711Z</time>
      </trkpt>
      <trkpt lat="50.680491" lon="3.669562">
        <ele>104.793478</ele>
        <time>2025-03-18T15:00:29.153Z</time>
      </trkpt>
      <trkpt lat="50.679710" lon="3.669140">
        <ele>102.959066</ele>
        <time>2025-03-18T15:00:42.206Z</time>
      </trkpt>
      <trkpt lat="50.677737" lon="3.668893">
        <ele>100.021737</ele>
        <time>2025-03-18T15:01:18.349Z</time>
      </trkpt>
      <trkpt lat="50.677549" lon="3.668763">
        <ele>99.448093</ele>
        <time>2025-03-18T15:01:20.747Z</time>
      </trkpt>
      <trkpt lat="50.677277" lon="3.668633">
        <ele>98.653817</ele>
        <time>2025-03-18T15:01:23.867Z</time>
      </trkpt>
      <trkpt lat="50.676094" lon="3.668261">
        <ele>94.306066</ele>
        <time>2025-03-18T15:01:35.281Z</time>
      </trkpt>
      <trkpt lat="50.675637" lon="3.668188">
        <ele>92.032581</ele>
        <time>2025-03-18T15:01:39.367Z</time>
      </trkpt>
      <trkpt lat="50.675336" lon="3.668084">
        <ele>90.507485</ele>
        <time>2025-03-18T15:01:42.185Z</time>
      </trkpt>
      <trkpt lat="50.675026" lon="3.667905">
        <ele>88.873641</ele>
        <time>2025-03-18T15:01:45.283Z</time>
      </trkpt>
      <trkpt lat="50.674270" lon="3.669951">
        <ele>86.791699</ele>
        <time>2025-03-18T15:02:11.069Z</time>
      </trkpt>
      <trkpt lat="50.673145" lon="3.673103">
        <ele>88.732482</ele>
        <time>2025-03-18T15:03:06.685Z</time>
      </trkpt>
      <trkpt lat="50.673009" lon="3.673344">
        <ele>89.227115</ele>
        <time>2025-03-18T15:03:13.430Z</time>
      </trkpt>
      <trkpt lat="50.671821" lon="3.675037">
        <ele>93.691843</ele>
        <time>2025-03-18T15:04:09.629Z</time>
      </trkpt>
      <trkpt lat="50.671228" lon="3.675709">
        <ele>92.974636</ele>
        <time>2025-03-18T15:04:23.284Z</time>
      </trkpt>
      <trkpt lat="50.670431" lon="3.676580">
        <ele>91.781809</ele>
        <time>2025-03-18T15:04:37.581Z</time>
      </trkpt>
      <trkpt lat="50.669284" lon="3.677823">
        <ele>90.596559</ele>
        <time>2025-03-18T15:05:01.078Z</time>
      </trkpt>
      <trkpt lat="50.668455" lon="3.676450">
        <ele>88.801384</ele>
        <time>2025-03-18T15:05:28.361Z</time>
      </trkpt>
      <trkpt lat="50.668182" lon="3.675956">
        <ele>87.939613</ele>
        <time>2025-03-18T15:05:35.278Z</time>
      </trkpt>
      <trkpt lat="50.667945" lon="3.675444">
        <ele>87.105980</ele>
        <time>2025-03-18T15:05:41.186Z</time>
      </trkpt>
      <trkpt lat="50.667121" lon="3.673692">
        <ele>79.759156</ele>
        <time>2025-03-18T15:05:59.304Z</time>
      </trkpt>
      <trkpt lat="50.665946" lon="3.671000">
        <ele>67.181010</ele>
        <time>2025-03-18T15:06:25.826Z</time>
      </trkpt>
      <trkpt lat="50.665722" lon="3.670349">
        <ele>64.399221</ele>
        <time>2025-03-18T15:06:32.329Z</time>
      </trkpt>
      <trkpt lat="50.665661" lon="3.670061">
        <ele>64.279519</ele>
        <time>2025-03-18T15:06:35.146Z</time>
      </trkpt>
      <trkpt lat="50.665480" lon="3.668873">
        <ele>63.886256</ele>
        <time>2025-03-18T15:06:48.679Z</time>
      </trkpt>
      <trkpt lat="50.665479" lon="3.668870">
        <ele>63.885165</ele>
        <time>2025-03-18T15:06:48.722Z</time>
      </trkpt>
      <trkpt lat="50.665417" lon="3.668605">
        <ele>63.794247</ele>
        <time>2025-03-18T15:06:52.989Z</time>
      </trkpt>
      <trkpt lat="50.665326" lon="3.668319">
        <ele>63.691247</ele>
        <time>2025-03-18T15:06:58.138Z</time>
      </trkpt>
      <trkpt lat="50.664911" lon="3.667247">
        <ele>63.669873</ele>
        <time>2025-03-18T15:07:19.109Z</time>
      </trkpt>
      <trkpt lat="50.664779" lon="3.666981">
        <ele>63.799184</ele>
        <time>2025-03-18T15:07:24.626Z</time>
      </trkpt>
      <trkpt lat="50.664439" lon="3.666447">
        <ele>64.088906</ele>
        <time>2025-03-18T15:07:35.712Z</time>
      </trkpt>
      <trkpt lat="50.664300" lon="3.666174">
        <ele>64.222944</ele>
        <time>2025-03-18T15:07:40.032Z</time>
      </trkpt>
      <trkpt lat="50.664161" lon="3.665634">
        <ele>64.446041</ele>
        <time>2025-03-18T15:07:46.915Z</time>
      </trkpt>
      <trkpt lat="50.663983" lon="3.664758">
        <ele>65.528108</ele>
        <time>2025-03-18T15:07:58.747Z</time>
      </trkpt>
      <trkpt lat="50.663966" lon="3.664586">
        <ele>65.789199</ele>
        <time>2025-03-18T15:08:01.197Z</time>
      </trkpt>
      <trkpt lat="50.663841" lon="3.664700">
        <ele>66.130839</ele>
        <time>2025-03-18T15:08:04.591Z</time>
      </trkpt>
      <trkpt lat="50.662756" lon="3.666064">
        <ele>70.822436</ele>
        <time>2025-03-18T15:08:51.291Z</time>
      </trkpt>
      <trkpt lat="50.662416" lon="3.666441">
        <ele>74.078281</ele>
        <time>2025-03-18T15:09:10.730Z</time>
      </trkpt>
      <trkpt lat="50.662255" lon="3.666691">
        <ele>75.848138</ele>
        <time>2025-03-18T15:09:22.360Z</time>
      </trkpt>
      <trkpt lat="50.662060" lon="3.666965">
        <ele>77.893983</ele>
        <time>2025-03-18T15:09:36.926Z</time>
      </trkpt>
      <trkpt lat="50.661716" lon="3.667246">
        <ele>80.928887</ele>
        <time>2025-03-18T15:10:00.690Z</time>
      </trkpt>
      <trkpt lat="50.661319" lon="3.667515">
        <ele>84.273275</ele>
        <time>2025-03-18T15:10:28.647Z</time>
      </trkpt>
      <trkpt lat="50.660815" lon="3.667817">
        <ele>88.376078</ele>
        <time>2025-03-18T15:11:02.312Z</time>
      </trkpt>
      <trkpt lat="50.660632" lon="3.667822">
        <ele>89.768915</ele>
        <time>2025-03-18T15:11:12.852Z</time>
      </trkpt>
      <trkpt lat="50.660454" lon="3.667706">
        <ele>91.234530</ele>
        <time>2025-03-18T15:11:23.255Z</time>
      </trkpt>
      <trkpt lat="50.660376" lon="3.667624">
        <ele>91.947843</ele>
        <time>2025-03-18T15:11:28.115Z</time>
      </trkpt>
      <trkpt lat="50.660004" lon="3.667053">
        <ele>95.897747</ele>
        <time>2025-03-18T15:11:50.019Z</time>
      </trkpt>
      <trkpt lat="50.659588" lon="3.666230">
        <ele>96.319107</ele>
        <time>2025-03-18T15:12:06.148Z</time>
      </trkpt>
      <trkpt lat="50.658913" lon="3.665374">
        <ele>95.923262</ele>
        <time>2025-03-18T15:12:19.677Z</time>
      </trkpt>
      <trkpt lat="50.658660" lon="3.665163">
        <ele>95.792461</ele>
        <time>2025-03-18T15:12:24.069Z</time>
      </trkpt>
      <trkpt lat="50.658518" lon="3.665085">
        <ele>95.864729</ele>
        <time>2025-03-18T15:12:26.445Z</time>
      </trkpt>
      <trkpt lat="50.658391" lon="3.665105">
        <ele>96.027979</ele>
        <time>2025-03-18T15:12:28.542Z</time>
      </trkpt>
      <trkpt lat="50.657939" lon="3.665378">
        <ele>96.647054</ele>
        <time>2025-03-18T15:12:37.510Z</time>
      </trkpt>
      <trkpt lat="50.657740" lon="3.665550">
        <ele>96.937297</ele>
        <time>2025-03-18T15:12:42.699Z</time>
      </trkpt>
      <trkpt lat="50.657280" lon="3.666039">
        <ele>97.646814</ele>
        <time>2025-03-18T15:12:59.782Z</time>
      </trkpt>
      <trkpt lat="50.656997" lon="3.666259">
        <ele>98.050365</ele>
        <time>2025-03-18T15:13:10.889Z</time>
      </trkpt>
      <trkpt lat="50.656903" lon="3.666298">
        <ele>98.568456</ele>
        <time>2025-03-18T15:13:14.500Z</time>
      </trkpt>
      <trkpt lat="50.656809" lon="3.666383">
        <ele>99.189013</ele>
        <time>2025-03-18T15:13:20.422Z</time>
      </trkpt>
      <trkpt lat="50.656683" lon="3.666422">
        <ele>99.924418</ele>
        <time>2025-03-18T15:13:27.576Z</time>
      </trkpt>
      <trkpt lat="50.656463" lon="3.666583">
        <ele>101.313433</ele>
        <time>2025-03-18T15:13:37.514Z</time>
      </trkpt>
      <trkpt lat="50.655993" lon="3.666777">
        <ele>104.095915</ele>
        <time>2025-03-18T15:13:58.989Z</time>
      </trkpt>
      <trkpt lat="50.655808" lon="3.666916">
        <ele>105.269536</ele>
        <time>2025-03-18T15:14:08.824Z</time>
      </trkpt>
      <trkpt lat="50.655653" lon="3.667161">
        <ele>106.526299</ele>
        <time>2025-03-18T15:14:19.727Z</time>
      </trkpt>
      <trkpt lat="50.655394" lon="3.667753">
        <ele>108.718478</ele>
        <time>2025-03-18T15:14:41.310Z</time>
      </trkpt>
      <trkpt lat="50.654854" lon="3.668302">
        <ele>110.406518</ele>
        <time>2025-03-18T15:15:09.229Z</time>
      </trkpt>
      <trkpt lat="50.654689" lon="3.668528">
        <ele>110.980701</ele>
        <time>2025-03-18T15:15:16.523Z</time>
      </trkpt>
      <trkpt lat="50.654465" lon="3.668933">
        <ele>111.876001</ele>
        <time>2025-03-18T15:15:25.407Z</time>
      </trkpt>
      <trkpt lat="50.654345" lon="3.669262">
        <ele>112.508282</ele>
        <time>2025-03-18T15:15:29.936Z</time>
      </trkpt>
      <trkpt lat="50.654122" lon="3.670665">
        <ele>110.486479</ele>
        <time>2025-03-18T15:15:43.212Z</time>
      </trkpt>
      <trkpt lat="50.654796" lon="3.671411">
        <ele>107.408247</ele>
        <time>2025-03-18T15:15:54.387Z</time>
      </trkpt>
      <trkpt lat="50.654857" lon="3.671516">
        <ele>107.070695</ele>
        <time>2025-03-18T15:15:55.640Z</time>
      </trkpt>
      <trkpt lat="50.654924" lon="3.671728">
        <ele>106.509249</ele>
        <time>2025-03-18T15:15:57.754Z</time>
      </trkpt>
      <trkpt lat="50.655130" lon="3.672639">
        <ele>104.921134</ele>
        <time>2025-03-18T15:16:06.516Z</time>
      </trkpt>
      <trkpt lat="50.655239" lon="3.672992">
        <ele>104.295695</ele>
        <time>2025-03-18T15:16:10.121Z</time>
      </trkpt>
      <trkpt lat="50.655760" lon="3.674424">
        <ele>101.914651</ele>
        <time>2025-03-18T15:16:26.584Z</time>
      </trkpt>
      <trkpt lat="50.655853" lon="3.674607">
        <ele>102.058462</ele>
        <time>2025-03-18T15:16:29.340Z</time>
      </trkpt>
      <trkpt lat="50.655857" lon="3.674613">
        <ele>102.063801</ele>
        <time>2025-03-18T15:16:29.443Z</time>
      </trkpt>
      <trkpt lat="50.657325" lon="3.676111">
        <ele>103.834098</ele>
        <time>2025-03-18T15:17:15.676Z</time>
      </trkpt>
      <trkpt lat="50.657837" lon="3.676922">
        <ele>104.863621</ele>
        <time>2025-03-18T15:17:35.896Z</time>
      </trkpt>
      <trkpt lat="50.658348" lon="3.677999">
        <ele>106.073652</ele>
        <time>2025-03-18T15:17:57.850Z</time>
      </trkpt>
      <trkpt lat="50.659687" lon="3.680347">
        <ele>105.814738</ele>
        <time>2025-03-18T15:18:41.202Z</time>
      </trkpt>
      <trkpt lat="50.659800" lon="3.680495">
        <ele>105.184519</ele>
        <time>2025-03-18T15:18:43.441Z</time>
      </trkpt>
      <trkpt lat="50.660041" lon="3.680664">
        <ele>104.052830</ele>
        <time>2025-03-18T15:18:47.307Z</time>
      </trkpt>
      <trkpt lat="50.660062" lon="3.680833">
        <ele>103.584382</ele>
        <time>2025-03-18T15:18:48.840Z</time>
      </trkpt>
      <trkpt lat="50.660014" lon="3.681389">
        <ele>102.058039</ele>
        <time>2025-03-18T15:18:53.713Z</time>
      </trkpt>
      <trkpt lat="50.659943" lon="3.682007">
        <ele>100.349622</ele>
        <time>2025-03-18T15:18:58.944Z</time>
      </trkpt>
      <trkpt lat="50.659813" lon="3.682662">
        <ele>98.385781</ele>
        <time>2025-03-18T15:19:04.492Z</time>
      </trkpt>
      <trkpt lat="50.659692" lon="3.683894">
        <ele>93.882127</ele>
        <time>2025-03-18T15:19:14.693Z</time>
      </trkpt>
      <trkpt lat="50.659636" lon="3.684195">
        <ele>92.748912</ele>
        <time>2025-03-18T15:19:17.305Z</time>
      </trkpt>
      <trkpt lat="50.659282" lon="3.685418">
        <ele>88.195666</ele>
        <time>2025-03-18T15:19:28.899Z</time>
      </trkpt>
      <trkpt lat="50.659115" lon="3.685960">
        <ele>87.057512</ele>
        <time>2025-03-18T15:19:34.388Z</time>
      </trkpt>
      <trkpt lat="50.658482" lon="3.687686">
        <ele>83.291474</ele>
        <time>2025-03-18T15:19:53.570Z</time>
      </trkpt>
      <trkpt lat="50.658302" lon="3.688088">
        <ele>82.837622</ele>
        <time>2025-03-18T15:19:58.311Z</time>
      </trkpt>
      <trkpt lat="50.657498" lon="3.689506">
        <ele>81.360617</ele>
        <time>2025-03-18T15:20:17.546Z</time>
      </trkpt>
      <trkpt lat="50.660322" lon="3.698406">
        <ele>89.606695</ele>
        <time>2025-03-18T15:22:27.723Z</time>
      </trkpt>
      <trkpt lat="50.659916" lon="3.698566">
        <ele>90.405074</ele>
        <time>2025-03-18T15:22:38.112Z</time>
      </trkpt>
      <trkpt lat="50.659219" lon="3.698991">
        <ele>91.830707</ele>
        <time>2025-03-18T15:22:56.070Z</time>
      </trkpt>
      <trkpt lat="50.658676" lon="3.699466">
        <ele>91.783893</ele>
        <time>2025-03-18T15:23:08.327Z</time>
      </trkpt>
      <trkpt lat="50.658123" lon="3.700124">
        <ele>91.634484</ele>
        <time>2025-03-18T15:23:18.249Z</time>
      </trkpt>
      <trkpt lat="50.657997" lon="3.700334">
        <ele>91.594946</ele>
        <time>2025-03-18T15:23:20.471Z</time>
      </trkpt>
      <trkpt lat="50.657865" lon="3.700716">
        <ele>91.535455</ele>
        <time>2025-03-18T15:23:23.572Z</time>
      </trkpt>
      <trkpt lat="50.657840" lon="3.700873">
        <ele>91.464135</ele>
        <time>2025-03-18T15:23:24.677Z</time>
      </trkpt>
      <trkpt lat="50.657824" lon="3.701097">
        <ele>91.236160</ele>
        <time>2025-03-18T15:23:26.175Z</time>
      </trkpt>
      <trkpt lat="50.657857" lon="3.701814">
        <ele>90.509114</ele>
        <time>2025-03-18T15:23:30.651Z</time>
      </trkpt>
      <trkpt lat="50.657799" lon="3.702282">
        <ele>90.026844</ele>
        <time>2025-03-18T15:23:33.728Z</time>
      </trkpt>
      <trkpt lat="50.657746" lon="3.702457">
        <ele>89.830698</ele>
        <time>2025-03-18T15:23:35.019Z</time>
      </trkpt>
      <trkpt lat="50.657613" lon="3.702721">
        <ele>89.489661</ele>
        <time>2025-03-18T15:23:37.381Z</time>
      </trkpt>
      <trkpt lat="50.657441" lon="3.702955">
        <ele>89.127310</ele>
        <time>2025-03-18T15:23:40.088Z</time>
      </trkpt>
      <trkpt lat="50.657280" lon="3.703113">
        <ele>88.824813</ele>
        <time>2025-03-18T15:23:42.812Z</time>
      </trkpt>
      <trkpt lat="50.657350" lon="3.703350">
        <ele>88.886089</ele>
        <time>2025-03-18T15:23:45.856Z</time>
      </trkpt>
      <trkpt lat="50.657774" lon="3.703909">
        <ele>91.151921</ele>
        <time>2025-03-18T15:24:00.580Z</time>
      </trkpt>
      <trkpt lat="50.658621" lon="3.705385">
        <ele>96.186321</ele>
        <time>2025-03-18T15:24:49.015Z</time>
      </trkpt>
      <trkpt lat="50.658653" lon="3.705490">
        <ele>96.347274</ele>
        <time>2025-03-18T15:24:51.472Z</time>
      </trkpt>
      <trkpt lat="50.658694" lon="3.705622">
        <ele>96.550348</ele>
        <time>2025-03-18T15:24:54.297Z</time>
      </trkpt>
      <trkpt lat="50.658973" lon="3.706384">
        <ele>97.766038</ele>
        <time>2025-03-18T15:25:08.481Z</time>
      </trkpt>
      <trkpt lat="50.659050" lon="3.706525">
        <ele>98.023142</ele>
        <time>2025-03-18T15:25:10.879Z</time>
      </trkpt>
      <trkpt lat="50.659696" lon="3.707228">
        <ele>99.733451</ele>
        <time>2025-03-18T15:25:24.822Z</time>
      </trkpt>
      <trkpt lat="50.660149" lon="3.707959">
        <ele>100.129777</ele>
        <time>2025-03-18T15:25:36.140Z</time>
      </trkpt>
      <trkpt lat="50.660338" lon="3.708335">
        <ele>100.231138</ele>
        <time>2025-03-18T15:25:41.731Z</time>
      </trkpt>
      <trkpt lat="50.660574" lon="3.708896">
        <ele>100.373356</ele>
        <time>2025-03-18T15:25:49.678Z</time>
      </trkpt>
      <trkpt lat="50.660704" lon="3.709369">
        <ele>100.482253</ele>
        <time>2025-03-18T15:25:55.316Z</time>
      </trkpt>
      <trkpt lat="50.660824" lon="3.709645">
        <ele>100.464257</ele>
        <time>2025-03-18T15:25:58.474Z</time>
      </trkpt>
      <trkpt lat="50.661093" lon="3.710225">
        <ele>98.748872</ele>
        <time>2025-03-18T15:26:03.362Z</time>
      </trkpt>
      <trkpt lat="50.661364" lon="3.710890">
        <ele>96.861875</ele>
        <time>2025-03-18T15:26:08.401Z</time>
      </trkpt>
      <trkpt lat="50.661681" lon="3.711867">
        <ele>94.242155</ele>
        <time>2025-03-18T15:26:14.907Z</time>
      </trkpt>
      <trkpt lat="50.661545" lon="3.712116">
        <ele>93.240464</ele>
        <time>2025-03-18T15:26:16.802Z</time>
      </trkpt>
      <trkpt lat="50.661275" lon="3.712947">
        <ele>89.477327</ele>
        <time>2025-03-18T15:26:22.152Z</time>
      </trkpt>
      <trkpt lat="50.661194" lon="3.713062">
        <ele>88.784545</ele>
        <time>2025-03-18T15:26:23.139Z</time>
      </trkpt>
      <trkpt lat="50.660827" lon="3.712705">
        <ele>86.043491</ele>
        <time>2025-03-18T15:26:27.028Z</time>
      </trkpt>
      <trkpt lat="50.660775" lon="3.712694">
        <ele>85.709951</ele>
        <time>2025-03-18T15:26:27.502Z</time>
      </trkpt>
      <trkpt lat="50.660658" lon="3.712804">
        <ele>84.844062</ele>
        <time>2025-03-18T15:26:28.749Z</time>
      </trkpt>
      <trkpt lat="50.660282" lon="3.713383">
        <ele>81.599549</ele>
        <time>2025-03-18T15:26:33.556Z</time>
      </trkpt>
      <trkpt lat="50.659943" lon="3.714263">
        <ele>77.926346</ele>
        <time>2025-03-18T15:26:39.582Z</time>
      </trkpt>
      <trkpt lat="50.658818" lon="3.716355">
        <ele>68.410248</ele>
        <time>2025-03-18T15:26:55.775Z</time>
      </trkpt>
      <trkpt lat="50.658043" lon="3.717463">
        <ele>62.914083</ele>
        <time>2025-03-18T15:27:05.571Z</time>
      </trkpt>
      <trkpt lat="50.657785" lon="3.717772">
        <ele>61.489406</ele>
        <time>2025-03-18T15:27:08.627Z</time>
      </trkpt>
      <trkpt lat="50.656959" lon="3.718328">
        <ele>57.613002</ele>
        <time>2025-03-18T15:27:17.235Z</time>
      </trkpt>
      <trkpt lat="50.656649" lon="3.718445">
        <ele>56.237147</ele>
        <time>2025-03-18T15:27:20.366Z</time>
      </trkpt>
      <trkpt lat="50.656238" lon="3.718636">
        <ele>54.489491</ele>
        <time>2025-03-18T15:27:26.556Z</time>
      </trkpt>
      <trkpt lat="50.655762" lon="3.718941">
        <ele>52.638994</ele>
        <time>2025-03-18T15:27:34.010Z</time>
      </trkpt>
      <trkpt lat="50.655597" lon="3.719049">
        <ele>51.995567</ele>
        <time>2025-03-18T15:27:36.598Z</time>
      </trkpt>
      <trkpt lat="50.655263" lon="3.719267">
        <ele>50.693653</ele>
        <time>2025-03-18T15:27:41.742Z</time>
      </trkpt>
      <trkpt lat="50.654714" lon="3.719649">
        <ele>48.532433</ele>
        <time>2025-03-18T15:27:47.588Z</time>
      </trkpt>
      <trkpt lat="50.654204" lon="3.720101">
        <ele>47.308851</ele>
        <time>2025-03-18T15:27:53.424Z</time>
      </trkpt>
      <trkpt lat="50.653995" lon="3.720272">
        <ele>46.817793</ele>
        <time>2025-03-18T15:27:55.830Z</time>
      </trkpt>
      <trkpt lat="50.652505" lon="3.721084">
        <ele>44.847088</ele>
        <time>2025-03-18T15:28:15.382Z</time>
      </trkpt>
      <trkpt lat="50.652270" lon="3.721185">
        <ele>44.877447</ele>
        <time>2025-03-18T15:28:19.562Z</time>
      </trkpt>
      <trkpt lat="50.651364" lon="3.721319">
        <ele>44.990866</ele>
        <time>2025-03-18T15:28:35.453Z</time>
      </trkpt>
      <trkpt lat="50.651496" lon="3.722108">
        <ele>44.927747</ele>
        <time>2025-03-18T15:28:44.615Z</time>
      </trkpt>
      <trkpt lat="50.651549" lon="3.722585">
        <ele>44.882337</ele>
        <time>2025-03-18T15:28:49.502Z</time>
      </trkpt>
      <trkpt lat="50.651529" lon="3.723248">
        <ele>44.820096</ele>
        <time>2025-03-18T15:28:55.426Z</time>
      </trkpt>
      <trkpt lat="50.651552" lon="3.723634">
        <ele>44.783741</ele>
        <time>2025-03-18T15:28:58.668Z</time>
      </trkpt>
      <trkpt lat="50.651704" lon="3.724498">
        <ele>44.524605</ele>
        <time>2025-03-18T15:29:05.673Z</time>
      </trkpt>
      <trkpt lat="50.651901" lon="3.725236">
        <ele>44.029840</ele>
        <time>2025-03-18T15:29:11.438Z</time>
      </trkpt>
      <trkpt lat="50.652233" lon="3.726124">
        <ele>43.392871</ele>
        <time>2025-03-18T15:29:19.194Z</time>
      </trkpt>
      <trkpt lat="50.652317" lon="3.726244">
        <ele>43.282423</ele>
        <time>2025-03-18T15:29:20.625Z</time>
      </trkpt>
      <trkpt lat="50.652409" lon="3.726337">
        <ele>43.175932</ele>
        <time>2025-03-18T15:29:22.625Z</time>
      </trkpt>
      <trkpt lat="50.651727" lon="3.727930">
        <ele>42.512276</ele>
        <time>2025-03-18T15:29:46.821Z</time>
      </trkpt>
      <trkpt lat="50.651666" lon="3.728138">
        <ele>42.445633</ele>
        <time>2025-03-18T15:29:49.689Z</time>
      </trkpt>
      <trkpt lat="50.651570" lon="3.728920">
        <ele>42.214006</ele>
        <time>2025-03-18T15:29:58.827Z</time>
      </trkpt>
      <trkpt lat="50.651555" lon="3.729843">
        <ele>42.048833</ele>
        <time>2025-03-18T15:30:08.854Z</time>
      </trkpt>
      <trkpt lat="50.651526" lon="3.730124">
        <ele>42.007229</ele>
        <time>2025-03-18T15:30:11.904Z</time>
      </trkpt>
      <trkpt lat="50.651424" lon="3.730473">
        <ele>41.951071</ele>
        <time>2025-03-18T15:30:16.083Z</time>
      </trkpt>
      <trkpt lat="50.651063" lon="3.731177">
        <ele>41.818758</ele>
        <time>2025-03-18T15:30:26.859Z</time>
      </trkpt>
      <trkpt lat="50.650850" lon="3.731738">
        <ele>41.958714</ele>
        <time>2025-03-18T15:30:36.747Z</time>
      </trkpt>
      <trkpt lat="50.650473" lon="3.732444">
        <ele>43.880153</ele>
        <time>2025-03-18T15:30:53.972Z</time>
      </trkpt>
      <trkpt lat="50.649673" lon="3.735681">
        <ele>52.258349</ele>
        <time>2025-03-18T15:32:16.350Z</time>
      </trkpt>
      <trkpt lat="50.650527" lon="3.736343">
        <ele>56.248413</ele>
        <time>2025-03-18T15:32:52.748Z</time>
      </trkpt>
      <trkpt lat="50.651380" lon="3.737005">
        <ele>59.645890</ele>
        <time>2025-03-18T15:33:27.636Z</time>
      </trkpt>
      <trkpt lat="50.651427" lon="3.737074">
        <ele>59.875361</ele>
        <time>2025-03-18T15:33:29.915Z</time>
      </trkpt>
      <trkpt lat="50.651462" lon="3.737206">
        <ele>60.199558</ele>
        <time>2025-03-18T15:33:33.081Z</time>
      </trkpt>
      <trkpt lat="50.651445" lon="3.737325">
        <ele>60.475958</ele>
        <time>2025-03-18T15:33:35.772Z</time>
      </trkpt>
      <trkpt lat="50.651036" lon="3.739128">
        <ele>62.056787</ele>
        <time>2025-03-18T15:34:10.103Z</time>
      </trkpt>
      <trkpt lat="50.651005" lon="3.739358">
        <ele>62.080562</ele>
        <time>2025-03-18T15:34:13.159Z</time>
      </trkpt>
      <trkpt lat="50.651020" lon="3.739574">
        <ele>62.102532</ele>
        <time>2025-03-18T15:34:15.843Z</time>
      </trkpt>
      <trkpt lat="50.651062" lon="3.739666">
        <ele>62.113995</ele>
        <time>2025-03-18T15:34:17.204Z</time>
      </trkpt>
      <trkpt lat="50.651527" lon="3.740171">
        <ele>62.204027</ele>
        <time>2025-03-18T15:34:26.505Z</time>
      </trkpt>
      <trkpt lat="50.651814" lon="3.740381">
        <ele>61.326923</ele>
        <time>2025-03-18T15:34:31.176Z</time>
      </trkpt>
      <trkpt lat="50.651997" lon="3.740572">
        <ele>60.544116</ele>
        <time>2025-03-18T15:34:34.352Z</time>
      </trkpt>
      <trkpt lat="50.651924" lon="3.741763">
        <ele>57.837795</ele>
        <time>2025-03-18T15:34:45.091Z</time>
      </trkpt>
      <trkpt lat="50.651782" lon="3.742377">
        <ele>56.359566</ele>
        <time>2025-03-18T15:34:50.852Z</time>
      </trkpt>
      <trkpt lat="50.651558" lon="3.743314">
        <ele>53.968140</ele>
        <time>2025-03-18T15:34:59.665Z</time>
      </trkpt>
      <trkpt lat="50.651416" lon="3.743657">
        <ele>52.972825</ele>
        <time>2025-03-18T15:35:03.250Z</time>
      </trkpt>
      <trkpt lat="50.651214" lon="3.744025">
        <ele>51.790161</ele>
        <time>2025-03-18T15:35:07.522Z</time>
      </trkpt>
      <trkpt lat="50.650871" lon="3.744706">
        <ele>49.676974</ele>
        <time>2025-03-18T15:35:15.343Z</time>
      </trkpt>
      <trkpt lat="50.650728" lon="3.745073">
        <ele>48.777501</ele>
        <time>2025-03-18T15:35:19.338Z</time>
      </trkpt>
      <trkpt lat="50.650400" lon="3.746375">
        <ele>47.191523</ele>
        <time>2025-03-18T15:35:33.303Z</time>
      </trkpt>
      <trkpt lat="50.649872" lon="3.747866">
        <ele>45.108437</ele>
        <time>2025-03-18T15:35:52.294Z</time>
      </trkpt>
      <trkpt lat="50.649755" lon="3.748263">
        <ele>44.442692</ele>
        <time>2025-03-18T15:35:56.762Z</time>
      </trkpt>
      <trkpt lat="50.649669" lon="3.748615">
        <ele>43.869040</ele>
        <time>2025-03-18T15:36:00.428Z</time>
      </trkpt>
      <trkpt lat="50.649636" lon="3.748869">
        <ele>43.474755</ele>
        <time>2025-03-18T15:36:02.870Z</time>
      </trkpt>
      <trkpt lat="50.649703" lon="3.749919">
        <ele>41.869948</ele>
        <time>2025-03-18T15:36:12.493Z</time>
      </trkpt>
      <trkpt lat="50.649531" lon="3.750645">
        <ele>41.365405</ele>
        <time>2025-03-18T15:36:19.720Z</time>
      </trkpt>
      <trkpt lat="50.649460" lon="3.750831">
        <ele>41.358040</ele>
        <time>2025-03-18T15:36:21.868Z</time>
      </trkpt>
      <trkpt lat="50.649377" lon="3.750981">
        <ele>41.351287</ele>
        <time>2025-03-18T15:36:23.941Z</time>
      </trkpt>
      <trkpt lat="50.649285" lon="3.751075">
        <ele>41.345422</ele>
        <time>2025-03-18T15:36:25.813Z</time>
      </trkpt>
      <trkpt lat="50.649302" lon="3.751449">
        <ele>41.332703</ele>
        <time>2025-03-18T15:36:30.266Z</time>
      </trkpt>
      <trkpt lat="50.649379" lon="3.751894">
        <ele>41.317055</ele>
        <time>2025-03-18T15:36:36.887Z</time>
      </trkpt>
      <trkpt lat="50.649527" lon="3.752073">
        <ele>41.307077</ele>
        <time>2025-03-18T15:36:41.823Z</time>
      </trkpt>
      <trkpt lat="50.649798" lon="3.752267">
        <ele>41.291155</ele>
        <time>2025-03-18T15:36:50.619Z</time>
      </trkpt>
      <trkpt lat="50.650031" lon="3.752389">
        <ele>41.616919</ele>
        <time>2025-03-18T15:36:58.449Z</time>
      </trkpt>
      <trkpt lat="50.650188" lon="3.752447">
        <ele>42.055587</ele>
        <time>2025-03-18T15:37:03.717Z</time>
      </trkpt>
      <trkpt lat="50.650591" lon="3.752435">
        <ele>43.152115</ele>
        <time>2025-03-18T15:37:17.337Z</time>
      </trkpt>
      <trkpt lat="50.650793" lon="3.752502">
        <ele>43.713662</ele>
        <time>2025-03-18T15:37:24.330Z</time>
      </trkpt>
      <trkpt lat="50.650975" lon="3.752606">
        <ele>44.240276</ele>
        <time>2025-03-18T15:37:30.659Z</time>
      </trkpt>
      <trkpt lat="50.651282" lon="3.752801">
        <ele>45.140632</ele>
        <time>2025-03-18T15:37:41.015Z</time>
      </trkpt>
      <trkpt lat="50.651716" lon="3.753136">
        <ele>46.372140</ele>
        <time>2025-03-18T15:37:54.869Z</time>
      </trkpt>
      <trkpt lat="50.652116" lon="3.753475">
        <ele>47.238068</ele>
        <time>2025-03-18T15:38:07.117Z</time>
      </trkpt>
      <trkpt lat="50.652427" lon="3.753793">
        <ele>47.944856</ele>
        <time>2025-03-18T15:38:17.143Z</time>
      </trkpt>
      <trkpt lat="50.652698" lon="3.753316">
        <ele>48.719238</ele>
        <time>2025-03-18T15:38:28.255Z</time>
      </trkpt>
      <trkpt lat="50.653375" lon="3.751606">
        <ele>49.940341</ele>
        <time>2025-03-18T15:39:04.061Z</time>
      </trkpt>
      <trkpt lat="50.653551" lon="3.751134">
        <ele>50.082559</ele>
        <time>2025-03-18T15:39:12.182Z</time>
      </trkpt>
      <trkpt lat="50.653620" lon="3.750853">
        <ele>50.160822</ele>
        <time>2025-03-18T15:39:16.154Z</time>
      </trkpt>
      <trkpt lat="50.653758" lon="3.751040">
        <ele>50.235351</ele>
        <time>2025-03-18T15:39:19.591Z</time>
      </trkpt>
      <trkpt lat="50.654755" lon="3.752814">
        <ele>46.840717</ele>
        <time>2025-03-18T15:39:42.043Z</time>
      </trkpt>
      <trkpt lat="50.654961" lon="3.753137">
        <ele>46.017907</ele>
        <time>2025-03-18T15:39:46.169Z</time>
      </trkpt>
      <trkpt lat="50.655236" lon="3.753419">
        <ele>45.111849</ele>
        <time>2025-03-18T15:39:50.872Z</time>
      </trkpt>
      <trkpt lat="50.655588" lon="3.753667">
        <ele>44.176884</ele>
        <time>2025-03-18T15:39:56.476Z</time>
      </trkpt>
      <trkpt lat="50.656188" lon="3.753934">
        <ele>42.664955</ele>
        <time>2025-03-18T15:40:05.819Z</time>
      </trkpt>
      <trkpt lat="50.656654" lon="3.754277">
        <ele>41.417816</ele>
        <time>2025-03-18T15:40:13.999Z</time>
      </trkpt>
      <trkpt lat="50.656959" lon="3.754625">
        <ele>40.729429</ele>
        <time>2025-03-18T15:40:20.258Z</time>
      </trkpt>
      <trkpt lat="50.657249" lon="3.755069">
        <ele>40.324921</ele>
        <time>2025-03-18T15:40:27.030Z</time>
      </trkpt>
      <trkpt lat="50.657751" lon="3.755710">
        <ele>39.678473</ele>
        <time>2025-03-18T15:40:38.247Z</time>
      </trkpt>
      <trkpt lat="50.657863" lon="3.755610">
        <ele>39.549659</ele>
        <time>2025-03-18T15:40:40.539Z</time>
      </trkpt>
      <trkpt lat="50.658184" lon="3.755180">
        <ele>39.128147</ele>
        <time>2025-03-18T15:40:48.256Z</time>
      </trkpt>
      <trkpt lat="50.658320" lon="3.755517">
        <ele>39.142047</ele>
        <time>2025-03-18T15:40:52.920Z</time>
      </trkpt>
      <trkpt lat="50.658726" lon="3.757373">
        <ele>39.465476</ele>
        <time>2025-03-18T15:41:17.424Z</time>
      </trkpt>
      <trkpt lat="50.658923" lon="3.758389">
        <ele>40.676918</ele>
        <time>2025-03-18T15:41:35.235Z</time>
      </trkpt>
      <trkpt lat="50.658975" lon="3.758564">
        <ele>41.091645</ele>
        <time>2025-03-18T15:41:38.934Z</time>
      </trkpt>
      <trkpt lat="50.659607" lon="3.759684">
        <ele>44.309172</ele>
        <time>2025-03-18T15:42:12.412Z</time>
      </trkpt>
      <trkpt lat="50.659656" lon="3.759749">
        <ele>44.525884</ele>
        <time>2025-03-18T15:42:14.923Z</time>
      </trkpt>
      <trkpt lat="50.660178" lon="3.760136">
        <ele>46.675039</ele>
        <time>2025-03-18T15:42:37.926Z</time>
      </trkpt>
      <trkpt lat="50.660465" lon="3.760547">
        <ele>48.296133</ele>
        <time>2025-03-18T15:42:53.368Z</time>
      </trkpt>
      <trkpt lat="50.660568" lon="3.760758">
        <ele>49.002159</ele>
        <time>2025-03-18T15:43:00.026Z</time>
      </trkpt>
      <trkpt lat="50.660610" lon="3.760913">
        <ele>49.449051</ele>
        <time>2025-03-18T15:43:04.172Z</time>
      </trkpt>
      <trkpt lat="50.660651" lon="3.761619">
        <ele>51.328583</ele>
        <time>2025-03-18T15:43:20.970Z</time>
      </trkpt>
      <trkpt lat="50.660590" lon="3.762382">
        <ele>53.228349</ele>
        <time>2025-03-18T15:43:37.591Z</time>
      </trkpt>
      <trkpt lat="50.660672" lon="3.762961">
        <ele>53.721432</ele>
        <time>2025-03-18T15:43:49.122Z</time>
      </trkpt>
      <trkpt lat="50.660697" lon="3.763373">
        <ele>54.065420</ele>
        <time>2025-03-18T15:43:56.502Z</time>
      </trkpt>
      <trkpt lat="50.660646" lon="3.764152">
        <ele>54.716307</ele>
        <time>2025-03-18T15:44:09.104Z</time>
      </trkpt>
      <trkpt lat="50.660514" lon="3.765220">
        <ele>55.410811</ele>
        <time>2025-03-18T15:44:23.327Z</time>
      </trkpt>
      <trkpt lat="50.660480" lon="3.765497">
        <ele>55.141202</ele>
        <time>2025-03-18T15:44:26.527Z</time>
      </trkpt>
      <trkpt lat="50.660449" lon="3.766339">
        <ele>54.335258</ele>
        <time>2025-03-18T15:44:35.403Z</time>
      </trkpt>
      <trkpt lat="50.660469" lon="3.766630">
        <ele>54.055558</ele>
        <time>2025-03-18T15:44:38.339Z</time>
      </trkpt>
      <trkpt lat="50.660674" lon="3.768085">
        <ele>52.614016</ele>
        <time>2025-03-18T15:44:52.955Z</time>
      </trkpt>
      <trkpt lat="50.660219" lon="3.771505">
        <ele>49.184247</ele>
        <time>2025-03-18T15:45:29.184Z</time>
      </trkpt>
      <trkpt lat="50.660011" lon="3.772978">
        <ele>48.012614</ele>
        <time>2025-03-18T15:45:45.828Z</time>
      </trkpt>
      <trkpt lat="50.659799" lon="3.774192">
        <ele>46.938234</ele>
        <time>2025-03-18T15:45:59.504Z</time>
      </trkpt>
      <trkpt lat="50.659749" lon="3.774663">
        <ele>46.508003</ele>
        <time>2025-03-18T15:46:04.539Z</time>
      </trkpt>
      <trkpt lat="50.659734" lon="3.775237">
        <ele>45.990450</ele>
        <time>2025-03-18T15:46:10.524Z</time>
      </trkpt>
      <trkpt lat="50.659884" lon="3.777767">
        <ele>43.488420</ele>
        <time>2025-03-18T15:46:36.528Z</time>
      </trkpt>
      <trkpt lat="50.659884" lon="3.777996">
        <ele>43.250320</ele>
        <time>2025-03-18T15:46:38.866Z</time>
      </trkpt>
      <trkpt lat="50.659767" lon="3.779005">
        <ele>42.183815</ele>
        <time>2025-03-18T15:46:49.443Z</time>
      </trkpt>
      <trkpt lat="50.659759" lon="3.779578">
        <ele>41.698983</ele>
        <time>2025-03-18T15:46:55.434Z</time>
      </trkpt>
      <trkpt lat="50.659832" lon="3.780210">
        <ele>41.167408</ele>
        <time>2025-03-18T15:47:02.301Z</time>
      </trkpt>
      <trkpt lat="50.660002" lon="3.781173">
        <ele>40.340231</ele>
        <time>2025-03-18T15:47:13.108Z</time>
      </trkpt>
      <trkpt lat="50.659998" lon="3.781310">
        <ele>40.226747</ele>
        <time>2025-03-18T15:47:14.595Z</time>
      </trkpt>
      <trkpt lat="50.660000" lon="3.781432">
        <ele>40.125762</ele>
        <time>2025-03-18T15:47:15.524Z</time>
      </trkpt>
      <trkpt lat="50.659968" lon="3.781550">
        <ele>40.019561</ele>
        <time>2025-03-18T15:47:16.489Z</time>
      </trkpt>
      <trkpt lat="50.659597" lon="3.781985">
        <ele>39.251163</ele>
        <time>2025-03-18T15:47:21.931Z</time>
      </trkpt>
      <trkpt lat="50.659553" lon="3.781892">
        <ele>39.112088</ele>
        <time>2025-03-18T15:47:22.788Z</time>
      </trkpt>
      <trkpt lat="50.659397" lon="3.782012">
        <ele>38.783970</ele>
        <time>2025-03-18T15:47:28.426Z</time>
      </trkpt>
      <trkpt lat="50.659256" lon="3.782120">
        <ele>38.487644</ele>
        <time>2025-03-18T15:47:33.475Z</time>
      </trkpt>
      <trkpt lat="50.659229" lon="3.782211">
        <ele>38.367229</ele>
        <time>2025-03-18T15:47:35.524Z</time>
      </trkpt>
      <trkpt lat="50.659289" lon="3.782763">
        <ele>37.696025</ele>
        <time>2025-03-18T15:47:46.780Z</time>
      </trkpt>
      <trkpt lat="50.659289" lon="3.782951">
        <ele>37.470715</ele>
        <time>2025-03-18T15:47:50.493Z</time>
      </trkpt>
      <trkpt lat="50.659289" lon="3.782982">
        <ele>37.433562</ele>
        <time>2025-03-18T15:47:51.105Z</time>
      </trkpt>
      <trkpt lat="50.659341" lon="3.783150">
        <ele>37.209503</ele>
        <time>2025-03-18T15:47:54.768Z</time>
      </trkpt>
      <trkpt lat="50.659586" lon="3.783650">
        <ele>36.452134</ele>
        <time>2025-03-18T15:48:06.881Z</time>
      </trkpt>
      <trkpt lat="50.659256" lon="3.783958">
        <ele>35.654413</ele>
        <time>2025-03-18T15:48:10.988Z</time>
      </trkpt>
      <trkpt lat="50.658704" lon="3.784559">
        <ele>34.245762</ele>
        <time>2025-03-18T15:48:18.349Z</time>
      </trkpt>
      <trkpt lat="50.658489" lon="3.784726">
        <ele>33.742441</ele>
        <time>2025-03-18T15:48:20.996Z</time>
      </trkpt>
      <trkpt lat="50.658303" lon="3.784868">
        <ele>33.308455</ele>
        <time>2025-03-18T15:48:23.234Z</time>
      </trkpt>
      <trkpt lat="50.657914" lon="3.785334">
        <ele>32.356335</ele>
        <time>2025-03-18T15:48:28.599Z</time>
      </trkpt>
      <trkpt lat="50.657060" lon="3.786040">
        <ele>30.792711</ele>
        <time>2025-03-18T15:48:39.340Z</time>
      </trkpt>
      <trkpt lat="50.655254" lon="3.786471">
        <ele>29.159993</ele>
        <time>2025-03-18T15:49:01.164Z</time>
      </trkpt>
      <trkpt lat="50.654926" lon="3.786716">
        <ele>28.992369</ele>
        <time>2025-03-18T15:49:07.375Z</time>
      </trkpt>
      <trkpt lat="50.654855" lon="3.786811">
        <ele>28.949367</ele>
        <time>2025-03-18T15:49:09.031Z</time>
      </trkpt>
      <trkpt lat="50.654750" lon="3.786861">
        <ele>28.898708</ele>
        <time>2025-03-18T15:49:11.027Z</time>
      </trkpt>
      <trkpt lat="50.654407" lon="3.786749">
        <ele>28.834144</ele>
        <time>2025-03-18T15:49:19.541Z</time>
      </trkpt>
      <trkpt lat="50.654139" lon="3.786983">
        <ele>28.805655</ele>
        <time>2025-03-18T15:49:27.003Z</time>
      </trkpt>
      <trkpt lat="50.653451" lon="3.787696">
        <ele>28.729093</ele>
        <time>2025-03-18T15:49:44.003Z</time>
      </trkpt>
      <trkpt lat="50.652832" lon="3.788329">
        <ele>28.131893</ele>
        <time>2025-03-18T15:49:56.109Z</time>
      </trkpt>
      <trkpt lat="50.651816" lon="3.789394">
        <ele>26.077155</ele>
        <time>2025-03-18T15:50:09.488Z</time>
      </trkpt>
      <trkpt lat="50.651874" lon="3.789649">
        <ele>25.787844</ele>
        <time>2025-03-18T15:50:12.347Z</time>
      </trkpt>
      <trkpt lat="50.651650" lon="3.789725">
        <ele>25.534083</ele>
        <time>2025-03-18T15:50:16.197Z</time>
      </trkpt>
      <trkpt lat="50.651373" lon="3.789737">
        <ele>25.304637</ele>
        <time>2025-03-18T15:50:20.938Z</time>
      </trkpt>
      <trkpt lat="50.651269" lon="3.789792">
        <ele>25.213811</ele>
        <time>2025-03-18T15:50:22.853Z</time>
      </trkpt>
      <trkpt lat="50.651176" lon="3.789893">
        <ele>25.120316</ele>
        <time>2025-03-18T15:50:24.854Z</time>
      </trkpt>
      <trkpt lat="50.651139" lon="3.790085">
        <ele>25.014964</ele>
        <time>2025-03-18T15:50:27.142Z</time>
      </trkpt>
      <trkpt lat="50.651118" lon="3.790259">
        <ele>24.921974</ele>
        <time>2025-03-18T15:50:29.177Z</time>
      </trkpt>
      <trkpt lat="50.651066" lon="3.790409">
        <ele>24.832223</ele>
        <time>2025-03-18T15:50:31.143Z</time>
      </trkpt>
      <trkpt lat="50.651004" lon="3.790497">
        <ele>24.763158</ele>
        <time>2025-03-18T15:50:32.641Z</time>
      </trkpt>
      <trkpt lat="50.650547" lon="3.790836">
        <ele>24.344991</ele>
        <time>2025-03-18T15:50:41.872Z</time>
      </trkpt>
      <trkpt lat="50.650503" lon="3.790909">
        <ele>24.292112</ele>
        <time>2025-03-18T15:50:43.061Z</time>
      </trkpt>
      <trkpt lat="50.650488" lon="3.790950">
        <ele>24.267261</ele>
        <time>2025-03-18T15:50:43.619Z</time>
      </trkpt>
      <trkpt lat="50.650376" lon="3.791195">
        <ele>24.148300</ele>
        <time>2025-03-18T15:50:47.175Z</time>
      </trkpt>
      <trkpt lat="50.650359" lon="3.791235">
        <ele>24.138694</ele>
        <time>2025-03-18T15:50:48.238Z</time>
      </trkpt>
      <trkpt lat="50.651559" lon="3.792505">
        <ele>23.684044</ele>
        <time>2025-03-18T15:51:15.790Z</time>
      </trkpt>
      <trkpt lat="50.651861" lon="3.792688">
        <ele>23.610431</ele>
        <time>2025-03-18T15:51:22.165Z</time>
      </trkpt>
      <trkpt lat="50.652260" lon="3.792813">
        <ele>23.629945</ele>
        <time>2025-03-18T15:51:30.226Z</time>
      </trkpt>
      <trkpt lat="50.652416" lon="3.792896">
        <ele>23.637843</ele>
        <time>2025-03-18T15:51:33.521Z</time>
      </trkpt>
      <trkpt lat="50.652688" lon="3.793160">
        <ele>23.653164</ele>
        <time>2025-03-18T15:51:39.993Z</time>
      </trkpt>
      <trkpt lat="50.653076" lon="3.793643">
        <ele>23.676876</ele>
        <time>2025-03-18T15:51:50.180Z</time>
      </trkpt>
      <trkpt lat="50.653321" lon="3.793894">
        <ele>23.690890</ele>
        <time>2025-03-18T15:51:56.297Z</time>
      </trkpt>
      <trkpt lat="50.653743" lon="3.794238">
        <ele>23.878161</ele>
        <time>2025-03-18T15:52:06.467Z</time>
      </trkpt>
      <trkpt lat="50.654465" lon="3.794603">
        <ele>24.203663</ele>
        <time>2025-03-18T15:52:23.497Z</time>
      </trkpt>
      <trkpt lat="50.654805" lon="3.794887">
        <ele>24.368837</ele>
        <time>2025-03-18T15:52:32.277Z</time>
      </trkpt>
      <trkpt lat="50.655471" lon="3.795599">
        <ele>24.498184</ele>
        <time>2025-03-18T15:52:49.775Z</time>
      </trkpt>
      <trkpt lat="50.655708" lon="3.795714">
        <ele>24.512290</ele>
        <time>2025-03-18T15:52:54.909Z</time>
      </trkpt>
      <trkpt lat="50.655972" lon="3.795745">
        <ele>24.527350</ele>
        <time>2025-03-18T15:53:00.263Z</time>
      </trkpt>
      <trkpt lat="50.656293" lon="3.795671">
        <ele>24.545805</ele>
        <time>2025-03-18T15:53:06.653Z</time>
      </trkpt>
      <trkpt lat="50.656602" lon="3.795525">
        <ele>24.564155</ele>
        <time>2025-03-18T15:53:12.832Z</time>
      </trkpt>
      <trkpt lat="50.657118" lon="3.795427">
        <ele>24.440475</ele>
        <time>2025-03-18T15:53:22.670Z</time>
      </trkpt>
      <trkpt lat="50.658411" lon="3.795479">
        <ele>24.084000</ele>
        <time>2025-03-18T15:53:47.518Z</time>
      </trkpt>
      <trkpt lat="50.658786" lon="3.795568">
        <ele>23.960094</ele>
        <time>2025-03-18T15:53:54.824Z</time>
      </trkpt>
      <trkpt lat="50.659786" lon="3.796121">
        <ele>23.606689</ele>
        <time>2025-03-18T15:54:14.911Z</time>
      </trkpt>
      <trkpt lat="50.660645" lon="3.796716">
        <ele>23.391182</ele>
        <time>2025-03-18T15:54:32.764Z</time>
      </trkpt>
      <trkpt lat="50.660815" lon="3.796892">
        <ele>23.360440</ele>
        <time>2025-03-18T15:54:36.688Z</time>
      </trkpt>
      <trkpt lat="50.662162" lon="3.798749">
        <ele>23.173788</ele>
        <time>2025-03-18T15:55:12.629Z</time>
      </trkpt>
      <trkpt lat="50.662668" lon="3.799260">
        <ele>23.152144</ele>
        <time>2025-03-18T15:55:24.720Z</time>
      </trkpt>
      <trkpt lat="50.663173" lon="3.799626">
        <ele>23.129377</ele>
        <time>2025-03-18T15:55:35.818Z</time>
      </trkpt>
      <trkpt lat="50.663440" lon="3.799699">
        <ele>23.110916</ele>
        <time>2025-03-18T15:55:41.233Z</time>
      </trkpt>
      <trkpt lat="50.665418" lon="3.799281">
        <ele>22.771079</ele>
        <time>2025-03-18T15:56:20.995Z</time>
      </trkpt>
      <trkpt lat="50.665625" lon="3.799277">
        <ele>22.680731</ele>
        <time>2025-03-18T15:56:24.924Z</time>
      </trkpt>
      <trkpt lat="50.665939" lon="3.799425">
        <ele>22.537706</ele>
        <time>2025-03-18T15:56:31.050Z</time>
      </trkpt>
      <trkpt lat="50.666246" lon="3.799742">
        <ele>22.377577</ele>
        <time>2025-03-18T15:56:37.754Z</time>
      </trkpt>
      <trkpt lat="50.666371" lon="3.799917">
        <ele>22.304641</ele>
        <time>2025-03-18T15:56:40.784Z</time>
      </trkpt>
      <trkpt lat="50.666932" lon="3.800985">
        <ele>21.778701</ele>
        <time>2025-03-18T15:56:56.422Z</time>
      </trkpt>
      <trkpt lat="50.667245" lon="3.801700">
        <ele>21.426867</ele>
        <time>2025-03-18T15:57:06.218Z</time>
      </trkpt>
      <trkpt lat="50.667473" lon="3.802695">
        <ele>21.084245</ele>
        <time>2025-03-18T15:57:18.635Z</time>
      </trkpt>
      <trkpt lat="50.667609" lon="3.802981">
        <ele>21.094244</ele>
        <time>2025-03-18T15:57:23.045Z</time>
      </trkpt>
      <trkpt lat="50.667801" lon="3.803215">
        <ele>21.104949</ele>
        <time>2025-03-18T15:57:27.848Z</time>
      </trkpt>
      <trkpt lat="50.667993" lon="3.803365">
        <ele>21.114402</ele>
        <time>2025-03-18T15:57:32.180Z</time>
      </trkpt>
      <trkpt lat="50.668181" lon="3.803439">
        <ele>21.122951</ele>
        <time>2025-03-18T15:57:36.191Z</time>
      </trkpt>
      <trkpt lat="50.668350" lon="3.803559">
        <ele>21.131128</ele>
        <time>2025-03-18T15:57:40.095Z</time>
      </trkpt>
      <trkpt lat="50.668352" lon="3.803561">
        <ele>21.131233</ele>
        <time>2025-03-18T15:57:40.150Z</time>
      </trkpt>
      <trkpt lat="50.668506" lon="3.803735">
        <ele>21.139590</ele>
        <time>2025-03-18T15:57:44.214Z</time>
      </trkpt>
      <trkpt lat="50.669344" lon="3.805395">
        <ele>21.469428</ele>
        <time>2025-03-18T15:58:13.569Z</time>
      </trkpt>
      <trkpt lat="50.669467" lon="3.805621">
        <ele>21.532888</ele>
        <time>2025-03-18T15:58:16.626Z</time>
      </trkpt>
      <trkpt lat="50.669559" lon="3.805894">
        <ele>21.598756</ele>
        <time>2025-03-18T15:58:19.828Z</time>
      </trkpt>
      <trkpt lat="50.669612" lon="3.806300">
        <ele>21.687062</ele>
        <time>2025-03-18T15:58:24.108Z</time>
      </trkpt>
      <trkpt lat="50.669599" lon="3.806489">
        <ele>21.727561</ele>
        <time>2025-03-18T15:58:26.053Z</time>
      </trkpt>
      <trkpt lat="50.669413" lon="3.807079">
        <ele>21.759211</ele>
        <time>2025-03-18T15:58:32.506Z</time>
      </trkpt>
      <trkpt lat="50.669380" lon="3.807386">
        <ele>21.757059</ele>
        <time>2025-03-18T15:58:35.405Z</time>
      </trkpt>
      <trkpt lat="50.669409" lon="3.807648">
        <ele>21.755222</ele>
        <time>2025-03-18T15:58:37.861Z</time>
      </trkpt>
      <trkpt lat="50.669556" lon="3.808199">
        <ele>21.751091</ele>
        <time>2025-03-18T15:58:43.387Z</time>
      </trkpt>
      <trkpt lat="50.669585" lon="3.808292">
        <ele>21.750374</ele>
        <time>2025-03-18T15:58:44.323Z</time>
      </trkpt>
      <trkpt lat="50.669717" lon="3.808754">
        <ele>21.746872</ele>
        <time>2025-03-18T15:58:50.702Z</time>
      </trkpt>
      <trkpt lat="50.669944" lon="3.809378">
        <ele>21.735637</ele>
        <time>2025-03-18T15:58:59.721Z</time>
      </trkpt>
      <trkpt lat="50.670163" lon="3.809679">
        <ele>21.714698</ele>
        <time>2025-03-18T15:59:05.460Z</time>
      </trkpt>
      <trkpt lat="50.670944" lon="3.810392">
        <ele>21.649648</ele>
        <time>2025-03-18T15:59:23.723Z</time>
      </trkpt>
      <trkpt lat="50.672043" lon="3.811440">
        <ele>21.455711</ele>
        <time>2025-03-18T15:59:48.849Z</time>
      </trkpt>
      <trkpt lat="50.672193" lon="3.811625">
        <ele>21.417264</ele>
        <time>2025-03-18T15:59:52.491Z</time>
      </trkpt>
      <trkpt lat="50.672690" lon="3.812500">
        <ele>21.266883</ele>
        <time>2025-03-18T16:00:06.923Z</time>
      </trkpt>
      <trkpt lat="50.672931" lon="3.813362">
        <ele>21.194321</ele>
        <time>2025-03-18T16:00:18.835Z</time>
      </trkpt>
      <trkpt lat="50.673153" lon="3.813757">
        <ele>21.158004</ele>
        <time>2025-03-18T16:00:25.594Z</time>
      </trkpt>
      <trkpt lat="50.673392" lon="3.814016">
        <ele>21.126534</ele>
        <time>2025-03-18T16:00:31.489Z</time>
      </trkpt>
      <trkpt lat="50.673598" lon="3.814172">
        <ele>21.101733</ele>
        <time>2025-03-18T16:00:36.080Z</time>
      </trkpt>
      <trkpt lat="50.673741" lon="3.814228">
        <ele>21.085741</ele>
        <time>2025-03-18T16:00:39.008Z</time>
      </trkpt>
      <trkpt lat="50.674171" lon="3.814285">
        <ele>20.998448</ele>
        <time>2025-03-18T16:00:47.274Z</time>
      </trkpt>
      <trkpt lat="50.674290" lon="3.814338">
        <ele>20.951068</ele>
        <time>2025-03-18T16:00:49.578Z</time>
      </trkpt>
      <trkpt lat="50.674510" lon="3.814540">
        <ele>20.853535</ele>
        <time>2025-03-18T16:00:54.278Z</time>
      </trkpt>
      <trkpt lat="50.674598" lon="3.814677">
        <ele>20.806167</ele>
        <time>2025-03-18T16:00:56.525Z</time>
      </trkpt>
      <trkpt lat="50.674720" lon="3.814978">
        <ele>20.719403</ele>
        <time>2025-03-18T16:01:00.661Z</time>
      </trkpt>
      <trkpt lat="50.674844" lon="3.815653">
        <ele>20.548745</ele>
        <time>2025-03-18T16:01:08.946Z</time>
      </trkpt>
      <trkpt lat="50.674999" lon="3.816099">
        <ele>20.425226</ele>
        <time>2025-03-18T16:01:15.122Z</time>
      </trkpt>
      <trkpt lat="50.675266" lon="3.816534">
        <ele>20.376623</ele>
        <time>2025-03-18T16:01:22.617Z</time>
      </trkpt>
      <trkpt lat="50.675699" lon="3.816940">
        <ele>20.400745</ele>
        <time>2025-03-18T16:01:32.959Z</time>
      </trkpt>
      <trkpt lat="50.675804" lon="3.817131">
        <ele>20.408418</ele>
        <time>2025-03-18T16:01:36.311Z</time>
      </trkpt>
      <trkpt lat="50.676273" lon="3.818307">
        <ele>20.450588</ele>
        <time>2025-03-18T16:01:54.743Z</time>
      </trkpt>
      <trkpt lat="50.676364" lon="3.818646">
        <ele>20.462417</ele>
        <time>2025-03-18T16:01:59.483Z</time>
      </trkpt>
      <trkpt lat="50.676373" lon="3.818831">
        <ele>20.468420</ele>
        <time>2025-03-18T16:02:01.883Z</time>
      </trkpt>
      <trkpt lat="50.676292" lon="3.819629">
        <ele>20.494566</ele>
        <time>2025-03-18T16:02:12.338Z</time>
      </trkpt>
      <trkpt lat="50.676336" lon="3.819927">
        <ele>20.504465</ele>
        <time>2025-03-18T16:02:16.264Z</time>
      </trkpt>
      <trkpt lat="50.676417" lon="3.820168">
        <ele>20.513290</ele>
        <time>2025-03-18T16:02:19.739Z</time>
      </trkpt>
      <trkpt lat="50.676608" lon="3.820506">
        <ele>20.527941</ele>
        <time>2025-03-18T16:02:25.539Z</time>
      </trkpt>
      <trkpt lat="50.676754" lon="3.820644">
        <ele>20.536630</ele>
        <time>2025-03-18T16:02:29.002Z</time>
      </trkpt>
      <trkpt lat="50.676900" lon="3.820724">
        <ele>20.545705</ele>
        <time>2025-03-18T16:02:32.142Z</time>
      </trkpt>
      <trkpt lat="50.677092" lon="3.820772">
        <ele>20.569140</ele>
        <time>2025-03-18T16:02:36.115Z</time>
      </trkpt>
      <trkpt lat="50.677314" lon="3.820893">
        <ele>20.597453</ele>
        <time>2025-03-18T16:02:40.943Z</time>
      </trkpt>
      <trkpt lat="50.677590" lon="3.821199">
        <ele>20.638115</ele>
        <time>2025-03-18T16:02:47.862Z</time>
      </trkpt>
      <trkpt lat="50.677760" lon="3.821349">
        <ele>20.661594</ele>
        <time>2025-03-18T16:02:51.855Z</time>
      </trkpt>
      <trkpt lat="50.677904" lon="3.821427">
        <ele>20.679948</ele>
        <time>2025-03-18T16:02:55.008Z</time>
      </trkpt>
      <trkpt lat="50.678049" lon="3.821479">
        <ele>20.697873</ele>
        <time>2025-03-18T16:02:58.162Z</time>
      </trkpt>
      <trkpt lat="50.678435" lon="3.821507">
        <ele>20.744454</ele>
        <time>2025-03-18T16:03:06.339Z</time>
      </trkpt>
      <trkpt lat="50.678689" lon="3.821627">
        <ele>20.713063</ele>
        <time>2025-03-18T16:03:11.914Z</time>
      </trkpt>
      <trkpt lat="50.678789" lon="3.821719">
        <ele>20.671563</ele>
        <time>2025-03-18T16:03:14.323Z</time>
      </trkpt>
      <trkpt lat="50.679029" lon="3.822087">
        <ele>20.551590</ele>
        <time>2025-03-18T16:03:21.222Z</time>
      </trkpt>
      <trkpt lat="50.680191" lon="3.823792">
        <ele>19.961292</ele>
        <time>2025-03-18T16:03:50.246Z</time>
      </trkpt>
      <trkpt lat="50.680495" lon="3.824022">
        <ele>19.820919</ele>
        <time>2025-03-18T16:03:56.154Z</time>
      </trkpt>
      <trkpt lat="50.681067" lon="3.824267">
        <ele>19.574133</ele>
        <time>2025-03-18T16:04:06.969Z</time>
      </trkpt>
      <trkpt lat="50.681192" lon="3.824390">
        <ele>19.512798</ele>
        <time>2025-03-18T16:04:09.734Z</time>
      </trkpt>
      <trkpt lat="50.681433" lon="3.824892">
        <ele>19.389542</ele>
        <time>2025-03-18T16:04:17.718Z</time>
      </trkpt>
      <trkpt lat="50.682268" lon="3.827088">
        <ele>20.158804</ele>
        <time>2025-03-18T16:04:54.936Z</time>
      </trkpt>
      <trkpt lat="50.682387" lon="3.827354">
        <ele>20.213796</ele>
        <time>2025-03-18T16:04:59.429Z</time>
      </trkpt>
      <trkpt lat="50.682741" lon="3.827927">
        <ele>20.178049</ele>
        <time>2025-03-18T16:05:10.075Z</time>
      </trkpt>
      <trkpt lat="50.683095" lon="3.828426">
        <ele>20.144589</ele>
        <time>2025-03-18T16:05:19.574Z</time>
      </trkpt>
      <trkpt lat="50.683374" lon="3.828946">
        <ele>20.114153</ele>
        <time>2025-03-18T16:05:27.789Z</time>
      </trkpt>
      <trkpt lat="50.683721" lon="3.829502">
        <ele>20.027792</ele>
        <time>2025-03-18T16:05:36.924Z</time>
      </trkpt>
      <trkpt lat="50.684549" lon="3.830460">
        <ele>19.674038</ele>
        <time>2025-03-18T16:05:56.060Z</time>
      </trkpt>
      <trkpt lat="50.684885" lon="3.830792">
        <ele>19.537446</ele>
        <time>2025-03-18T16:06:03.602Z</time>
      </trkpt>
      <trkpt lat="50.684957" lon="3.830867">
        <ele>19.507721</ele>
        <time>2025-03-18T16:06:05.266Z</time>
      </trkpt>
      <trkpt lat="50.686472" lon="3.832427">
        <ele>19.607296</ele>
        <time>2025-03-18T16:06:42.539Z</time>
      </trkpt>
      <trkpt lat="50.687115" lon="3.832999">
        <ele>19.543423</ele>
        <time>2025-03-18T16:06:58.104Z</time>
      </trkpt>
      <trkpt lat="50.687544" lon="3.833258">
        <ele>19.492978</ele>
        <time>2025-03-18T16:07:07.386Z</time>
      </trkpt>
      <trkpt lat="50.688134" lon="3.833509">
        <ele>19.425868</ele>
        <time>2025-03-18T16:07:19.051Z</time>
      </trkpt>
      <trkpt lat="50.688519" lon="3.833759">
        <ele>19.365159</ele>
        <time>2025-03-18T16:07:26.696Z</time>
      </trkpt>
      <trkpt lat="50.688644" lon="3.833893">
        <ele>19.341804</ele>
        <time>2025-03-18T16:07:29.463Z</time>
      </trkpt>
      <trkpt lat="50.688885" lon="3.834286">
        <ele>19.288244</ele>
        <time>2025-03-18T16:07:35.916Z</time>
      </trkpt>
      <trkpt lat="50.689162" lon="3.834796">
        <ele>19.222462</ele>
        <time>2025-03-18T16:07:44.223Z</time>
      </trkpt>
      <trkpt lat="50.689261" lon="3.835073">
        <ele>19.191319</ele>
        <time>2025-03-18T16:07:48.367Z</time>
      </trkpt>
      <trkpt lat="50.689493" lon="3.835314">
        <ele>19.148391</ele>
        <time>2025-03-18T16:07:54.330Z</time>
      </trkpt>
      <trkpt lat="50.689743" lon="3.835440">
        <ele>19.224268</ele>
        <time>2025-03-18T16:08:00.141Z</time>
      </trkpt>
      <trkpt lat="50.690029" lon="3.835502">
        <ele>19.346728</ele>
        <time>2025-03-18T16:08:06.663Z</time>
      </trkpt>
      <trkpt lat="50.690307" lon="3.835609">
        <ele>19.468111</ele>
        <time>2025-03-18T16:08:13.212Z</time>
      </trkpt>
      <trkpt lat="50.690512" lon="3.835824">
        <ele>19.572517</ele>
        <time>2025-03-18T16:08:18.890Z</time>
      </trkpt>
      <trkpt lat="50.691603" lon="3.837388">
        <ele>19.818031</ele>
        <time>2025-03-18T16:08:50.409Z</time>
      </trkpt>
      <trkpt lat="50.692184" lon="3.838622">
        <ele>19.700862</ele>
        <time>2025-03-18T16:09:08.877Z</time>
      </trkpt>
      <trkpt lat="50.692264" lon="3.838747">
        <ele>19.687321</ele>
        <time>2025-03-18T16:09:10.953Z</time>
      </trkpt>
      <trkpt lat="50.692836" lon="3.839203">
        <ele>19.519742</ele>
        <time>2025-03-18T16:09:22.760Z</time>
      </trkpt>
      <trkpt lat="50.692944" lon="3.839364">
        <ele>19.480399</ele>
        <time>2025-03-18T16:09:25.512Z</time>
      </trkpt>
      <trkpt lat="50.693078" lon="3.839793">
        <ele>19.400146</ele>
        <time>2025-03-18T16:09:31.195Z</time>
      </trkpt>
      <trkpt lat="50.693257" lon="3.840678">
        <ele>19.244274</ele>
        <time>2025-03-18T16:09:42.692Z</time>
      </trkpt>
      <trkpt lat="50.693372" lon="3.841017">
        <ele>19.268914</ele>
        <time>2025-03-18T16:09:47.702Z</time>
      </trkpt>
      <trkpt lat="50.693535" lon="3.841295">
        <ele>19.398143</ele>
        <time>2025-03-18T16:09:52.825Z</time>
      </trkpt>
      <trkpt lat="50.693704" lon="3.841474">
        <ele>19.507744</ele>
        <time>2025-03-18T16:09:57.310Z</time>
      </trkpt>
      <trkpt lat="50.693874" lon="3.841599">
        <ele>19.608740</ele>
        <time>2025-03-18T16:10:01.538Z</time>
      </trkpt>
      <trkpt lat="50.694378" lon="3.841759">
        <ele>19.885597</ele>
        <time>2025-03-18T16:10:13.442Z</time>
      </trkpt>
      <trkpt lat="50.694511" lon="3.841850">
        <ele>19.963661</ele>
        <time>2025-03-18T16:10:16.874Z</time>
      </trkpt>
      <trkpt lat="50.694658" lon="3.841971">
        <ele>20.052942</ele>
        <time>2025-03-18T16:10:20.777Z</time>
      </trkpt>
      <trkpt lat="50.694965" lon="3.842347">
        <ele>20.252134</ele>
        <time>2025-03-18T16:10:30.007Z</time>
      </trkpt>
      <trkpt lat="50.696187" lon="3.843790">
        <ele>20.976001</ele>
        <time>2025-03-18T16:11:03.896Z</time>
      </trkpt>
      <trkpt lat="50.696534" lon="3.844082">
        <ele>21.073184</ele>
        <time>2025-03-18T16:11:11.850Z</time>
      </trkpt>
      <trkpt lat="50.697661" lon="3.844548">
        <ele>21.250530</ele>
        <time>2025-03-18T16:11:35.620Z</time>
      </trkpt>
      <trkpt lat="50.698067" lon="3.844695">
        <ele>21.307997</ele>
        <time>2025-03-18T16:11:44.576Z</time>
      </trkpt>
      <trkpt lat="50.698380" lon="3.844762">
        <ele>21.324937</ele>
        <time>2025-03-18T16:11:51.423Z</time>
      </trkpt>
      <trkpt lat="50.699348" lon="3.844684">
        <ele>21.376919</ele>
        <time>2025-03-18T16:12:11.816Z</time>
      </trkpt>
      <trkpt lat="50.699597" lon="3.844619">
        <ele>21.390454</ele>
        <time>2025-03-18T16:12:16.742Z</time>
      </trkpt>
      <trkpt lat="50.699732" lon="3.844544">
        <ele>21.398129</ele>
        <time>2025-03-18T16:12:19.485Z</time>
      </trkpt>
      <trkpt lat="50.699851" lon="3.844454">
        <ele>21.348551</ele>
        <time>2025-03-18T16:12:21.950Z</time>
      </trkpt>
      <trkpt lat="50.700064" lon="3.844178">
        <ele>21.152869</ele>
        <time>2025-03-18T16:12:27.021Z</time>
      </trkpt>
      <trkpt lat="50.700185" lon="3.843916">
        <ele>21.007024</ele>
        <time>2025-03-18T16:12:30.717Z</time>
      </trkpt>
      <trkpt lat="50.701061" lon="3.841390">
        <ele>19.922569</ele>
        <time>2025-03-18T16:13:02.861Z</time>
      </trkpt>
      <trkpt lat="50.701201" lon="3.841014">
        <ele>19.826741</ele>
        <time>2025-03-18T16:13:08.048Z</time>
      </trkpt>
      <trkpt lat="50.701801" lon="3.839666">
        <ele>19.481339</ele>
        <time>2025-03-18T16:13:29.320Z</time>
      </trkpt>
      <trkpt lat="50.702461" lon="3.838500">
        <ele>19.299411</ele>
        <time>2025-03-18T16:13:49.435Z</time>
      </trkpt>
      <trkpt lat="50.702646" lon="3.838211">
        <ele>19.251608</ele>
        <time>2025-03-18T16:13:54.376Z</time>
      </trkpt>
      <trkpt lat="50.702736" lon="3.838108">
        <ele>19.231190</ele>
        <time>2025-03-18T16:13:55.867Z</time>
      </trkpt>
      <trkpt lat="50.702928" lon="3.837985">
        <ele>19.193130</ele>
        <time>2025-03-18T16:13:58.601Z</time>
      </trkpt>
      <trkpt lat="50.703532" lon="3.837800">
        <ele>19.295212</ele>
        <time>2025-03-18T16:14:06.596Z</time>
      </trkpt>
      <trkpt lat="50.703663" lon="3.837728">
        <ele>19.330965</ele>
        <time>2025-03-18T16:14:08.399Z</time>
      </trkpt>
      <trkpt lat="50.703954" lon="3.837492">
        <ele>19.415287</ele>
        <time>2025-03-18T16:14:12.943Z</time>
      </trkpt>
      <trkpt lat="50.704158" lon="3.837278">
        <ele>19.478417</ele>
        <time>2025-03-18T16:14:16.997Z</time>
      </trkpt>
      <trkpt lat="50.704414" lon="3.837000">
        <ele>19.558501</ele>
        <time>2025-03-18T16:14:22.748Z</time>
      </trkpt>
      <trkpt lat="50.704654" lon="3.836663">
        <ele>19.666119</ele>
        <time>2025-03-18T16:14:29.382Z</time>
      </trkpt>
      <trkpt lat="50.704916" lon="3.836279">
        <ele>20.042283</ele>
        <time>2025-03-18T16:14:36.985Z</time>
      </trkpt>
      <trkpt lat="50.705288" lon="3.835331">
        <ele>20.785499</ele>
        <time>2025-03-18T16:14:51.727Z</time>
      </trkpt>
      <trkpt lat="50.705357" lon="3.835211">
        <ele>20.893514</ele>
        <time>2025-03-18T16:14:53.816Z</time>
      </trkpt>
      <trkpt lat="50.705501" lon="3.835013">
        <ele>21.094443</ele>
        <time>2025-03-18T16:14:57.481Z</time>
      </trkpt>
      <trkpt lat="50.705818" lon="3.834743">
        <ele>21.473452</ele>
        <time>2025-03-18T16:15:03.618Z</time>
      </trkpt>
      <trkpt lat="50.707081" lon="3.834105">
        <ele>20.971409</ele>
        <time>2025-03-18T16:15:21.320Z</time>
      </trkpt>
      <trkpt lat="50.707215" lon="3.834091">
        <ele>20.913058</ele>
        <time>2025-03-18T16:15:22.999Z</time>
      </trkpt>
      <trkpt lat="50.707451" lon="3.834171">
        <ele>20.808180</ele>
        <time>2025-03-18T16:15:26.005Z</time>
      </trkpt>
      <trkpt lat="50.707882" lon="3.834398">
        <ele>20.694696</ele>
        <time>2025-03-18T16:15:31.708Z</time>
      </trkpt>
      <trkpt lat="50.708103" lon="3.834548">
        <ele>20.655818</ele>
        <time>2025-03-18T16:15:34.778Z</time>
      </trkpt>
      <trkpt lat="50.708565" lon="3.834703">
        <ele>20.579483</ele>
        <time>2025-03-18T16:15:41.110Z</time>
      </trkpt>
      <trkpt lat="50.709218" lon="3.834763">
        <ele>20.473768</ele>
        <time>2025-03-18T16:15:51.599Z</time>
      </trkpt>
      <trkpt lat="50.709913" lon="3.835092">
        <ele>20.782412</ele>
        <time>2025-03-18T16:16:04.435Z</time>
      </trkpt>
      <trkpt lat="50.710038" lon="3.835098">
        <ele>20.850760</ele>
        <time>2025-03-18T16:16:06.662Z</time>
      </trkpt>
      <trkpt lat="50.710518" lon="3.834935">
        <ele>21.119090</ele>
        <time>2025-03-18T16:16:15.305Z</time>
      </trkpt>
      <trkpt lat="50.710757" lon="3.834943">
        <ele>21.249740</ele>
        <time>2025-03-18T16:16:19.356Z</time>
      </trkpt>
      <trkpt lat="50.711354" lon="3.835241">
        <ele>21.383067</ele>
        <time>2025-03-18T16:16:29.503Z</time>
      </trkpt>
      <trkpt lat="50.711667" lon="3.835252">
        <ele>21.323924</ele>
        <time>2025-03-18T16:16:34.284Z</time>
      </trkpt>
      <trkpt lat="50.711687" lon="3.835298">
        <ele>21.317249</ele>
        <time>2025-03-18T16:16:34.801Z</time>
      </trkpt>
      <trkpt lat="50.711700" lon="3.835365">
        <ele>21.308866</ele>
        <time>2025-03-18T16:16:35.437Z</time>
      </trkpt>
      <trkpt lat="50.711790" lon="3.835388">
        <ele>21.291643</ele>
        <time>2025-03-18T16:16:36.743Z</time>
      </trkpt>
      <trkpt lat="50.711793" lon="3.835275">
        <ele>21.278114</ele>
        <time>2025-03-18T16:16:37.740Z</time>
      </trkpt>
      <trkpt lat="50.711795" lon="3.835036">
        <ele>21.249521</ele>
        <time>2025-03-18T16:16:39.830Z</time>
      </trkpt>
      <trkpt lat="50.711796" lon="3.834997">
        <ele>21.244852</ele>
        <time>2025-03-18T16:16:40.698Z</time>
      </trkpt>
      <trkpt lat="50.711774" lon="3.834560">
        <ele>21.192412</ele>
        <time>2025-03-18T16:16:50.526Z</time>
      </trkpt>
      <trkpt lat="50.712635" lon="3.834211">
        <ele>21.346813</ele>
        <time>2025-03-18T16:17:06.790Z</time>
      </trkpt>
      <trkpt lat="50.712806" lon="3.834141">
        <ele>21.461916</ele>
        <time>2025-03-18T16:17:09.995Z</time>
      </trkpt>
      <trkpt lat="50.713137" lon="3.834007">
        <ele>21.684566</ele>
        <time>2025-03-18T16:17:16.173Z</time>
      </trkpt>
      <trkpt lat="50.713200" lon="3.833864">
        <ele>21.756441</ele>
        <time>2025-03-18T16:17:18.244Z</time>
      </trkpt>
      <trkpt lat="50.713228" lon="3.833673">
        <ele>21.837330</ele>
        <time>2025-03-18T16:17:22.704Z</time>
      </trkpt>
      <trkpt lat="50.713257" lon="3.833473">
        <ele>21.921983</ele>
        <time>2025-03-18T16:17:27.684Z</time>
      </trkpt>
      <trkpt lat="50.713315" lon="3.833016">
        <ele>22.114285</ele>
        <time>2025-03-18T16:17:40.523Z</time>
      </trkpt>
      <trkpt lat="50.713366" lon="3.832093">
        <ele>24.048782</ele>
        <time>2025-03-18T16:18:10.647Z</time>
      </trkpt>
      <trkpt lat="50.713368" lon="3.832030">
        <ele>24.252270</ele>
        <time>2025-03-18T16:18:12.854Z</time>
      </trkpt>
      <trkpt lat="50.713371" lon="3.831832">
        <ele>24.891184</ele>
        <time>2025-03-18T16:18:17.883Z</time>
      </trkpt>
      <trkpt lat="50.713348" lon="3.831297">
        <ele>26.621023</ele>
        <time>2025-03-18T16:18:38.171Z</time>
      </trkpt>
      <trkpt lat="50.713371" lon="3.830773">
        <ele>28.315460</ele>
        <time>2025-03-18T16:18:59.804Z</time>
      </trkpt>
      <trkpt lat="50.713381" lon="3.830563">
        <ele>28.994815</ele>
        <time>2025-03-18T16:19:08.532Z</time>
      </trkpt>
      <trkpt lat="50.713352" lon="3.830016">
        <ele>30.765566</ele>
        <time>2025-03-18T16:19:30.646Z</time>
      </trkpt>
      <trkpt lat="50.713283" lon="3.829550">
        <ele>31.627119</ele>
        <time>2025-03-18T16:19:48.103Z</time>
      </trkpt>
      <trkpt lat="50.713222" lon="3.829131">
        <ele>31.935161</ele>
        <time>2025-03-18T16:20:02.241Z</time>
      </trkpt>
      <trkpt lat="50.713440" lon="3.829147">
        <ele>32.182102</ele>
        <time>2025-03-18T16:20:07.583Z</time>
      </trkpt>
      <trkpt lat="50.713694" lon="3.828974">
        <ele>32.495102</ele>
        <time>2025-03-18T16:20:13.038Z</time>
      </trkpt>
      <trkpt lat="50.714203" lon="3.828656">
        <ele>33.114481</ele>
        <time>2025-03-18T16:20:20.030Z</time>
      </trkpt>
      <trkpt lat="50.714566" lon="3.828515">
        <ele>33.318029</ele>
        <time>2025-03-18T16:20:23.978Z</time>
      </trkpt>
      <trkpt lat="50.714967" lon="3.828476">
        <ele>32.345989</ele>
        <time>2025-03-18T16:20:28.239Z</time>
      </trkpt>
      <trkpt lat="50.715892" lon="3.828226">
        <ele>30.075459</ele>
        <time>2025-03-18T16:20:38.142Z</time>
      </trkpt>
      <trkpt lat="50.716080" lon="3.828168">
        <ele>29.612004</ele>
        <time>2025-03-18T16:20:40.179Z</time>
      </trkpt>
      <trkpt lat="50.716619" lon="3.828131">
        <ele>28.312766</ele>
        <time>2025-03-18T16:20:45.900Z</time>
      </trkpt>
      <trkpt lat="50.717086" lon="3.828179">
        <ele>27.188998</ele>
        <time>2025-03-18T16:20:50.854Z</time>
      </trkpt>
      <trkpt lat="50.717719" lon="3.828112">
        <ele>25.665581</ele>
        <time>2025-03-18T16:20:57.557Z</time>
      </trkpt>
      <trkpt lat="50.719549" lon="3.827506">
        <ele>21.676007</ele>
        <time>2025-03-18T16:21:17.719Z</time>
      </trkpt>
      <trkpt lat="50.720321" lon="3.827304">
        <ele>20.846735</ele>
        <time>2025-03-18T16:21:26.678Z</time>
      </trkpt>
      <trkpt lat="50.721475" lon="3.827390">
        <ele>20.311828</ele>
        <time>2025-03-18T16:21:42.030Z</time>
      </trkpt>
      <trkpt lat="50.721592" lon="3.827400">
        <ele>20.257576</ele>
        <time>2025-03-18T16:21:44.839Z</time>
      </trkpt>
      <trkpt lat="50.722206" lon="3.827437">
        <ele>21.888203</ele>
        <time>2025-03-18T16:22:01.964Z</time>
      </trkpt>
      <trkpt lat="50.722335" lon="3.827412">
        <ele>22.257088</ele>
        <time>2025-03-18T16:22:06.128Z</time>
      </trkpt>
      <trkpt lat="50.722565" lon="3.827240">
        <ele>22.979359</ele>
        <time>2025-03-18T16:22:14.727Z</time>
      </trkpt>
      <trkpt lat="50.723736" lon="3.825850">
        <ele>27.589860</ele>
        <time>2025-03-18T16:23:07.150Z</time>
      </trkpt>
      <trkpt lat="50.723858" lon="3.825719">
        <ele>28.114522</ele>
        <time>2025-03-18T16:23:12.226Z</time>
      </trkpt>
      <trkpt lat="50.724087" lon="3.825468">
        <ele>29.105846</ele>
        <time>2025-03-18T16:23:21.710Z</time>
      </trkpt>
      <trkpt lat="50.725746" lon="3.824064">
        <ele>34.975082</ele>
        <time>2025-03-18T16:24:24.509Z</time>
      </trkpt>
      <trkpt lat="50.726124" lon="3.823774">
        <ele>36.165786</ele>
        <time>2025-03-18T16:24:37.664Z</time>
      </trkpt>
      <trkpt lat="50.727443" lon="3.822806">
        <ele>38.089202</ele>
        <time>2025-03-18T16:25:15.202Z</time>
      </trkpt>
      <trkpt lat="50.728225" lon="3.822307">
        <ele>38.743222</ele>
        <time>2025-03-18T16:25:32.305Z</time>
      </trkpt>
      <trkpt lat="50.729869" lon="3.821248">
        <ele>39.079836</ele>
        <time>2025-03-18T16:26:09.577Z</time>
      </trkpt>
      <trkpt lat="50.730481" lon="3.820831">
        <ele>39.096861</ele>
        <time>2025-03-18T16:26:24.294Z</time>
      </trkpt>
      <trkpt lat="50.730804" lon="3.820702">
        <ele>39.105371</ele>
        <time>2025-03-18T16:26:31.182Z</time>
      </trkpt>
      <trkpt lat="50.731106" lon="3.820646">
        <ele>39.113138</ele>
        <time>2025-03-18T16:26:37.183Z</time>
      </trkpt>
      <trkpt lat="50.731990" lon="3.820678">
        <ele>38.992609</ele>
        <time>2025-03-18T16:26:53.058Z</time>
      </trkpt>
      <trkpt lat="50.732881" lon="3.820711">
        <ele>38.811996</ele>
        <time>2025-03-18T16:27:10.485Z</time>
      </trkpt>
      <trkpt lat="50.733393" lon="3.820766">
        <ele>38.562998</ele>
        <time>2025-03-18T16:27:21.920Z</time>
      </trkpt>
      <trkpt lat="50.733929" lon="3.821155">
        <ele>38.076310</ele>
        <time>2025-03-18T16:27:34.307Z</time>
      </trkpt>
      <trkpt lat="50.734157" lon="3.821265">
        <ele>37.879608</ele>
        <time>2025-03-18T16:27:38.839Z</time>
      </trkpt>
      <trkpt lat="50.734388" lon="3.821304">
        <ele>37.687921</ele>
        <time>2025-03-18T16:27:42.908Z</time>
      </trkpt>
      <trkpt lat="50.735774" lon="3.821383">
        <ele>35.027686</ele>
        <time>2025-03-18T16:28:03.827Z</time>
      </trkpt>
      <trkpt lat="50.736127" lon="3.821467">
        <ele>34.119427</ele>
        <time>2025-03-18T16:28:09.174Z</time>
      </trkpt>
      <trkpt lat="50.736257" lon="3.821527">
        <ele>33.774848</ele>
        <time>2025-03-18T16:28:11.227Z</time>
      </trkpt>
      <trkpt lat="50.736575" lon="3.821765">
        <ele>32.879592</ele>
        <time>2025-03-18T16:28:16.570Z</time>
      </trkpt>
      <trkpt lat="50.737113" lon="3.822302">
        <ele>31.826185</ele>
        <time>2025-03-18T16:28:26.268Z</time>
      </trkpt>
      <trkpt lat="50.737717" lon="3.822909">
        <ele>30.723188</ele>
        <time>2025-03-18T16:28:37.728Z</time>
      </trkpt>
      <trkpt lat="50.737984" lon="3.823031">
        <ele>30.294912</ele>
        <time>2025-03-18T16:28:42.471Z</time>
      </trkpt>
      <trkpt lat="50.738009" lon="3.823037">
        <ele>30.255948</ele>
        <time>2025-03-18T16:28:42.923Z</time>
      </trkpt>
      <trkpt lat="50.738120" lon="3.823061">
        <ele>30.083314</ele>
        <time>2025-03-18T16:28:44.897Z</time>
      </trkpt>
      <trkpt lat="50.738435" lon="3.822957">
        <ele>30.204556</ele>
        <time>2025-03-18T16:28:50.922Z</time>
      </trkpt>
      <trkpt lat="50.740876" lon="3.821486">
        <ele>34.124038</ele>
        <time>2025-03-18T16:30:02.544Z</time>
      </trkpt>
      <trkpt lat="50.742250" lon="3.820771">
        <ele>36.205558</ele>
        <time>2025-03-18T16:30:42.757Z</time>
      </trkpt>
      <trkpt lat="50.742773" lon="3.820558">
        <ele>36.749103</ele>
        <time>2025-03-18T16:30:56.049Z</time>
      </trkpt>
      <trkpt lat="50.742978" lon="3.820444">
        <ele>36.967815</ele>
        <time>2025-03-18T16:31:00.821Z</time>
      </trkpt>
      <trkpt lat="50.743365" lon="3.820125">
        <ele>37.308099</ele>
        <time>2025-03-18T16:31:09.433Z</time>
      </trkpt>
      <trkpt lat="50.744140" lon="3.819115">
        <ele>36.993534</ele>
        <time>2025-03-18T16:31:27.967Z</time>
      </trkpt>
      <trkpt lat="50.744670" lon="3.818799">
        <ele>36.816150</ele>
        <time>2025-03-18T16:31:38.394Z</time>
      </trkpt>
      <trkpt lat="50.744921" lon="3.818616">
        <ele>36.827857</ele>
        <time>2025-03-18T16:31:43.852Z</time>
      </trkpt>
      <trkpt lat="50.745834" lon="3.817457">
        <ele>37.390667</ele>
        <time>2025-03-18T16:32:09.904Z</time>
      </trkpt>
      <trkpt lat="50.746123" lon="3.817186">
        <ele>37.552168</ele>
        <time>2025-03-18T16:32:17.787Z</time>
      </trkpt>
      <trkpt lat="50.746358" lon="3.817031">
        <ele>37.708631</ele>
        <time>2025-03-18T16:32:23.779Z</time>
      </trkpt>
      <trkpt lat="50.746747" lon="3.816875">
        <ele>38.058867</ele>
        <time>2025-03-18T16:32:33.258Z</time>
      </trkpt>
      <trkpt lat="50.748715" lon="3.816431">
        <ele>40.612596</ele>
        <time>2025-03-18T16:33:20.790Z</time>
      </trkpt>
      <trkpt lat="50.748954" lon="3.816377">
        <ele>41.115068</ele>
        <time>2025-03-18T16:33:27.354Z</time>
      </trkpt>
      <trkpt lat="50.749980" lon="3.816142">
        <ele>43.406374</ele>
        <time>2025-03-18T16:34:00.625Z</time>
      </trkpt>
      <trkpt lat="50.751300" lon="3.815968">
        <ele>47.290295</ele>
        <time>2025-03-18T16:34:46.179Z</time>
      </trkpt>
      <trkpt lat="50.751691" lon="3.816967">
        <ele>48.308562</ele>
        <time>2025-03-18T16:35:01.755Z</time>
      </trkpt>
      <trkpt lat="50.752071" lon="3.817838">
        <ele>48.447985</ele>
        <time>2025-03-18T16:35:11.281Z</time>
      </trkpt>
      <trkpt lat="50.752880" lon="3.820181">
        <ele>48.028623</ele>
        <time>2025-03-18T16:35:32.989Z</time>
      </trkpt>
      <trkpt lat="50.752897" lon="3.820320">
        <ele>47.977210</ele>
        <time>2025-03-18T16:35:34.162Z</time>
      </trkpt>
      <trkpt lat="50.752890" lon="3.820654">
        <ele>47.855850</ele>
        <time>2025-03-18T16:35:36.941Z</time>
      </trkpt>
      <trkpt lat="50.752733" lon="3.821501">
        <ele>47.542816</ele>
        <time>2025-03-18T16:35:44.426Z</time>
      </trkpt>
      <trkpt lat="50.752719" lon="3.821672">
        <ele>47.497782</ele>
        <time>2025-03-18T16:35:45.913Z</time>
      </trkpt>
      <trkpt lat="50.752785" lon="3.821991">
        <ele>47.410126</ele>
        <time>2025-03-18T16:35:48.823Z</time>
      </trkpt>
      <trkpt lat="50.753758" lon="3.824815">
        <ele>46.254272</ele>
        <time>2025-03-18T16:36:16.204Z</time>
      </trkpt>
      <trkpt lat="50.754392" lon="3.826163">
        <ele>45.259251</ele>
        <time>2025-03-18T16:36:29.104Z</time>
      </trkpt>
      <trkpt lat="50.754919" lon="3.827484">
        <ele>43.823222</ele>
        <time>2025-03-18T16:36:40.384Z</time>
      </trkpt>
      <trkpt lat="50.755194" lon="3.828362">
        <ele>42.872788</ele>
        <time>2025-03-18T16:36:47.332Z</time>
      </trkpt>
      <trkpt lat="50.755613" lon="3.830020">
        <ele>41.574718</ele>
        <time>2025-03-18T16:37:00.468Z</time>
      </trkpt>
      <trkpt lat="50.756282" lon="3.832424">
        <ele>39.378515</ele>
        <time>2025-03-18T16:37:22.084Z</time>
      </trkpt>
      <trkpt lat="50.756523" lon="3.832969">
        <ele>38.618736</ele>
        <time>2025-03-18T16:37:26.866Z</time>
      </trkpt>
      <trkpt lat="50.756640" lon="3.832848">
        <ele>38.366205</ele>
        <time>2025-03-18T16:37:29.046Z</time>
      </trkpt>
      <trkpt lat="50.758162" lon="3.831396">
        <ele>34.032253</ele>
        <time>2025-03-18T16:37:54.971Z</time>
      </trkpt>
      <trkpt lat="50.759692" lon="3.830258">
        <ele>32.223539</ele>
        <time>2025-03-18T16:38:21.747Z</time>
      </trkpt>
      <trkpt lat="50.760356" lon="3.829692">
        <ele>32.271912</ele>
        <time>2025-03-18T16:38:42.741Z</time>
      </trkpt>
      <trkpt lat="50.760790" lon="3.829450">
        <ele>33.668228</ele>
        <time>2025-03-18T16:38:59.558Z</time>
      </trkpt>
      <trkpt lat="50.761083" lon="3.829288">
        <ele>34.610025</ele>
        <time>2025-03-18T16:39:11.343Z</time>
      </trkpt>
      <trkpt lat="50.761503" lon="3.828938">
        <ele>36.050557</ele>
        <time>2025-03-18T16:39:28.076Z</time>
      </trkpt>
      <trkpt lat="50.761714" lon="3.828706">
        <ele>36.830370</ele>
        <time>2025-03-18T16:39:36.259Z</time>
      </trkpt>
      <trkpt lat="50.761856" lon="3.828551">
        <ele>37.353935</ele>
        <time>2025-03-18T16:39:41.287Z</time>
      </trkpt>
      <trkpt lat="50.761998" lon="3.828959">
        <ele>37.457589</ele>
        <time>2025-03-18T16:39:49.033Z</time>
      </trkpt>
      <trkpt lat="50.762057" lon="3.829043">
        <ele>37.422792</ele>
        <time>2025-03-18T16:39:50.903Z</time>
      </trkpt>
      <trkpt lat="50.762293" lon="3.829134">
        <ele>37.316332</ele>
        <time>2025-03-18T16:39:56.224Z</time>
      </trkpt>
      <trkpt lat="50.762375" lon="3.829432">
        <ele>37.226245</ele>
        <time>2025-03-18T16:40:00.152Z</time>
      </trkpt>
      <trkpt lat="50.762970" lon="3.831492">
        <ele>36.009094</ele>
        <time>2025-03-18T16:40:23.638Z</time>
      </trkpt>
      <trkpt lat="50.762964" lon="3.832228">
        <ele>35.100025</ele>
        <time>2025-03-18T16:40:31.004Z</time>
      </trkpt>
      <trkpt lat="50.762983" lon="3.832641">
        <ele>34.588604</ele>
        <time>2025-03-18T16:40:35.113Z</time>
      </trkpt>
      <trkpt lat="50.763077" lon="3.833321">
        <ele>33.728952</ele>
        <time>2025-03-18T16:40:41.988Z</time>
      </trkpt>
      <trkpt lat="50.763365" lon="3.835170">
        <ele>31.092806</ele>
        <time>2025-03-18T16:41:00.610Z</time>
      </trkpt>
      <trkpt lat="50.763388" lon="3.835320">
        <ele>30.873354</ele>
        <time>2025-03-18T16:41:02.112Z</time>
      </trkpt>
      <trkpt lat="50.763430" lon="3.835648">
        <ele>30.397534</ele>
        <time>2025-03-18T16:41:05.365Z</time>
      </trkpt>
      <trkpt lat="50.763445" lon="3.835993">
        <ele>29.905845</ele>
        <time>2025-03-18T16:41:08.725Z</time>
      </trkpt>
      <trkpt lat="50.763424" lon="3.836412">
        <ele>29.308231</ele>
        <time>2025-03-18T16:41:12.823Z</time>
      </trkpt>
      <trkpt lat="50.763325" lon="3.837670">
        <ele>27.948546</ele>
        <time>2025-03-18T16:41:25.238Z</time>
      </trkpt>
      <trkpt lat="50.763343" lon="3.838255">
        <ele>27.331640</ele>
        <time>2025-03-18T16:41:31.133Z</time>
      </trkpt>
      <trkpt lat="50.763405" lon="3.838497">
        <ele>27.056627</ele>
        <time>2025-03-18T16:41:33.799Z</time>
      </trkpt>
      <trkpt lat="50.763744" lon="3.839299">
        <ele>26.402080</ele>
        <time>2025-03-18T16:41:44.213Z</time>
      </trkpt>
      <trkpt lat="50.763838" lon="3.839588">
        <ele>26.753963</ele>
        <time>2025-03-18T16:41:47.189Z</time>
      </trkpt>
      <trkpt lat="50.763856" lon="3.839639">
        <ele>26.817201</ele>
        <time>2025-03-18T16:41:47.777Z</time>
      </trkpt>
      <trkpt lat="50.763890" lon="3.839666">
        <ele>26.882336</ele>
        <time>2025-03-18T16:41:48.347Z</time>
      </trkpt>
      <trkpt lat="50.763938" lon="3.839650">
        <ele>26.966314</ele>
        <time>2025-03-18T16:41:49.158Z</time>
      </trkpt>
      <trkpt lat="50.763957" lon="3.839617">
        <ele>27.014633</ele>
        <time>2025-03-18T16:41:49.637Z</time>
      </trkpt>
      <trkpt lat="50.764092" lon="3.839503">
        <ele>27.276641</ele>
        <time>2025-03-18T16:41:52.315Z</time>
      </trkpt>
      <trkpt lat="50.764307" lon="3.839382">
        <ele>27.667324</ele>
        <time>2025-03-18T16:41:57.962Z</time>
      </trkpt>
      <trkpt lat="50.764736" lon="3.839033">
        <ele>28.493253</ele>
        <time>2025-03-18T16:42:12.904Z</time>
      </trkpt>
      <trkpt lat="50.765043" lon="3.838779">
        <ele>29.086420</ele>
        <time>2025-03-18T16:42:25.127Z</time>
      </trkpt>
      <trkpt lat="50.765149" lon="3.838673">
        <ele>29.303158</ele>
        <time>2025-03-18T16:42:29.576Z</time>
      </trkpt>
      <trkpt lat="50.765239" lon="3.838646">
        <ele>29.560049</ele>
        <time>2025-03-18T16:42:32.893Z</time>
      </trkpt>
      <trkpt lat="50.765425" lon="3.838721">
        <ele>30.098347</ele>
        <time>2025-03-18T16:42:39.618Z</time>
      </trkpt>
      <trkpt lat="50.765730" lon="3.839135">
        <ele>31.225636</ele>
        <time>2025-03-18T16:42:53.115Z</time>
      </trkpt>
      <trkpt lat="50.765935" lon="3.839432">
        <ele>32.005377</ele>
        <time>2025-03-18T16:43:02.098Z</time>
      </trkpt>
      <trkpt lat="50.766347" lon="3.840029">
        <ele>33.572585</ele>
        <time>2025-03-18T16:43:19.299Z</time>
      </trkpt>
      <trkpt lat="50.767216" lon="3.841299">
        <ele>35.631590</ele>
        <time>2025-03-18T16:43:50.822Z</time>
      </trkpt>
      <trkpt lat="50.767403" lon="3.841560">
        <ele>35.985476</ele>
        <time>2025-03-18T16:43:57.717Z</time>
      </trkpt>
      <trkpt lat="50.767743" lon="3.842492">
        <ele>36.865498</ele>
        <time>2025-03-18T16:44:14.761Z</time>
      </trkpt>
      <trkpt lat="50.767861" lon="3.842999">
        <ele>36.626395</ele>
        <time>2025-03-18T16:44:22.122Z</time>
      </trkpt>
      <trkpt lat="50.767899" lon="3.843271">
        <ele>36.503110</ele>
        <time>2025-03-18T16:44:25.632Z</time>
      </trkpt>
      <trkpt lat="50.768095" lon="3.845521">
        <ele>35.259853</ele>
        <time>2025-03-18T16:44:49.802Z</time>
      </trkpt>
      <trkpt lat="50.768073" lon="3.847596">
        <ele>32.747355</ele>
        <time>2025-03-18T16:45:10.348Z</time>
      </trkpt>
      <trkpt lat="50.768112" lon="3.848857">
        <ele>32.072630</ele>
        <time>2025-03-18T16:45:22.777Z</time>
      </trkpt>
      <trkpt lat="50.768133" lon="3.849541">
        <ele>31.970896</ele>
        <time>2025-03-18T16:45:30.477Z</time>
      </trkpt>
      <trkpt lat="50.768169" lon="3.849766">
        <ele>31.936417</ele>
        <time>2025-03-18T16:45:33.485Z</time>
      </trkpt>
      <trkpt lat="50.768274" lon="3.850132">
        <ele>31.876713</ele>
        <time>2025-03-18T16:45:39.221Z</time>
      </trkpt>
      <trkpt lat="50.768355" lon="3.850055">
        <ele>31.854512</ele>
        <time>2025-03-18T16:45:41.006Z</time>
      </trkpt>
      <trkpt lat="50.768857" lon="3.849019">
        <ele>32.866858</ele>
        <time>2025-03-18T16:45:59.467Z</time>
      </trkpt>
      <trkpt lat="50.768929" lon="3.848922">
        <ele>33.090670</ele>
        <time>2025-03-18T16:46:01.956Z</time>
      </trkpt>
      <trkpt lat="50.769547" lon="3.848248">
        <ele>34.867012</ele>
        <time>2025-03-18T16:46:21.853Z</time>
      </trkpt>
      <trkpt lat="50.770166" lon="3.847749">
        <ele>36.505657</ele>
        <time>2025-03-18T16:46:38.369Z</time>
      </trkpt>
      <trkpt lat="50.770395" lon="3.847504">
        <ele>37.152694</ele>
        <time>2025-03-18T16:46:44.833Z</time>
      </trkpt>
      <trkpt lat="50.770712" lon="3.846907">
        <ele>38.306364</ele>
        <time>2025-03-18T16:46:56.424Z</time>
      </trkpt>
      <trkpt lat="50.771272" lon="3.845852">
        <ele>40.358921</ele>
        <time>2025-03-18T16:47:17.744Z</time>
      </trkpt>
      <trkpt lat="50.771480" lon="3.845211">
        <ele>41.561592</ele>
        <time>2025-03-18T16:47:29.245Z</time>
      </trkpt>
      <trkpt lat="50.772081" lon="3.842689">
        <ele>45.998218</ele>
        <time>2025-03-18T16:48:13.208Z</time>
      </trkpt>
      <trkpt lat="50.772627" lon="3.840212">
        <ele>49.889261</ele>
        <time>2025-03-18T16:48:54.033Z</time>
      </trkpt>
      <trkpt lat="50.772740" lon="3.839965">
        <ele>50.200465</ele>
        <time>2025-03-18T16:48:58.509Z</time>
      </trkpt>
      <trkpt lat="50.774016" lon="3.838128">
        <ele>52.464909</ele>
        <time>2025-03-18T16:49:33.636Z</time>
      </trkpt>
      <trkpt lat="50.775127" lon="3.839313">
        <ele>52.831182</ele>
        <time>2025-03-18T16:49:53.569Z</time>
      </trkpt>
      <trkpt lat="50.775126" lon="3.839430">
        <ele>52.845478</ele>
        <time>2025-03-18T16:49:54.580Z</time>
      </trkpt>
      <trkpt lat="50.775203" lon="3.839417">
        <ele>52.752765</ele>
        <time>2025-03-18T16:49:55.666Z</time>
      </trkpt>
      <trkpt lat="50.775894" lon="3.839002">
        <ele>51.867809</ele>
        <time>2025-03-18T16:50:05.332Z</time>
      </trkpt>
      <trkpt lat="50.776704" lon="3.838512">
        <ele>50.829500</ele>
        <time>2025-03-18T16:50:15.401Z</time>
      </trkpt>
      <trkpt lat="50.776785" lon="3.838504">
        <ele>50.732333</ele>
        <time>2025-03-18T16:50:16.267Z</time>
      </trkpt>
      <trkpt lat="50.776854" lon="3.838530">
        <ele>50.573049</ele>
        <time>2025-03-18T16:50:17.010Z</time>
      </trkpt>
      <trkpt lat="50.777277" lon="3.839071">
        <ele>48.942477</ele>
        <time>2025-03-18T16:50:22.551Z</time>
      </trkpt>
      <trkpt lat="50.777324" lon="3.839101">
        <ele>48.790564</ele>
        <time>2025-03-18T16:50:23.059Z</time>
      </trkpt>
      <trkpt lat="50.778855" lon="3.839299">
        <ele>44.855631</ele>
        <time>2025-03-18T16:50:38.489Z</time>
      </trkpt>
      <trkpt lat="50.779761" lon="3.839367">
        <ele>43.762213</ele>
        <time>2025-03-18T16:50:48.883Z</time>
      </trkpt>
      <trkpt lat="50.780181" lon="3.839330">
        <ele>43.255116</ele>
        <time>2025-03-18T16:50:55.812Z</time>
      </trkpt>
      <trkpt lat="50.780346" lon="3.839281">
        <ele>43.273100</ele>
        <time>2025-03-18T16:50:59.026Z</time>
      </trkpt>
      <trkpt lat="50.781209" lon="3.838921">
        <ele>44.991159</ele>
        <time>2025-03-18T16:51:19.625Z</time>
      </trkpt>
      <trkpt lat="50.781428" lon="3.838739">
        <ele>45.467382</ele>
        <time>2025-03-18T16:51:25.886Z</time>
      </trkpt>
      <trkpt lat="50.781765" lon="3.838609">
        <ele>46.135112</ele>
        <time>2025-03-18T16:51:34.601Z</time>
      </trkpt>
      <trkpt lat="50.781962" lon="3.838622">
        <ele>46.514660</ele>
        <time>2025-03-18T16:51:39.408Z</time>
      </trkpt>
      <trkpt lat="50.782270" lon="3.838716">
        <ele>46.776615</ele>
        <time>2025-03-18T16:51:46.631Z</time>
      </trkpt>
      <trkpt lat="50.782451" lon="3.838684">
        <ele>46.896075</ele>
        <time>2025-03-18T16:51:50.510Z</time>
      </trkpt>
      <trkpt lat="50.782580" lon="3.838615">
        <ele>46.985396</ele>
        <time>2025-03-18T16:51:53.289Z</time>
      </trkpt>
      <trkpt lat="50.783018" lon="3.838339">
        <ele>47.294648</ele>
        <time>2025-03-18T16:52:02.025Z</time>
      </trkpt>
      <trkpt lat="50.783979" lon="3.840750">
        <ele>46.512473</ele>
        <time>2025-03-18T16:52:25.562Z</time>
      </trkpt>
      <trkpt lat="50.784267" lon="3.841320">
        <ele>45.962291</ele>
        <time>2025-03-18T16:52:30.658Z</time>
      </trkpt>
      <trkpt lat="50.784619" lon="3.841249">
        <ele>45.480156</ele>
        <time>2025-03-18T16:52:34.521Z</time>
      </trkpt>
      <trkpt lat="50.785157" lon="3.840630">
        <ele>44.197024</ele>
        <time>2025-03-18T16:52:41.622Z</time>
      </trkpt>
      <trkpt lat="50.785264" lon="3.840575">
        <ele>43.980028</ele>
        <time>2025-03-18T16:52:42.808Z</time>
      </trkpt>
      <trkpt lat="50.785339" lon="3.840618">
        <ele>43.826166</ele>
        <time>2025-03-18T16:52:43.654Z</time>
      </trkpt>
      <trkpt lat="50.785486" lon="3.840755">
        <ele>43.497091</ele>
        <time>2025-03-18T16:52:45.480Z</time>
      </trkpt>
      <trkpt lat="50.785622" lon="3.840822">
        <ele>43.222359</ele>
        <time>2025-03-18T16:52:47.030Z</time>
      </trkpt>
      <trkpt lat="50.785839" lon="3.840931">
        <ele>42.783233</ele>
        <time>2025-03-18T16:52:49.528Z</time>
      </trkpt>
      <trkpt lat="50.785983" lon="3.840940">
        <ele>42.505283</ele>
        <time>2025-03-18T16:52:51.138Z</time>
      </trkpt>
      <trkpt lat="50.786097" lon="3.840809">
        <ele>42.233513</ele>
        <time>2025-03-18T16:52:53.485Z</time>
      </trkpt>
      <trkpt lat="50.786158" lon="3.840745">
        <ele>42.198544</ele>
        <time>2025-03-18T16:52:54.731Z</time>
      </trkpt>
      <trkpt lat="50.786788" lon="3.840023">
        <ele>42.875479</ele>
        <time>2025-03-18T16:53:09.719Z</time>
      </trkpt>
      <trkpt lat="50.786910" lon="3.839915">
        <ele>42.997127</ele>
        <time>2025-03-18T16:53:13.217Z</time>
      </trkpt>
      <trkpt lat="50.787187" lon="3.839731">
        <ele>43.258540</ele>
        <time>2025-03-18T16:53:19.710Z</time>
      </trkpt>
      <trkpt lat="50.787256" lon="3.839704">
        <ele>43.320388</ele>
        <time>2025-03-18T16:53:21.307Z</time>
      </trkpt>
      <trkpt lat="50.787381" lon="3.839669">
        <ele>43.430844</ele>
        <time>2025-03-18T16:53:24.244Z</time>
      </trkpt>
      <trkpt lat="50.787877" lon="3.839506">
        <ele>43.943395</ele>
        <time>2025-03-18T16:53:39.937Z</time>
      </trkpt>
      <trkpt lat="50.788061" lon="3.839399">
        <ele>44.200731</ele>
        <time>2025-03-18T16:53:46.395Z</time>
      </trkpt>
      <trkpt lat="50.788275" lon="3.839250">
        <ele>44.507652</ele>
        <time>2025-03-18T16:53:54.017Z</time>
      </trkpt>
      <trkpt lat="50.788500" lon="3.839109">
        <ele>44.825337</ele>
        <time>2025-03-18T16:54:01.545Z</time>
      </trkpt>
      <trkpt lat="50.789282" lon="3.838688">
        <ele>45.909669</ele>
        <time>2025-03-18T16:54:21.139Z</time>
      </trkpt>
      <trkpt lat="50.790080" lon="3.838307">
        <ele>44.164618</ele>
        <time>2025-03-18T16:54:34.567Z</time>
      </trkpt>
      <trkpt lat="50.790123" lon="3.838261">
        <ele>44.020687</ele>
        <time>2025-03-18T16:54:35.332Z</time>
      </trkpt>
      <trkpt lat="50.790935" lon="3.838582">
        <ele>41.699994</ele>
        <time>2025-03-18T16:54:47.187Z</time>
      </trkpt>
      <trkpt lat="50.792070" lon="3.838732">
        <ele>37.575216</ele>
        <time>2025-03-18T16:55:03.134Z</time>
      </trkpt>
      <trkpt lat="50.792395" lon="3.838848">
        <ele>36.302899</ele>
        <time>2025-03-18T16:55:07.844Z</time>
      </trkpt>
      <trkpt lat="50.792763" lon="3.839101">
        <ele>34.770596</ele>
        <time>2025-03-18T16:55:13.571Z</time>
      </trkpt>
      <trkpt lat="50.793012" lon="3.839305">
        <ele>33.867690</ele>
        <time>2025-03-18T16:55:17.594Z</time>
      </trkpt>
      <trkpt lat="50.793403" lon="3.839696">
        <ele>32.654699</ele>
        <time>2025-03-18T16:55:24.317Z</time>
      </trkpt>
      <trkpt lat="50.793535" lon="3.839780">
        <ele>32.281600</ele>
        <time>2025-03-18T16:55:26.425Z</time>
      </trkpt>
      <trkpt lat="50.794107" lon="3.840052">
        <ele>30.715348</ele>
        <time>2025-03-18T16:55:35.477Z</time>
      </trkpt>
      <trkpt lat="50.794673" lon="3.840160">
        <ele>29.396549</ele>
        <time>2025-03-18T16:55:44.550Z</time>
      </trkpt>
      <trkpt lat="50.795131" lon="3.840523">
        <ele>28.845344</ele>
        <time>2025-03-18T16:55:53.158Z</time>
      </trkpt>
      <trkpt lat="50.796011" lon="3.841222">
        <ele>27.785797</ele>
        <time>2025-03-18T16:56:10.621Z</time>
      </trkpt>
      <trkpt lat="50.797125" lon="3.841603">
        <ele>27.841176</ele>
        <time>2025-03-18T16:56:31.222Z</time>
      </trkpt>
      <trkpt lat="50.797438" lon="3.841648">
        <ele>27.926158</ele>
        <time>2025-03-18T16:56:36.141Z</time>
      </trkpt>
      <trkpt lat="50.797742" lon="3.841303">
        <ele>28.027317</ele>
        <time>2025-03-18T16:56:43.208Z</time>
      </trkpt>
      <trkpt lat="50.797993" lon="3.841069">
        <ele>28.525828</ele>
        <time>2025-03-18T16:56:49.650Z</time>
      </trkpt>
      <trkpt lat="50.798203" lon="3.840959">
        <ele>29.283335</ele>
        <time>2025-03-18T16:56:55.224Z</time>
      </trkpt>
      <trkpt lat="50.798944" lon="3.840827">
        <ele>31.836833</ele>
        <time>2025-03-18T16:57:18.470Z</time>
      </trkpt>
      <trkpt lat="50.799503" lon="3.840578">
        <ele>33.825477</ele>
        <time>2025-03-18T16:57:37.018Z</time>
      </trkpt>
      <trkpt lat="50.799737" lon="3.840583">
        <ele>34.457872</ele>
        <time>2025-03-18T16:57:43.978Z</time>
      </trkpt>
      <trkpt lat="50.799806" lon="3.840638">
        <ele>34.609975</ele>
        <time>2025-03-18T16:57:46.200Z</time>
      </trkpt>
      <trkpt lat="50.799851" lon="3.840737">
        <ele>34.761706</ele>
        <time>2025-03-18T16:57:48.387Z</time>
      </trkpt>
      <trkpt lat="50.799943" lon="3.841293">
        <ele>35.476830</ele>
        <time>2025-03-18T16:57:58.095Z</time>
      </trkpt>
      <trkpt lat="50.800010" lon="3.841489">
        <ele>35.754090</ele>
        <time>2025-03-18T16:58:01.517Z</time>
      </trkpt>
      <trkpt lat="50.800461" lon="3.842191">
        <ele>36.999584</ele>
        <time>2025-03-18T16:58:14.325Z</time>
      </trkpt>
      <trkpt lat="50.800654" lon="3.842370">
        <ele>37.440003</ele>
        <time>2025-03-18T16:58:18.056Z</time>
      </trkpt>
      <trkpt lat="50.801148" lon="3.842637">
        <ele>37.840959</ele>
        <time>2025-03-18T16:58:26.594Z</time>
      </trkpt>
      <trkpt lat="50.801618" lon="3.842749">
        <ele>37.935784</ele>
        <time>2025-03-18T16:58:34.091Z</time>
      </trkpt>
      <trkpt lat="50.801542" lon="3.843124">
        <ele>37.985439</ele>
        <time>2025-03-18T16:58:39.285Z</time>
      </trkpt>
      <trkpt lat="50.801381" lon="3.843559">
        <ele>38.049001</ele>
        <time>2025-03-18T16:58:45.831Z</time>
      </trkpt>
      <trkpt lat="50.801303" lon="3.843863">
        <ele>38.090371</ele>
        <time>2025-03-18T16:58:50.069Z</time>
      </trkpt>
      <trkpt lat="50.801274" lon="3.844095">
        <ele>38.120190</ele>
        <time>2025-03-18T16:58:53.135Z</time>
      </trkpt>
      <trkpt lat="50.801283" lon="3.844375">
        <ele>38.018535</ele>
        <time>2025-03-18T16:58:56.773Z</time>
      </trkpt>
      <trkpt lat="50.801411" lon="3.845397">
        <ele>37.468643</ele>
        <time>2025-03-18T16:59:09.311Z</time>
      </trkpt>
      <trkpt lat="50.801505" lon="3.846143">
        <ele>37.067163</ele>
        <time>2025-03-18T16:59:17.611Z</time>
      </trkpt>
      <trkpt lat="50.801521" lon="3.846262">
        <ele>37.002951</ele>
        <time>2025-03-18T16:59:18.881Z</time>
      </trkpt>
      <trkpt lat="50.801593" lon="3.848170">
        <ele>35.547061</ele>
        <time>2025-03-18T16:59:38.547Z</time>
      </trkpt>
      <trkpt lat="50.801674" lon="3.849548">
        <ele>34.300695</ele>
        <time>2025-03-18T16:59:53.246Z</time>
      </trkpt>
      <trkpt lat="50.801712" lon="3.849867">
        <ele>33.995553</ele>
        <time>2025-03-18T16:59:56.811Z</time>
      </trkpt>
      <trkpt lat="50.802375" lon="3.851984">
        <ele>31.379199</ele>
        <time>2025-03-18T17:00:21.405Z</time>
      </trkpt>
      <trkpt lat="50.802406" lon="3.852081">
        <ele>31.258832</ele>
        <time>2025-03-18T17:00:22.445Z</time>
      </trkpt>
      <trkpt lat="50.802587" lon="3.852578">
        <ele>30.587236</ele>
        <time>2025-03-18T17:00:27.839Z</time>
      </trkpt>
      <trkpt lat="50.802846" lon="3.853084">
        <ele>29.775349</ele>
        <time>2025-03-18T17:00:33.875Z</time>
      </trkpt>
      <trkpt lat="50.803249" lon="3.854047">
        <ele>28.335245</ele>
        <time>2025-03-18T17:00:44.751Z</time>
      </trkpt>
      <trkpt lat="50.803446" lon="3.854520">
        <ele>27.628932</ele>
        <time>2025-03-18T17:00:50.677Z</time>
      </trkpt>
      <trkpt lat="50.803640" lon="3.854783">
        <ele>27.754328</ele>
        <time>2025-03-18T17:00:55.640Z</time>
      </trkpt>
      <trkpt lat="50.804025" lon="3.855078">
        <ele>29.132378</ele>
        <time>2025-03-18T17:01:04.291Z</time>
      </trkpt>
      <trkpt lat="50.804434" lon="3.855405">
        <ele>30.608616</ele>
        <time>2025-03-18T17:01:17.088Z</time>
      </trkpt>
      <trkpt lat="50.804521" lon="3.855513">
        <ele>30.964844</ele>
        <time>2025-03-18T17:01:20.655Z</time>
      </trkpt>
      <trkpt lat="50.804752" lon="3.856084">
        <ele>32.345127</ele>
        <time>2025-03-18T17:01:36.004Z</time>
      </trkpt>
      <trkpt lat="50.804817" lon="3.856203">
        <ele>32.665349</ele>
        <time>2025-03-18T17:01:39.906Z</time>
      </trkpt>
      <trkpt lat="50.804990" lon="3.856391">
        <ele>33.466512</ele>
        <time>2025-03-18T17:01:48.346Z</time>
      </trkpt>
      <trkpt lat="50.806919" lon="3.856975">
        <ele>43.344412</ele>
        <time>2025-03-18T17:03:01.869Z</time>
      </trkpt>
      <trkpt lat="50.806795" lon="3.856671">
        <ele>43.790970</ele>
        <time>2025-03-18T17:03:07.588Z</time>
      </trkpt>
      <trkpt lat="50.806701" lon="3.856245">
        <ele>44.347858</ele>
        <time>2025-03-18T17:03:14.057Z</time>
      </trkpt>
      <trkpt lat="50.806689" lon="3.856091">
        <ele>44.539361</ele>
        <time>2025-03-18T17:03:16.167Z</time>
      </trkpt>
      <trkpt lat="50.806705" lon="3.855751">
        <ele>44.960143</ele>
        <time>2025-03-18T17:03:20.227Z</time>
      </trkpt>
      <trkpt lat="50.806732" lon="3.855605">
        <ele>45.147890</ele>
        <time>2025-03-18T17:03:21.941Z</time>
      </trkpt>
      <trkpt lat="50.807187" lon="3.854239">
        <ele>46.631981</ele>
        <time>2025-03-18T17:03:37.556Z</time>
      </trkpt>
      <trkpt lat="50.808021" lon="3.851763">
        <ele>48.144289</ele>
        <time>2025-03-18T17:04:08.558Z</time>
      </trkpt>
      <trkpt lat="50.808046" lon="3.851594">
        <ele>48.350186</ele>
        <time>2025-03-18T17:04:10.829Z</time>
      </trkpt>
      <trkpt lat="50.808055" lon="3.850828">
        <ele>49.259014</ele>
        <time>2025-03-18T17:04:21.458Z</time>
      </trkpt>
      <trkpt lat="50.808152" lon="3.849976">
        <ele>50.285974</ele>
        <time>2025-03-18T17:04:34.833Z</time>
      </trkpt>
      <trkpt lat="50.808196" lon="3.848903">
        <ele>51.217526</ele>
        <time>2025-03-18T17:04:52.438Z</time>
      </trkpt>
      <trkpt lat="50.808210" lon="3.848011">
        <ele>51.667789</ele>
        <time>2025-03-18T17:05:05.178Z</time>
      </trkpt>
      <trkpt lat="50.808102" lon="3.847223">
        <ele>52.074677</ele>
        <time>2025-03-18T17:05:13.150Z</time>
      </trkpt>
      <trkpt lat="50.808085" lon="3.846762">
        <ele>52.307704</ele>
        <time>2025-03-18T17:05:16.796Z</time>
      </trkpt>
      <trkpt lat="50.808077" lon="3.846583">
        <ele>52.398258</ele>
        <time>2025-03-18T17:05:18.139Z</time>
      </trkpt>
      <trkpt lat="50.808047" lon="3.846180">
        <ele>51.999104</ele>
        <time>2025-03-18T17:05:21.030Z</time>
      </trkpt>
      <trkpt lat="50.808085" lon="3.845506">
        <ele>51.328857</ele>
        <time>2025-03-18T17:05:25.648Z</time>
      </trkpt>
      <trkpt lat="50.808148" lon="3.844616">
        <ele>50.441802</ele>
        <time>2025-03-18T17:05:31.729Z</time>
      </trkpt>
      <trkpt lat="50.808131" lon="3.844010">
        <ele>49.840970</ele>
        <time>2025-03-18T17:05:36.118Z</time>
      </trkpt>
      <trkpt lat="50.808163" lon="3.843882">
        <ele>49.704626</ele>
        <time>2025-03-18T17:05:37.205Z</time>
      </trkpt>
      <trkpt lat="50.808745" lon="3.842562">
        <ele>49.570556</ele>
        <time>2025-03-18T17:05:51.250Z</time>
      </trkpt>
      <trkpt lat="50.808891" lon="3.842299">
        <ele>49.568345</ele>
        <time>2025-03-18T17:05:54.714Z</time>
      </trkpt>
      <trkpt lat="50.809013" lon="3.842141">
        <ele>49.566769</ele>
        <time>2025-03-18T17:05:57.250Z</time>
      </trkpt>
      <trkpt lat="50.809450" lon="3.841811">
        <ele>49.564035</ele>
        <time>2025-03-18T17:06:05.570Z</time>
      </trkpt>
      <trkpt lat="50.809650" lon="3.841514">
        <ele>49.855054</ele>
        <time>2025-03-18T17:06:10.668Z</time>
      </trkpt>
      <trkpt lat="50.809788" lon="3.841013">
        <ele>50.221500</ele>
        <time>2025-03-18T17:06:17.484Z</time>
      </trkpt>
      <trkpt lat="50.810016" lon="3.839032">
        <ele>51.492992</ele>
        <time>2025-03-18T17:06:42.833Z</time>
      </trkpt>
      <trkpt lat="50.810043" lon="3.837812">
        <ele>51.675354</ele>
        <time>2025-03-18T17:06:56.121Z</time>
      </trkpt>
      <trkpt lat="50.810113" lon="3.837155">
        <ele>51.774885</ele>
        <time>2025-03-18T17:07:02.330Z</time>
      </trkpt>
      <trkpt lat="50.810159" lon="3.836956">
        <ele>51.806539</ele>
        <time>2025-03-18T17:07:04.178Z</time>
      </trkpt>
      <trkpt lat="50.810266" lon="3.836750">
        <ele>51.846375</ele>
        <time>2025-03-18T17:07:06.467Z</time>
      </trkpt>
      <trkpt lat="50.810595" lon="3.836359">
        <ele>51.637026</ele>
        <time>2025-03-18T17:07:11.953Z</time>
      </trkpt>
      <trkpt lat="50.811249" lon="3.835425">
        <ele>50.514145</ele>
        <time>2025-03-18T17:07:22.668Z</time>
      </trkpt>
      <trkpt lat="50.811448" lon="3.835046">
        <ele>50.117251</ele>
        <time>2025-03-18T17:07:26.139Z</time>
      </trkpt>
      <trkpt lat="50.811869" lon="3.834056">
        <ele>49.106931</ele>
        <time>2025-03-18T17:07:34.429Z</time>
      </trkpt>
      <trkpt lat="50.811951" lon="3.833811">
        <ele>48.859052</ele>
        <time>2025-03-18T17:07:36.376Z</time>
      </trkpt>
      <trkpt lat="50.812051" lon="3.833322">
        <ele>48.399525</ele>
        <time>2025-03-18T17:07:40.029Z</time>
      </trkpt>
      <trkpt lat="50.812246" lon="3.831697">
        <ele>47.012862</ele>
        <time>2025-03-18T17:07:52.486Z</time>
      </trkpt>
      <trkpt lat="50.812272" lon="3.831387">
        <ele>46.920960</ele>
        <time>2025-03-18T17:07:55.172Z</time>
      </trkpt>
      <trkpt lat="50.812298" lon="3.831076">
        <ele>46.828766</ele>
        <time>2025-03-18T17:07:57.981Z</time>
      </trkpt>
      <trkpt lat="50.812331" lon="3.830704">
        <ele>46.718370</ele>
        <time>2025-03-18T17:08:01.327Z</time>
      </trkpt>
      <trkpt lat="50.812574" lon="3.829774">
        <ele>46.422614</ele>
        <time>2025-03-18T17:08:09.798Z</time>
      </trkpt>
      <trkpt lat="50.812635" lon="3.829377">
        <ele>46.302543</ele>
        <time>2025-03-18T17:08:13.313Z</time>
      </trkpt>
      <trkpt lat="50.812728" lon="3.828824">
        <ele>46.293318</ele>
        <time>2025-03-18T17:08:18.398Z</time>
      </trkpt>
      <trkpt lat="50.812872" lon="3.828311">
        <ele>46.429522</ele>
        <time>2025-03-18T17:08:23.359Z</time>
      </trkpt>
      <trkpt lat="50.812960" lon="3.827805">
        <ele>46.556863</ele>
        <time>2025-03-18T17:08:28.023Z</time>
      </trkpt>
      <trkpt lat="50.813113" lon="3.826323">
        <ele>46.971656</ele>
        <time>2025-03-18T17:08:44.594Z</time>
      </trkpt>
      <trkpt lat="50.813165" lon="3.826079">
        <ele>47.380822</ele>
        <time>2025-03-18T17:08:48.160Z</time>
      </trkpt>
      <trkpt lat="50.813192" lon="3.825998">
        <ele>47.526340</ele>
        <time>2025-03-18T17:08:49.465Z</time>
      </trkpt>
      <trkpt lat="50.813375" lon="3.825753">
        <ele>48.129115</ele>
        <time>2025-03-18T17:08:55.046Z</time>
      </trkpt>
      <trkpt lat="50.814210" lon="3.825341">
        <ele>50.328629</ele>
        <time>2025-03-18T17:09:18.381Z</time>
      </trkpt>
      <trkpt lat="50.815063" lon="3.824995">
        <ele>52.555188</ele>
        <time>2025-03-18T17:09:42.093Z</time>
      </trkpt>
      <trkpt lat="50.815127" lon="3.824993">
        <ele>52.717927</ele>
        <time>2025-03-18T17:09:43.773Z</time>
      </trkpt>
      <trkpt lat="50.815145" lon="3.825119">
        <ele>52.925429</ele>
        <time>2025-03-18T17:09:46.283Z</time>
      </trkpt>
      <trkpt lat="50.815389" lon="3.824972">
        <ele>53.589173</ele>
        <time>2025-03-18T17:09:52.906Z</time>
      </trkpt>
      <trkpt lat="50.815478" lon="3.824862">
        <ele>53.876254</ele>
        <time>2025-03-18T17:09:55.749Z</time>
      </trkpt>
      <trkpt lat="50.815756" lon="3.824378">
        <ele>54.926931</ele>
        <time>2025-03-18T17:10:05.737Z</time>
      </trkpt>
      <trkpt lat="50.816509" lon="3.823860">
        <ele>56.114063</ele>
        <time>2025-03-18T17:10:25.282Z</time>
      </trkpt>
      <trkpt lat="50.816635" lon="3.823636">
        <ele>56.164832</ele>
        <time>2025-03-18T17:10:29.423Z</time>
      </trkpt>
      <trkpt lat="50.816916" lon="3.822971">
        <ele>56.300257</ele>
        <time>2025-03-18T17:10:37.829Z</time>
      </trkpt>
      <trkpt lat="50.817109" lon="3.822683">
        <ele>56.371324</ele>
        <time>2025-03-18T17:10:41.444Z</time>
      </trkpt>
      <trkpt lat="50.817206" lon="3.822645">
        <ele>56.398097</ele>
        <time>2025-03-18T17:10:42.724Z</time>
      </trkpt>
      <trkpt lat="50.817264" lon="3.822658">
        <ele>56.413792</ele>
        <time>2025-03-18T17:10:43.424Z</time>
      </trkpt>
      <trkpt lat="50.817358" lon="3.822697">
        <ele>56.439828</ele>
        <time>2025-03-18T17:10:44.612Z</time>
      </trkpt>
      <trkpt lat="50.817509" lon="3.822894">
        <ele>56.462784</ele>
        <time>2025-03-18T17:10:46.835Z</time>
      </trkpt>
      <trkpt lat="50.817562" lon="3.822961">
        <ele>56.251854</ele>
        <time>2025-03-18T17:10:47.569Z</time>
      </trkpt>
      <trkpt lat="50.817659" lon="3.823050">
        <ele>55.903194</ele>
        <time>2025-03-18T17:10:48.759Z</time>
      </trkpt>
      <trkpt lat="50.817730" lon="3.823128">
        <ele>55.634433</ele>
        <time>2025-03-18T17:10:49.694Z</time>
      </trkpt>
      <trkpt lat="50.817945" lon="3.823200">
        <ele>54.951043</ele>
        <time>2025-03-18T17:10:51.924Z</time>
      </trkpt>
      <trkpt lat="50.818229" lon="3.823147">
        <ele>54.061766</ele>
        <time>2025-03-18T17:10:54.755Z</time>
      </trkpt>
      <trkpt lat="50.819636" lon="3.821928">
        <ele>49.394964</ele>
        <time>2025-03-18T17:11:10.728Z</time>
      </trkpt>
      <trkpt lat="50.819911" lon="3.821761">
        <ele>48.640377</ele>
        <time>2025-03-18T17:11:13.722Z</time>
      </trkpt>
      <trkpt lat="50.820204" lon="3.821652">
        <ele>47.869293</ele>
        <time>2025-03-18T17:11:16.859Z</time>
      </trkpt>
      <trkpt lat="50.820596" lon="3.821596">
        <ele>46.860954</ele>
        <time>2025-03-18T17:11:21.109Z</time>
      </trkpt>
      <trkpt lat="50.822098" lon="3.821612">
        <ele>45.674597</ele>
        <time>2025-03-18T17:11:40.591Z</time>
      </trkpt>
      <trkpt lat="50.823116" lon="3.821629">
        <ele>45.297940</ele>
        <time>2025-03-18T17:11:56.619Z</time>
      </trkpt>
      <trkpt lat="50.823223" lon="3.821672">
        <ele>45.269810</ele>
        <time>2025-03-18T17:11:58.325Z</time>
      </trkpt>
      <trkpt lat="50.823439" lon="3.821795">
        <ele>45.211318</ele>
        <time>2025-03-18T17:12:01.736Z</time>
      </trkpt>
      <trkpt lat="50.823705" lon="3.822070">
        <ele>45.130363</ele>
        <time>2025-03-18T17:12:06.169Z</time>
      </trkpt>
      <trkpt lat="50.823927" lon="3.822458">
        <ele>45.046098</ele>
        <time>2025-03-18T17:12:10.466Z</time>
      </trkpt>
      <trkpt lat="50.824019" lon="3.822729">
        <ele>44.996575</ele>
        <time>2025-03-18T17:12:12.876Z</time>
      </trkpt>
      <trkpt lat="50.824075" lon="3.822956">
        <ele>44.944907</ele>
        <time>2025-03-18T17:12:14.784Z</time>
      </trkpt>
      <trkpt lat="50.824120" lon="3.823321">
        <ele>44.804030</ele>
        <time>2025-03-18T17:12:17.774Z</time>
      </trkpt>
      <trkpt lat="50.824135" lon="3.823466">
        <ele>44.748370</ele>
        <time>2025-03-18T17:12:18.966Z</time>
      </trkpt>
      <trkpt lat="50.824427" lon="3.826462">
        <ele>43.610316</ele>
        <time>2025-03-18T17:12:44.103Z</time>
      </trkpt>
      <trkpt lat="50.824505" lon="3.826959">
        <ele>43.423263</ele>
        <time>2025-03-18T17:12:48.498Z</time>
      </trkpt>
      <trkpt lat="50.824583" lon="3.827177">
        <ele>43.331750</ele>
        <time>2025-03-18T17:12:50.594Z</time>
      </trkpt>
      <trkpt lat="50.824675" lon="3.827357">
        <ele>43.247178</ele>
        <time>2025-03-18T17:12:52.506Z</time>
      </trkpt>
      <trkpt lat="50.824800" lon="3.827526">
        <ele>43.152128</ele>
        <time>2025-03-18T17:12:54.635Z</time>
      </trkpt>
      <trkpt lat="50.825040" lon="3.827717">
        <ele>42.996807</ele>
        <time>2025-03-18T17:12:58.102Z</time>
      </trkpt>
      <trkpt lat="50.825124" lon="3.827962">
        <ele>42.894988</ele>
        <time>2025-03-18T17:13:01.268Z</time>
      </trkpt>
      <trkpt lat="50.825091" lon="3.828252">
        <ele>42.729266</ele>
        <time>2025-03-18T17:13:04.579Z</time>
      </trkpt>
      <trkpt lat="50.824808" lon="3.828666">
        <ele>42.292779</ele>
        <time>2025-03-18T17:13:11.333Z</time>
      </trkpt>
      <trkpt lat="50.824766" lon="3.828746">
        <ele>42.218346</ele>
        <time>2025-03-18T17:13:12.456Z</time>
      </trkpt>
      <trkpt lat="50.824653" lon="3.829023">
        <ele>41.982399</ele>
        <time>2025-03-18T17:13:15.992Z</time>
      </trkpt>
      <trkpt lat="50.824581" lon="3.829408">
        <ele>41.695092</ele>
        <time>2025-03-18T17:13:20.191Z</time>
      </trkpt>
      <trkpt lat="50.824407" lon="3.831635">
        <ele>39.983744</ele>
        <time>2025-03-18T17:13:44.119Z</time>
      </trkpt>
      <trkpt lat="50.824385" lon="3.832189">
        <ele>39.528342</ele>
        <time>2025-03-18T17:13:50.076Z</time>
      </trkpt>
      <trkpt lat="50.824390" lon="3.833957">
        <ele>38.079186</ele>
        <time>2025-03-18T17:14:08.712Z</time>
      </trkpt>
      <trkpt lat="50.824326" lon="3.834475">
        <ele>37.647621</ele>
        <time>2025-03-18T17:14:14.117Z</time>
      </trkpt>
      <trkpt lat="50.824272" lon="3.834710">
        <ele>37.443156</ele>
        <time>2025-03-18T17:14:16.673Z</time>
      </trkpt>
      <trkpt lat="50.823917" lon="3.836121">
        <ele>36.201314</ele>
        <time>2025-03-18T17:14:32.671Z</time>
      </trkpt>
      <trkpt lat="50.823872" lon="3.836355">
        <ele>36.239086</ele>
        <time>2025-03-18T17:14:35.429Z</time>
      </trkpt>
      <trkpt lat="50.823860" lon="3.836568">
        <ele>36.350620</ele>
        <time>2025-03-18T17:14:37.934Z</time>
      </trkpt>
      <trkpt lat="50.823922" lon="3.837243">
        <ele>36.706378</ele>
        <time>2025-03-18T17:14:46.355Z</time>
      </trkpt>
      <trkpt lat="50.824452" lon="3.839456">
        <ele>39.462278</ele>
        <time>2025-03-18T17:15:25.794Z</time>
      </trkpt>
      <trkpt lat="50.824557" lon="3.840036">
        <ele>41.325267</ele>
        <time>2025-03-18T17:15:39.882Z</time>
      </trkpt>
      <trkpt lat="50.824639" lon="3.840030">
        <ele>41.726512</ele>
        <time>2025-03-18T17:15:43.137Z</time>
      </trkpt>
      <trkpt lat="50.824703" lon="3.840102">
        <ele>42.110296</ele>
        <time>2025-03-18T17:15:46.344Z</time>
      </trkpt>
      <trkpt lat="50.825830" lon="3.842020">
        <ele>50.712196</ele>
        <time>2025-03-18T17:17:05.020Z</time>
      </trkpt>
      <trkpt lat="50.825963" lon="3.842238">
        <ele>51.775322</ele>
        <time>2025-03-18T17:17:13.725Z</time>
      </trkpt>
      <trkpt lat="50.826063" lon="3.842348">
        <ele>52.451528</ele>
        <time>2025-03-18T17:17:19.118Z</time>
      </trkpt>
      <trkpt lat="50.826223" lon="3.842467">
        <ele>53.433195</ele>
        <time>2025-03-18T17:17:26.702Z</time>
      </trkpt>
      <trkpt lat="50.826384" lon="3.842513">
        <ele>54.341689</ele>
        <time>2025-03-18T17:17:33.326Z</time>
      </trkpt>
      <trkpt lat="50.826864" lon="3.842986">
        <ele>56.783464</ele>
        <time>2025-03-18T17:17:53.108Z</time>
      </trkpt>
      <trkpt lat="50.827113" lon="3.843150">
        <ele>57.304242</ele>
        <time>2025-03-18T17:18:00.893Z</time>
      </trkpt>
      <trkpt lat="50.827199" lon="3.843300">
        <ele>57.551334</ele>
        <time>2025-03-18T17:18:04.294Z</time>
      </trkpt>
      <trkpt lat="50.827304" lon="3.843823">
        <ele>58.220713</ele>
        <time>2025-03-18T17:18:13.081Z</time>
      </trkpt>
      <trkpt lat="50.827423" lon="3.844099">
        <ele>58.628315</ele>
        <time>2025-03-18T17:18:18.323Z</time>
      </trkpt>
      <trkpt lat="50.827943" lon="3.844692">
        <ele>59.865837</ele>
        <time>2025-03-18T17:18:33.839Z</time>
      </trkpt>
      <trkpt lat="50.828089" lon="3.844797">
        <ele>60.362759</ele>
        <time>2025-03-18T17:18:38.050Z</time>
      </trkpt>
      <trkpt lat="50.828164" lon="3.844618">
        <ele>60.793434</ele>
        <time>2025-03-18T17:18:41.827Z</time>
      </trkpt>
      <trkpt lat="50.828623" lon="3.843867">
        <ele>62.888675</ele>
        <time>2025-03-18T17:19:02.421Z</time>
      </trkpt>
      <trkpt lat="50.829050" lon="3.843170">
        <ele>64.835467</ele>
        <time>2025-03-18T17:19:24.742Z</time>
      </trkpt>
      <trkpt lat="50.830180" lon="3.841327">
        <ele>71.578175</ele>
        <time>2025-03-18T17:20:27.847Z</time>
      </trkpt>
      <trkpt lat="50.830287" lon="3.841107">
        <ele>72.336821</ele>
        <time>2025-03-18T17:20:34.193Z</time>
      </trkpt>
      <trkpt lat="50.830452" lon="3.840605">
        <ele>73.698355</ele>
        <time>2025-03-18T17:20:46.823Z</time>
      </trkpt>
      <trkpt lat="50.830812" lon="3.839410">
        <ele>76.002488</ele>
        <time>2025-03-18T17:21:13.660Z</time>
      </trkpt>
      <trkpt lat="50.830869" lon="3.839289">
        <ele>76.265185</ele>
        <time>2025-03-18T17:21:16.645Z</time>
      </trkpt>
      <trkpt lat="50.831301" lon="3.838586">
        <ele>77.972126</ele>
        <time>2025-03-18T17:21:35.627Z</time>
      </trkpt>
      <trkpt lat="50.831416" lon="3.838453">
        <ele>78.326962</ele>
        <time>2025-03-18T17:21:39.509Z</time>
      </trkpt>
      <trkpt lat="50.831524" lon="3.838384">
        <ele>78.295678</ele>
        <time>2025-03-18T17:21:42.536Z</time>
      </trkpt>
      <trkpt lat="50.831581" lon="3.838385">
        <ele>78.280367</ele>
        <time>2025-03-18T17:21:44.008Z</time>
      </trkpt>
      <trkpt lat="50.831914" lon="3.838599">
        <ele>78.183830</ele>
        <time>2025-03-18T17:21:52.735Z</time>
      </trkpt>
      <trkpt lat="50.832058" lon="3.838677">
        <ele>78.142949</ele>
        <time>2025-03-18T17:21:56.058Z</time>
      </trkpt>
      <trkpt lat="50.832121" lon="3.838699">
        <ele>78.125620</ele>
        <time>2025-03-18T17:21:57.354Z</time>
      </trkpt>
      <trkpt lat="50.832289" lon="3.838715">
        <ele>78.080411</ele>
        <time>2025-03-18T17:22:00.642Z</time>
      </trkpt>
      <trkpt lat="50.832605" lon="3.838655">
        <ele>77.994921</ele>
        <time>2025-03-18T17:22:06.423Z</time>
      </trkpt>
      <trkpt lat="50.832925" lon="3.838758">
        <ele>77.907206</ele>
        <time>2025-03-18T17:22:11.768Z</time>
      </trkpt>
      <trkpt lat="50.835123" lon="3.839566">
        <ele>74.036809</ele>
        <time>2025-03-18T17:22:45.817Z</time>
      </trkpt>
      <trkpt lat="50.835910" lon="3.839842">
        <ele>75.160263</ele>
        <time>2025-03-18T17:23:04.156Z</time>
      </trkpt>
      <trkpt lat="50.836307" lon="3.839824">
        <ele>75.713805</ele>
        <time>2025-03-18T17:23:17.264Z</time>
      </trkpt>
      <trkpt lat="50.836548" lon="3.839718">
        <ele>76.062413</ele>
        <time>2025-03-18T17:23:26.469Z</time>
      </trkpt>
      <trkpt lat="50.836755" lon="3.839575">
        <ele>76.722944</ele>
        <time>2025-03-18T17:23:35.139Z</time>
      </trkpt>
      <trkpt lat="50.836937" lon="3.839367">
        <ele>77.711640</ele>
        <time>2025-03-18T17:23:43.886Z</time>
      </trkpt>
      <trkpt lat="50.837502" lon="3.838563">
        <ele>81.057729</ele>
        <time>2025-03-18T17:24:14.313Z</time>
      </trkpt>
      <trkpt lat="50.837726" lon="3.838308">
        <ele>82.272953</ele>
        <time>2025-03-18T17:24:25.302Z</time>
      </trkpt>
      <trkpt lat="50.837818" lon="3.838279">
        <ele>82.686157</ele>
        <time>2025-03-18T17:24:28.907Z</time>
      </trkpt>
      <trkpt lat="50.837970" lon="3.838202">
        <ele>83.389132</ele>
        <time>2025-03-18T17:24:34.861Z</time>
      </trkpt>
      <trkpt lat="50.838195" lon="3.837935">
        <ele>84.400453</ele>
        <time>2025-03-18T17:24:44.849Z</time>
      </trkpt>
      <trkpt lat="50.838320" lon="3.837874">
        <ele>84.708173</ele>
        <time>2025-03-18T17:24:49.260Z</time>
      </trkpt>
      <trkpt lat="50.838906" lon="3.836723">
        <ele>86.904689</ele>
        <time>2025-03-18T17:25:12.352Z</time>
      </trkpt>
      <trkpt lat="50.839017" lon="3.836421">
        <ele>87.423819</ele>
        <time>2025-03-18T17:25:17.067Z</time>
      </trkpt>
      <trkpt lat="50.839276" lon="3.835502">
        <ele>88.554758</ele>
        <time>2025-03-18T17:25:29.476Z</time>
      </trkpt>
      <trkpt lat="50.839756" lon="3.833978">
        <ele>89.401863</ele>
        <time>2025-03-18T17:25:49.478Z</time>
      </trkpt>
      <trkpt lat="50.840088" lon="3.833123">
        <ele>89.743799</ele>
        <time>2025-03-18T17:25:59.560Z</time>
      </trkpt>
      <trkpt lat="50.840234" lon="3.832807">
        <ele>89.667225</ele>
        <time>2025-03-18T17:26:03.229Z</time>
      </trkpt>
      <trkpt lat="50.840744" lon="3.831629">
        <ele>89.387904</ele>
        <time>2025-03-18T17:26:15.571Z</time>
      </trkpt>
      <trkpt lat="50.841362" lon="3.830136">
        <ele>88.824068</ele>
        <time>2025-03-18T17:26:29.960Z</time>
      </trkpt>
      <trkpt lat="50.841432" lon="3.829762">
        <ele>88.662636</ele>
        <time>2025-03-18T17:26:33.362Z</time>
      </trkpt>
      <trkpt lat="50.841492" lon="3.828937">
        <ele>88.318961</ele>
        <time>2025-03-18T17:26:40.351Z</time>
      </trkpt>
      <trkpt lat="50.841574" lon="3.828569">
        <ele>88.157465</ele>
        <time>2025-03-18T17:26:43.473Z</time>
      </trkpt>
      <trkpt lat="50.841714" lon="3.828247">
        <ele>87.942105</ele>
        <time>2025-03-18T17:26:46.546Z</time>
      </trkpt>
      <trkpt lat="50.841835" lon="3.828082">
        <ele>87.738632</ele>
        <time>2025-03-18T17:26:48.489Z</time>
      </trkpt>
      <trkpt lat="50.842504" lon="3.827514">
        <ele>86.771353</ele>
        <time>2025-03-18T17:26:57.387Z</time>
      </trkpt>
      <trkpt lat="50.842709" lon="3.827331">
        <ele>86.471483</ele>
        <time>2025-03-18T17:27:01.226Z</time>
      </trkpt>
      <trkpt lat="50.843249" lon="3.826688">
        <ele>85.636011</ele>
        <time>2025-03-18T17:27:12.334Z</time>
      </trkpt>
      <trkpt lat="50.844401" lon="3.825454">
        <ele>84.164673</ele>
        <time>2025-03-18T17:27:36.412Z</time>
      </trkpt>
      <trkpt lat="50.844723" lon="3.825110">
        <ele>83.770300</ele>
        <time>2025-03-18T17:27:43.245Z</time>
      </trkpt>
      <trkpt lat="50.844892" lon="3.825368">
        <ele>83.561522</ele>
        <time>2025-03-18T17:27:47.362Z</time>
      </trkpt>
      <trkpt lat="50.845132" lon="3.825583">
        <ele>83.316278</ele>
        <time>2025-03-18T17:27:52.214Z</time>
      </trkpt>
      <trkpt lat="50.845270" lon="3.825659">
        <ele>83.186328</ele>
        <time>2025-03-18T17:27:54.750Z</time>
      </trkpt>
      <trkpt lat="50.845539" lon="3.825736">
        <ele>82.943197</ele>
        <time>2025-03-18T17:27:59.513Z</time>
      </trkpt>
      <trkpt lat="50.845867" lon="3.825696">
        <ele>82.650603</ele>
        <time>2025-03-18T17:28:05.204Z</time>
      </trkpt>
      <trkpt lat="50.846550" lon="3.825343">
        <ele>82.140543</ele>
        <time>2025-03-18T17:28:18.084Z</time>
      </trkpt>
      <trkpt lat="50.846848" lon="3.825131">
        <ele>82.002132</ele>
        <time>2025-03-18T17:28:24.114Z</time>
      </trkpt>
      <trkpt lat="50.847143" lon="3.824841">
        <ele>81.855025</ele>
        <time>2025-03-18T17:28:30.591Z</time>
      </trkpt>
      <trkpt lat="50.847373" lon="3.824551">
        <ele>81.730468</ele>
        <time>2025-03-18T17:28:36.092Z</time>
      </trkpt>
      <trkpt lat="50.847975" lon="3.823651">
        <ele>81.426407</ele>
        <time>2025-03-18T17:28:52.143Z</time>
      </trkpt>
      <trkpt lat="50.848374" lon="3.823186">
        <ele>81.300942</ele>
        <time>2025-03-18T17:29:02.335Z</time>
      </trkpt>
      <trkpt lat="50.848449" lon="3.823109">
        <ele>81.278305</ele>
        <time>2025-03-18T17:29:04.121Z</time>
      </trkpt>
      <trkpt lat="50.848202" lon="3.822542">
        <ele>81.168148</ele>
        <time>2025-03-18T17:29:12.659Z</time>
      </trkpt>
      <trkpt lat="50.848104" lon="3.822251">
        <ele>81.115408</ele>
        <time>2025-03-18T17:29:16.612Z</time>
      </trkpt>
      <trkpt lat="50.848024" lon="3.821664">
        <ele>80.973058</ele>
        <time>2025-03-18T17:29:23.661Z</time>
      </trkpt>
      <trkpt lat="50.848026" lon="3.820883">
        <ele>80.570811</ele>
        <time>2025-03-18T17:29:32.508Z</time>
      </trkpt>
      <trkpt lat="50.848077" lon="3.820559">
        <ele>80.398832</ele>
        <time>2025-03-18T17:29:36.096Z</time>
      </trkpt>
      <trkpt lat="50.848130" lon="3.820412">
        <ele>80.311647</ele>
        <time>2025-03-18T17:29:37.888Z</time>
      </trkpt>
      <trkpt lat="50.848299" lon="3.820187">
        <ele>80.131553</ele>
        <time>2025-03-18T17:29:41.612Z</time>
      </trkpt>
      <trkpt lat="50.848662" lon="3.819968">
        <ele>79.814688</ele>
        <time>2025-03-18T17:29:48.247Z</time>
      </trkpt>
      <trkpt lat="50.848969" lon="3.819702">
        <ele>79.571544</ele>
        <time>2025-03-18T17:29:54.502Z</time>
      </trkpt>
      <trkpt lat="50.849120" lon="3.819522">
        <ele>79.566327</ele>
        <time>2025-03-18T17:29:58.070Z</time>
      </trkpt>
      <trkpt lat="50.849462" lon="3.818946">
        <ele>79.552546</ele>
        <time>2025-03-18T17:30:08.222Z</time>
      </trkpt>
      <trkpt lat="50.849917" lon="3.818135">
        <ele>79.533636</ele>
        <time>2025-03-18T17:30:23.216Z</time>
      </trkpt>
      <trkpt lat="50.850398" lon="3.817278">
        <ele>79.391327</ele>
        <time>2025-03-18T17:30:37.752Z</time>
      </trkpt>
      <trkpt lat="50.850650" lon="3.816813">
        <ele>79.246265</ele>
        <time>2025-03-18T17:30:44.996Z</time>
      </trkpt>
      <trkpt lat="50.850769" lon="3.816541">
        <ele>79.167930</ele>
        <time>2025-03-18T17:30:48.876Z</time>
      </trkpt>
      <trkpt lat="50.850843" lon="3.816249">
        <ele>79.093449</ele>
        <time>2025-03-18T17:30:52.520Z</time>
      </trkpt>
      <trkpt lat="50.850916" lon="3.815778">
        <ele>78.978647</ele>
        <time>2025-03-18T17:30:58.099Z</time>
      </trkpt>
      <trkpt lat="50.850995" lon="3.815488">
        <ele>78.903883</ele>
        <time>2025-03-18T17:31:01.693Z</time>
      </trkpt>
      <trkpt lat="50.851385" lon="3.814395">
        <ele>78.535194</ele>
        <time>2025-03-18T17:31:16.912Z</time>
      </trkpt>
      <trkpt lat="50.851553" lon="3.813828">
        <ele>78.343183</ele>
        <time>2025-03-18T17:31:24.600Z</time>
      </trkpt>
      <trkpt lat="50.851716" lon="3.813275">
        <ele>78.156089</ele>
        <time>2025-03-18T17:31:31.811Z</time>
      </trkpt>
      <trkpt lat="50.852192" lon="3.811995">
        <ele>77.360249</ele>
        <time>2025-03-18T17:31:48.170Z</time>
      </trkpt>
      <trkpt lat="50.852265" lon="3.811210">
        <ele>76.815816</ele>
        <time>2025-03-18T17:31:54.106Z</time>
      </trkpt>
      <trkpt lat="50.852371" lon="3.810811">
        <ele>76.518794</ele>
        <time>2025-03-18T17:31:57.353Z</time>
      </trkpt>
      <trkpt lat="50.852575" lon="3.809843">
        <ele>75.846474</ele>
        <time>2025-03-18T17:32:05.068Z</time>
      </trkpt>
      <trkpt lat="50.852836" lon="3.808965">
        <ele>75.272447</ele>
        <time>2025-03-18T17:32:12.724Z</time>
      </trkpt>
      <trkpt lat="50.852960" lon="3.808397">
        <ele>74.916958</ele>
        <time>2025-03-18T17:32:17.484Z</time>
      </trkpt>
      <trkpt lat="50.853190" lon="3.807548">
        <ele>74.370498</ele>
        <time>2025-03-18T17:32:24.879Z</time>
      </trkpt>
      <trkpt lat="50.853644" lon="3.806087">
        <ele>72.111861</ele>
        <time>2025-03-18T17:32:36.988Z</time>
      </trkpt>
      <trkpt lat="50.853656" lon="3.805925">
        <ele>71.880743</ele>
        <time>2025-03-18T17:32:38.084Z</time>
      </trkpt>
      <trkpt lat="50.853646" lon="3.805822">
        <ele>71.733083</ele>
        <time>2025-03-18T17:32:38.767Z</time>
      </trkpt>
      <trkpt lat="50.853665" lon="3.805711">
        <ele>71.570125</ele>
        <time>2025-03-18T17:32:39.517Z</time>
      </trkpt>
      <trkpt lat="50.853880" lon="3.805234">
        <ele>70.739662</ele>
        <time>2025-03-18T17:32:43.268Z</time>
      </trkpt>
      <trkpt lat="50.854161" lon="3.804914">
        <ele>69.579524</ele>
        <time>2025-03-18T17:32:46.657Z</time>
      </trkpt>
      <trkpt lat="50.854246" lon="3.804853">
        <ele>69.130904</ele>
        <time>2025-03-18T17:32:47.561Z</time>
      </trkpt>
      <trkpt lat="50.854311" lon="3.804852">
        <ele>68.818401</ele>
        <time>2025-03-18T17:32:48.183Z</time>
      </trkpt>
      <trkpt lat="50.854539" lon="3.804872">
        <ele>67.720608</ele>
        <time>2025-03-18T17:32:50.342Z</time>
      </trkpt>
      <trkpt lat="50.854708" lon="3.804710">
        <ele>66.770958</ele>
        <time>2025-03-18T17:32:52.184Z</time>
      </trkpt>
      <trkpt lat="50.855050" lon="3.804206">
        <ele>64.525302</ele>
        <time>2025-03-18T17:32:56.578Z</time>
      </trkpt>
      <trkpt lat="50.855302" lon="3.803721">
        <ele>62.618922</ele>
        <time>2025-03-18T17:33:00.313Z</time>
      </trkpt>
      <trkpt lat="50.855509" lon="3.803415">
        <ele>61.216224</ele>
        <time>2025-03-18T17:33:02.959Z</time>
      </trkpt>
      <trkpt lat="50.855589" lon="3.803243">
        <ele>60.499470</ele>
        <time>2025-03-18T17:33:04.227Z</time>
      </trkpt>
      <trkpt lat="50.855680" lon="3.803091">
        <ele>59.796671</ele>
        <time>2025-03-18T17:33:05.467Z</time>
      </trkpt>
      <trkpt lat="50.855761" lon="3.803015">
        <ele>59.296355</ele>
        <time>2025-03-18T17:33:06.354Z</time>
      </trkpt>
      <trkpt lat="50.855899" lon="3.802925">
        <ele>58.503238</ele>
        <time>2025-03-18T17:33:07.758Z</time>
      </trkpt>
      <trkpt lat="50.856207" lon="3.802741">
        <ele>56.753855</ele>
        <time>2025-03-18T17:33:10.851Z</time>
      </trkpt>
      <trkpt lat="50.856300" lon="3.802686">
        <ele>56.226290</ele>
        <time>2025-03-18T17:33:11.787Z</time>
      </trkpt>
      <trkpt lat="50.856590" lon="3.802477">
        <ele>54.533098</ele>
        <time>2025-03-18T17:33:14.767Z</time>
      </trkpt>
      <trkpt lat="50.856714" lon="3.802281">
        <ele>53.602165</ele>
        <time>2025-03-18T17:33:16.389Z</time>
      </trkpt>
      <trkpt lat="50.857000" lon="3.801290">
        <ele>49.768562</ele>
        <time>2025-03-18T17:33:22.736Z</time>
      </trkpt>
      <trkpt lat="50.857043" lon="3.801229">
        <ele>49.436358</ele>
        <time>2025-03-18T17:33:23.264Z</time>
      </trkpt>
      <trkpt lat="50.857200" lon="3.801006">
        <ele>48.222753</ele>
        <time>2025-03-18T17:33:25.206Z</time>
      </trkpt>
      <trkpt lat="50.857662" lon="3.800520">
        <ele>45.030965</ele>
        <time>2025-03-18T17:33:30.264Z</time>
      </trkpt>
      <trkpt lat="50.857957" lon="3.800141">
        <ele>42.845001</ele>
        <time>2025-03-18T17:33:33.749Z</time>
      </trkpt>
      <trkpt lat="50.858109" lon="3.799892">
        <ele>41.668112</ele>
        <time>2025-03-18T17:33:35.788Z</time>
      </trkpt>
      <trkpt lat="50.858225" lon="3.799567">
        <ele>41.027392</ele>
        <time>2025-03-18T17:33:38.024Z</time>
      </trkpt>
      <trkpt lat="50.858501" lon="3.799178">
        <ele>40.023074</ele>
        <time>2025-03-18T17:33:41.601Z</time>
      </trkpt>
      <trkpt lat="50.858711" lon="3.798664">
        <ele>38.972363</ele>
        <time>2025-03-18T17:33:45.564Z</time>
      </trkpt>
      <trkpt lat="50.858821" lon="3.798522">
        <ele>38.586601</ele>
        <time>2025-03-18T17:33:47.094Z</time>
      </trkpt>
      <trkpt lat="50.858936" lon="3.798373">
        <ele>38.182712</ele>
        <time>2025-03-18T17:33:48.775Z</time>
      </trkpt>
      <trkpt lat="50.859167" lon="3.798236">
        <ele>37.512145</ele>
        <time>2025-03-18T17:33:51.767Z</time>
      </trkpt>
      <trkpt lat="50.859424" lon="3.797994">
        <ele>36.875422</ele>
        <time>2025-03-18T17:33:55.925Z</time>
      </trkpt>
      <trkpt lat="50.859525" lon="3.797724">
        <ele>36.961089</ele>
        <time>2025-03-18T17:33:59.051Z</time>
      </trkpt>
      <trkpt lat="50.859697" lon="3.797519">
        <ele>37.054163</ele>
        <time>2025-03-18T17:34:02.740Z</time>
      </trkpt>
      <trkpt lat="50.859987" lon="3.797351">
        <ele>37.187686</ele>
        <time>2025-03-18T17:34:08.826Z</time>
      </trkpt>
      <trkpt lat="50.860364" lon="3.797005">
        <ele>37.376088</ele>
        <time>2025-03-18T17:34:16.876Z</time>
      </trkpt>
      <trkpt lat="50.860688" lon="3.796822">
        <ele>37.524830</ele>
        <time>2025-03-18T17:34:22.439Z</time>
      </trkpt>
      <trkpt lat="50.860862" lon="3.796689">
        <ele>37.608370</ele>
        <time>2025-03-18T17:34:25.468Z</time>
      </trkpt>
      <trkpt lat="50.860830" lon="3.796526">
        <ele>37.711297</ele>
        <time>2025-03-18T17:34:27.046Z</time>
      </trkpt>
      <trkpt lat="50.860542" lon="3.795694">
        <ele>38.532907</ele>
        <time>2025-03-18T17:34:36.653Z</time>
      </trkpt>
      <trkpt lat="50.860391" lon="3.795380">
        <ele>38.874701</ele>
        <time>2025-03-18T17:34:41.038Z</time>
      </trkpt>
      <trkpt lat="50.860129" lon="3.795021">
        <ele>39.349877</ele>
        <time>2025-03-18T17:34:47.054Z</time>
      </trkpt>
      <trkpt lat="50.857918" lon="3.792430">
        <ele>47.425531</ele>
        <time>2025-03-18T17:36:04.022Z</time>
      </trkpt>
      <trkpt lat="50.857792" lon="3.792252">
        <ele>48.027960</ele>
        <time>2025-03-18T17:36:09.111Z</time>
      </trkpt>
      <trkpt lat="50.856776" lon="3.790447">
        <ele>53.528529</ele>
        <time>2025-03-18T17:36:54.191Z</time>
      </trkpt>
      <trkpt lat="50.856212" lon="3.789479">
        <ele>56.640860</ele>
        <time>2025-03-18T17:37:18.863Z</time>
      </trkpt>
      <trkpt lat="50.855817" lon="3.788827">
        <ele>58.775969</ele>
        <time>2025-03-18T17:37:35.954Z</time>
      </trkpt>
      <trkpt lat="50.855499" lon="3.788352">
        <ele>60.303934</ele>
        <time>2025-03-18T17:37:49.068Z</time>
      </trkpt>
      <trkpt lat="50.855296" lon="3.788099">
        <ele>61.189796</ele>
        <time>2025-03-18T17:37:56.817Z</time>
      </trkpt>
      <trkpt lat="50.854932" lon="3.787774">
        <ele>62.622826</ele>
        <time>2025-03-18T17:38:09.233Z</time>
      </trkpt>
      <trkpt lat="50.854134" lon="3.787198">
        <ele>65.290667</ele>
        <time>2025-03-18T17:38:33.084Z</time>
      </trkpt>
      <trkpt lat="50.853913" lon="3.786957">
        <ele>65.290667</ele>
        <time>2025-03-18T17:38:39.947Z</time>
      </trkpt>
      <trkpt lat="50.853738" lon="3.786700">
        <ele>65.290667</ele>
        <time>2025-03-18T17:38:46.067Z</time>
      </trkpt>
      <trkpt lat="50.853493" lon="3.786234">
        <ele>65.290667</ele>
        <time>2025-03-18T17:38:55.005Z</time>
      </trkpt>
      <trkpt lat="50.853470" lon="3.786055">
        <ele>65.290667</ele>
        <time>2025-03-18T17:38:57.504Z</time>
      </trkpt>
      <trkpt lat="50.853432" lon="3.786187">
        <ele>65.290667</ele>
        <time>2025-03-18T17:38:59.468Z</time>
      </trkpt>
      <trkpt lat="50.853194" lon="3.786555">
        <ele>65.290667</ele>
        <time>2025-03-18T17:39:06.126Z</time>
      </trkpt>
    </trkseg>
  </trk>
</gpx>